     2              OBSERVATION DATA    G (GPS)             RINEX VERSION / TYPE
ASRINEXO V2.9.9 LH AIUB 01-FEB- 1 16:26                     PGM / RUN BY / DATE
BERN ASHTECH Z-12                                           COMMENT
BIT 2 OF LLI (+4) FLAGS DATA COLLECTED UNDER "AS" CONDITION COMMENT
USNB                                                        MARKER NAME
                                                            OBSERVER / AGENCY
? ASHTECH Z-XII3 1D15                                       REC # / TYPE / VERS
? CHOKE RING                                                ANT # / TYPE
  1112129.4800 -4842863.4800  3985526.2700                  APPROX POSITION XYZ
        0.0000        0.0000        0.0000                  ANTENNA: DELTA H/E/N
     1     1                                                WAVELENGTH FACT L1/2
     5    C1    L1    L2    P1    P2                        # / TYPES OF OBSERV
  2000     4    21     0     0   30.000000                  TIME OF FIRST OBS
                                                            END OF HEADER
 00  4 21  0  0 30.0000000  0  7 06 24 17 23 09 26 10
  21804838.550   -15570158.116 8 -12116526.67147  21804842.953    21804854.0344
  24217677.775    -2427981.161 7  -1872511.81745  24217685.101    24217702.5274
  21041100.342   -20131866.460 9 -15673126.61447  21041102.757    21041112.2844
  23211139.552    -8943717.278 8  -6940860.39146  23211142.508    23211154.5234
  24569834.089      -31664.99317
  19947658.213   -24296007.808 9 -18905643.04848  19947663.472    19947671.8864
  22980931.794   -11315930.500 8  -8513744.69446  22980931.734    22980943.1134
 00  4 21  0  1  0.0000000  0  6 06 24 17 23 26 10
  21817403.832   -15504145.873 8 -12065088.63047  21817405.163    21817415.4684
  24235456.386    -2334596.470 7  -1799744.65345  24235453.793    24235471.0094
  21028492.805   -20198109.209 9 -15724744.28647  21028496.854    21028506.5164
  23199511.027    -9004811.427 8  -6988466.10546  23199515.838    23199529.1134
  19949160.202   -24288123.451 9 -18899499.37248  19949163.603    19949171.8934
  22995044.094   -11241743.497 8  -8455936.68546  22995048.575    22995060.3734
 00  4 21  0  1 30.0000000  0  6 06 24 17 23 26 10
  21830042.351   -15437712.078 8 -12013322.10747  21830047.203    21830057.6994
  24253256.237    -2241026.865 7  -1726833.46045  24253262.545    24253277.7444
  21015950.248   -20264021.923 9 -15776104.78547  21015954.132    21015963.7354
  23187910.833    -9065762.209 8  -7035960.10446  23187917.107    23187930.5774
  19950776.053   -24279630.824 9 -18892881.72348  19950779.846    19950788.1544
  23009171.626   -11167510.580 8  -8398092.89946  23009174.504    23009186.5734
 00  4 21  0  2  0.0000000  0  7 06 24 17 23 09 26 10
  21842767.703   -15370858.509 8 -11961228.48747  21842768.780    21842779.8274
  24271098.409    -2147271.459 7  -1653777.49645  24271101.823    24271119.6494
  21003466.851   -20329624.183 9 -15827223.37047  21003470.445    21003480.4194
  23176342.921    -9126577.724 8  -7083348.69646  23176344.325    23176357.0914
  24510459.555      -59771.09017
  19952508.149   -24270529.409 9 -18885789.69448  19952511.741    19952520.0094
  23023312.704   -11093213.428 8  -8340199.06246  23023313.551    23023324.7854
 00  4 21  0  2 30.0000000  0  7 06 24 17 23 09 26 10
  21855567.553   -15303580.827 8 -11908804.38947  21855571.614    21855582.1904
  24288978.020    -2053325.854 7  -1580573.33745  24288980.838    24288996.7324
  20991041.253   -20394919.505 9 -15878102.78747  20991045.434    20991055.1284
  23164794.372    -9187265.193 8  -7130637.53346  23164796.653    23164807.8174
  24490646.808     -163845.054 7   -103473.28654                  24490675.8434
  19954356.819   -24260815.615 9 -18878220.48648  19954360.165    19954368.5034
  23037467.572   -11018842.739 8  -8282247.90846  23037465.563    23037477.4364
 00  4 21  0  3  0.0000000  0  7 06 24 17 23 09 26 10
  21868451.961   -15235873.872 8 -11856045.79047  21868455.461    21868466.5644
  24306893.568    -1959195.633 7  -1507225.29644  24306890.133    24306908.8394
  20978676.256   -20459905.639 9 -15928741.28448  20978678.643    20978688.7724
  23153268.034    -9247838.320 8  -7177837.25446  23153269.438    23153281.1084
  24470853.900     -267961.878 7   -184602.93244  24470850.292    24470869.4054
  19956324.006   -24250481.661 9 -18870168.03048  19956326.603    19956335.1364
  23051636.074   -10944396.464 8  -8224237.86946  23051632.486    23051644.4354
 00  4 21  0  3 30.0000000  0  7 06 24 17 23 09 26 10
  21881417.689   -15167740.360 8 -11802954.81147  21881421.069    21881432.1174
  24324828.572    -1864883.745 7  -1433735.74045  24324839.579    24324856.3744
  20966367.787   -20524584.891 9 -15979140.65547  20966370.738    20966380.5464
  23141761.961    -9308308.273 8  -7224956.57646  23141762.485    23141774.2114
  24451031.411     -372115.303 7   -265761.19544  24451031.672    24451047.6674
  19958403.217   -24239547.883 9 -18861648.17948  19958407.035    19958415.9134
  23065810.495   -10869877.831 8  -8166171.45046  23065813.206    23065825.1474
 00  4 21  0  4  0.0000000  0  7 06 24 17 23 09 26 10
  21894466.077   -15099178.068 8 -11749529.72347  21894468.601    21894479.8944
  24342800.521    -1770400.706 7  -1360112.75844  24342819.666    24342835.7154
  20954116.489   -20588965.951 9 -16029307.65947  20954119.242    20954128.8974
  23130276.287    -9368656.055 8  -7271980.68546  23130278.620    23130291.0984
  24431201.299     -476306.735 7   -346949.08045  24431204.385    24431220.6944
  19960594.268   -24228035.150 9 -18852677.19348  19960597.904    19960606.4194
  23080003.117   -10795286.063 8  -8108048.04846  23080007.289    23080018.9914
 00  4 21  0  4 30.0000000  0  7 06 24 17 23 09 26 10
  21907591.880   -15030190.764 8 -11695773.45447  21907596.492    21907607.1364
  24360836.377    -1675756.727 7  -1286364.45344  24360829.029    24360845.5614
  20941922.222   -20653037.790 9 -16079233.71147  20941926.222    20941936.2924
  23118816.824    -9428889.651 8  -7318915.86546  23118816.901    23118828.0934
  24411360.490     -580536.336 7   -428166.64745  24411368.768    24411386.5554
  19962894.722   -24215944.790 9 -18843256.11348  19962898.599    19962907.0464
  23094205.889   -10720625.875 8  -8049871.29346  23094213.988    23094225.6344
 00  4 21  0  5  0.0000000  0  7 06 24 17 23 09 26 10
  21920803.188   -14960776.822 8 -11641684.74147  21920805.548    21920815.5034
  24378876.000    -1580958.836 7  -1212496.19444  24378870.774    24378885.9104
  20929788.461   -20716807.988 9 -16128924.72047  20929791.572    20929801.7184
  23107371.365    -9489022.794 8  -7365772.73146  23107373.492    23107384.9754
  24391517.295     -684796.745 7   -509408.24845  24391528.755    24391545.0914
  19965305.458   -24203277.694 9 -18833385.62648  19965309.062    19965317.5484
  23108431.232   -10645900.634 8  -7991643.88346  23108434.263    23108446.1014
 00  4 21  0  5 30.0000000  0  7 06 24 17 23 09 26 10
  21934086.241   -14890957.781 8 -11587280.34247  21934091.402    21934101.8444
  24396936.084    -1486014.754 7  -1138513.97645  24396938.299    24396954.7744
  20917709.655   -20780277.887 9 -16178381.73048  20917713.672    20917723.8144
  23095948.151    -9549047.583 8  -7412545.19246  23095951.245    23095962.6914
  24371692.070     -789087.593 7   -590673.57345  24371683.616    24371698.0704
  19967826.069   -24190031.764 9 -18823064.10248  19967829.561    19967838.4244
  23122659.441   -10571118.401 8  -7933372.04746  23122664.928    23122676.9754
 00  4 21  0  6  0.0000000  0  6 06 17 23 09 26 10
  21947453.744   -14820734.937 8 -11532561.31847  21947454.275    21947465.0444
  20905691.287   -20843440.911 9 -16227599.61348  20905693.967    20905703.7434
  23084547.778    -9608954.238 8  -7459225.56046  23084550.739    23084562.7524
  24351820.018     -893422.307 7   -671973.08445  24351828.915    24351844.3054
  19970459.365   -24176194.980 9 -18812282.17248  19970462.378    19970471.4914
  23136900.143   -10496278.539 8  -7875055.31946  23136906.061    23136917.7374
 00  4 21  0  6 30.0000000  0  6 06 17 23 09 26 10
  21960892.958   -14750103.693 8 -11477524.06947  21960895.454    21960906.3344
  20893730.897   -20906290.207 9 -16276573.03147  20893734.021    20893743.5244
  23073165.353    -9668761.294 8  -7505828.34846  23073170.199    23073182.2434
  24331952.794     -997802.623 7   -753308.17945  24331966.173    24331980.8644
  19973204.365   -24161762.794 9 -18801036.28848  19973209.015    19973217.8304
  23151155.187   -10421382.874 8  -7816695.11146  23151157.948    23151170.1554
 00  4 21  0  7  0.0000000  0  6 06 17 23 09 26 10
  21974408.745   -14679072.158 8 -11422174.89147  21974412.432    21974423.5404
  20881832.207   -20968820.438 9 -16325297.83648  20881834.980    20881844.6694
  23061807.599    -9728455.727 8  -7552343.35946  23061809.976    23061822.0674
  24312099.093    -1102233.891 7   -834682.91645  24312091.167    24312108.5624
  19976066.102   -24146734.323 9 -18789325.77448  19976068.743    19976077.2684
  23165418.537   -10346443.843 8  -7758301.11046  23165418.866    23165431.3334
 00  4 21  0  7 30.0000000  0  6 06 17 23 09 26 10
  21988002.137   -14607638.406 8 -11366512.30047  21988005.726    21988016.6544
  20869996.653   -21031018.498 9 -16373763.79348  20869999.090    20870008.4944
  23050471.779    -9788022.803 8  -7598759.14646  23050474.594    23050487.3874
  24292211.150    -1206715.073 7   -916096.52145  24292209.203    24292226.4144
  19979038.150   -24131116.906 9 -18777156.34348  19979040.827    19979049.2454
  23179684.736   -10271458.178 8  -7699870.78346  23179688.245    23179701.0864
 00  4 21  0  8  0.0000000  0  6 06 17 23 09 26 10
  22001677.424   -14535781.484 8 -11310519.97047  22001679.423    22001690.6394
  20858224.071   -21092882.766 9 -16421969.66448  20858226.779    20858236.2074
  23039159.538    -9847470.631 8  -7645082.01346  23039162.004    23039173.4804
  24272317.442    -1311234.943 7   -997540.31345  24272320.142    24272337.0164
  19982120.199   -24114919.666 9 -18764535.10048  19982122.742    19982131.7094
  23193966.737   -10196413.688 8  -7641394.61546  23193969.267    23193981.2754
 00  4 21  0  8 30.0000000  0  6 06 17 23 09 26 10
  22015429.388   -14463511.083 8 -11254205.44447  22015432.612    22015443.4194
  20846513.211   -21154414.637 9 -16469916.51148  20846516.988    20846527.2204
  23027867.004    -9906812.865 8  -7691322.59846  23027870.301    23027882.0014
  24252430.321    -1415759.853 7  -1078988.08345  24252430.344    24252445.3734
  19985311.231   -24098142.618 9 -18751462.06048  19985315.161    19985324.1874
  23208254.670   -10121311.976 8  -7582873.83946  23208260.893    23208271.6064
 00  4 21  0  9  0.0000000  0  6 06 17 23 09 26 10
  22029258.680   -14390834.498 8 -11197574.41247  22029262.160    22029273.5724
  20834866.906   -21215623.740 9 -16517611.86048  20834869.681    20834879.2864
  23016600.118    -9966042.686 8  -7737475.59746  23016598.652    23016610.2454
  24232546.626    -1520272.808 7  -1160426.48445  24232540.207    24232557.1694
  19988614.754   -24080780.394 9 -18737933.03448  19988619.441    19988628.0674
  23222561.818   -10046142.762 8  -7524300.45346  23222564.696    23222575.5714
 00  4 21  0  9 30.0000000  0  6 06 17 23 09 26 10
  22043167.852   -14317758.352 8 -11140632.03047  22043168.612    22043179.3724
  20823278.994   -21276517.436 9 -16565061.43948  20823281.648    20823291.6304
  23005345.720   -10025164.899 8  -7783544.74246  23005347.713    23005360.0934
  24212654.234    -1624760.714 7  -1241845.37445  24212657.377    24212673.3294
  19992031.313   -24062837.615 9 -18723951.62848  19992033.769    19992042.3644
  23236883.239    -9970887.314 8  -7465659.88846  23236885.629    23236897.9764
 00  4 21  0 10  0.0000000  0  6 06 17 23 09 26 10
  22057142.859   -14244298.270 8 -11083390.47747  22057147.191    22057158.2324
  20811754.018   -21337083.895 9 -16612256.03148  20811756.153    20811766.1064
  22994111.644   -10084186.503 8  -7829535.47446  22994115.537    22994128.0924
  24192784.302    -1729220.048 7  -1323241.99245  24192779.260    24192795.2734
  19995556.640   -24044308.661 9 -18709513.46848  19995559.944    19995568.2264
  23251215.490    -9895553.173 8  -7406958.01946  23251221.062    23251233.5844
 00  4 21  0 10 30.0000000  0  6 06 17 23 09 26 10
  22071190.179   -14170478.220 8 -11025868.46147  22071194.141    22071205.8294
  20800292.395   -21397312.240 9 -16659187.15648  20800295.187    20800305.4034
  22982902.731   -10143092.173 8  -7875435.88346  22982906.535    22982919.0154
  24172909.833    -1833655.079 7  -1404619.67945  24172906.086    24172922.7964
  19999194.924   -24025193.641 9 -18694618.63048  19999197.304    19999205.7004
  23265562.675    -9820153.996 8  -7348205.47546  23265568.712    23265581.4744
 00  4 21  0 11  0.0000000  0  6 06 17 23 09 26 10
  22085306.413   -14096294.829 8 -10968063.31347  22085310.837    22085322.6034
  20788897.340   -21457195.304 9 -16705849.23348  20788899.640    20788909.5694
  22971718.587   -10201867.564 8  -7921234.77646  22971721.768    22971733.8734
  24153032.928    -1938082.559 7  -1485991.47845  24153034.535    24153049.1754
  20002943.725   -24005499.792 9 -18679272.76148  20002945.228    20002953.6804
  23279925.765    -9744680.213 8  -7289394.79646  23279929.898    23279942.4474
 00  4 21  0 11 30.0000000  0  6 06 17 23 09 26 10
  22099495.300   -14021748.419 8 -10909975.27647  22099497.267    22099507.5064
  20777572.388   -21516705.023 9 -16752220.39248  20777575.380    20777585.3644
  22960559.706   -10260507.765 8  -7966928.34446  22960562.706    22960574.9404
  24133159.506    -2042506.942 8  -1567360.89045  24133161.701    24133176.8964
  20006797.648   -23985235.964 9 -18663482.74948  20006801.052    20006809.8174
  23294298.750    -9669156.272 8  -7230545.01846  23294303.421    23294314.6644
 00  4 21  0 12  0.0000000  0  6 06 17 23 09 26 10
  22113749.357   -13946840.247 8 -10851605.34147  22113751.946    22113762.4854
  20766320.425   -21575833.220 9 -16798294.26048  20766323.716    20766333.6674
  22949424.442   -10319012.155 8  -8012516.08346  22949430.138    22949442.5924
  24113281.261    -2146925.837 8  -1648726.04545  24113293.355    24113307.3424
  20010763.047   -23964396.450 9 -18647244.15148  20010766.637    20010774.9474
  23308673.796    -9593608.604 8  -7171676.74546  23308679.586    23308691.1944
 00  4 21  0 12 30.0000000  0  6 06 17 23 09 26 10
  22128075.317   -13871563.955 8 -10792948.56547  22128076.603    22128087.7964
  20755141.027   -21634592.738 9 -16844080.85448  20755142.837    20755151.6304
  22938321.251   -10377376.160 8  -8057994.44146  22938323.226    22938335.3624
  24093425.328    -2251345.197 8  -1730091.51345  24093420.694    24093437.0984
  20014835.316   -23942998.543 9 -18630570.44448  20014838.444    20014846.6114
  23323056.788    -9518026.553 8  -7112781.68346  23323061.639    23323074.8904
 00  4 21  0 13  0.0000000  0  6 06 17 23 09 26 10
  22142470.394   -13795910.535 8 -10733997.93546  22142473.312    22142483.3854
  20744028.108   -21692981.930 9 -16889578.87648  20744031.220    20744040.4894
  22927238.548   -10435614.475 8  -8103374.84846  22927241.336    22927252.4234
  24073549.483    -2355759.161 8  -1811452.79345  24073552.759    24073566.5554
  20019012.739   -23921044.935 9 -18613463.72548  20019016.126    20019024.4214
  23337449.284    -9442401.648 8  -7053853.26046  23337452.921    23337466.0554
 00  4 21  0 13 30.0000000  0  6 06 17 23 09 26 10
  22156934.525   -13719896.383 8 -10674766.20846  22156938.103    22156948.3134
  20732988.101   -21751002.280 9 -16934789.48448  20732990.202    20732999.4944
  22916177.891   -10493734.457 8  -8148663.04146  22916181.763    22916193.2924
  24053682.043    -2460163.536 8  -1892806.63945  24053684.967    24053699.0304
  20023296.441   -23898532.984 9 -18595921.93648  20023300.091    20023308.5204
  23351855.523    -9366737.394 8  -6994894.16846  23351851.840    23351864.1504
 00  4 21  0 14  0.0000000  0  6 06 17 23 09 26 10
  22171468.789   -13643523.761 8 -10615255.14746  22171471.417    22171482.1284
  20722013.278   -21808670.835 9 -16979725.97148  20722016.513    20722025.7864
  22905140.592   -10551744.287 8  -8193865.42846  22905143.189    22905153.4864
  24033815.017    -2564562.909 8  -1974156.56945  24033817.953    24033832.5424
  20027685.533   -23875470.997 9 -18577951.54948  20027688.573    20027697.2084
  23366260.955    -9291007.474 8  -6935883.88346  23366263.274    23366275.1184
 00  4 21  0 14 30.0000000  0  6 06 17 23 09 26 10
  22186072.461   -13566785.945 8 -10555459.53146  22186074.156    22186084.9984
  20711105.338   -21865990.681 9 -17024390.73948  20711108.684    20711118.2794
  22894119.166   -10609654.549 8  -8238990.21346  22894122.697    22894134.0844
  24013944.825    -2668956.979 8  -2055502.32645  24013951.866    24013966.8444
  20032178.837   -23851858.828 9 -18559552.44548  20032181.759    20032190.2534
  23380688.440    -9215187.797 8  -6876803.65146  23380691.102    23380702.3614
 00  4 21  0 15  0.0000000  0  6 06 17 23 09 26 10
  22200742.262   -13489696.674 8 -10495390.05347  22200743.838    22200755.7334
  20700266.212   -21922959.168 9 -17068781.72248  20700268.102    20700277.3784
  22883121.283   -10667472.325 8  -8284042.93846  22883120.785    22883131.7864
  23994080.802    -2773334.454 8  -2136835.16245  23994089.606    23994103.9844
  20036781.095   -23827668.880 9 -18540703.12248  20036784.608    20036793.1864
  23395132.380    -9139283.808 8  -6817657.70646  23395135.092    23395146.7914
 00  4 21  0 15 30.0000000  0  6 06 17 23 09 26 10
  22215476.520   -13412258.759 8 -10435048.90447  22215479.992    22215491.5694
  20689487.628   -21979583.760 9 -17112904.73848  20689492.588    20689502.0804
  22872131.646   -10725196.010 8  -8329022.33246  22872135.024    22872147.2614
  23974233.329    -2877698.484 8  -2218157.52545  23974229.890    23974243.9624
  20041496.915   -23802900.393 9 -18521402.99148  20041498.156    20041506.7114
  23409588.346    -9063312.738 8  -6758459.51546  23409591.155    23409604.5184
 00  4 21  0 16  0.0000000  0  6 06 17 23 09 26 10
  22230281.667   -13334464.229 8 -10374429.88646  22230283.735    22230294.7484
  20678780.592   -22035864.495 9 -17156759.82348  20678782.568    20678791.8534
  22861168.851   -10782824.786 8  -8373927.77246  22861168.417    22861180.4684
  23954371.681    -2982031.739 8  -2299455.90845  23954375.380    23954391.1404
  20046316.802   -23777558.712 9 -18501656.21648  20046320.460    20046329.1014
  23424056.255    -8987295.068 8  -6699225.00846  23424057.164    23424069.1044
 00  4 21  0 16 30.0000000  0  6 06 17 23 09 26 10
  22245149.266   -13256322.864 8 -10313540.59146  22245153.365    22245164.8784
  20668133.693   -22091799.137 9 -17200345.21848  20668138.309    20668147.8024
  22850219.459   -10840352.483 8  -8418754.44846  22850222.056    22850232.3254
  23934527.992    -3086322.678 8  -2380721.30445  23934529.120    23934543.8284
  20051251.216   -23751630.869 9 -18481452.69048  20051254.700    20051263.3134
  23438527.291    -8911240.919 8  -6639962.08246  23438529.312    23438541.9864
 00  4 21  0 17  0.0000000  0  6 06 17 23 09 26 10
  22260085.905   -13177839.084 8 -10252384.47946  22260088.566    22260099.2824
  20657559.972   -22147387.771 9 -17243661.00048  20657560.779    20657569.8414
  22839295.866   -10897757.318 8  -8463485.38846  22839298.313    22839308.4464
  23914692.771    -3190559.058 8  -2461944.23545  23914694.695    23914707.9274
  20056293.263   -23725132.141 9 -18460804.32348  20056297.169    20056305.6864
  23452999.505    -8835166.846 8  -6580683.62946  23453005.487    23453018.2664
 00  4 21  0 17 30.0000000  0  6 06 17 23 09 26 10
  22275085.570   -13099012.409 8 -10190961.18346  22275088.857    22275098.8884
  20647046.029   -22202624.128 9 -17286702.28648  20647049.136    20647058.5834
  22828398.182   -10955033.125 8  -8508115.79746  22828399.415    22828409.5034
  23894870.910    -3294730.888 8  -2543116.83945  23894869.855    23894883.6414
  20061441.618   -23698085.006 9 -18439728.62048  20061443.990    20061452.5874
  23467488.587    -8759071.592 8  -6521388.69446  23467486.291    23467499.3904
 00  4 21  0 18  0.0000000  0  6 06 17 23 09 26 10
  22290150.318   -13019855.541 8 -10129280.56546  22290152.396    22290163.4294
  20636604.248   -22257496.942 9 -17329460.28648  20636607.181    20636616.7234
  22817520.964   -11012179.874 8  -8552645.64446  22817523.799    22817535.4294
  23875062.580    -3398824.723 8  -2624228.64945  23875061.396    23875076.4084
  20066692.396   -23670487.449 9 -18418224.01448  20066695.493    20066703.8954
  23481973.313    -8682928.189 8  -6462056.25346  23481975.969    23481988.6744
 00  4 21  0 18 30.0000000  0  6 06 17 23 09 26 10
  22305273.333   -12940361.397 8 -10067337.17346  22305279.008    22305291.2174
  20626236.090   -22311990.392 9 -17371922.68348  20626237.554    20626247.1194
  22806667.934   -11069202.489 8  -8597078.75046  22806672.623    22806684.8854
  23855266.824    -3502857.888 8  -2705293.19845  23855264.951    23855278.6554
  20072048.645   -23642346.231 9 -18396295.78248  20072050.753    20072058.8314
  23496477.869    -8606712.550 8  -6402667.52246  23496480.125    23496492.1064
 00  4 21  0 19  0.0000000  0  6 06 17 23 09 26 10
  22320469.869   -12860523.588 8 -10005125.97346  22320472.039    22320483.3144
  20615938.521   -22366086.842 9 -17414075.72348  20615943.112    20615952.7534
  22795841.338   -11126105.221 8  -8641418.45546  22795845.064    22795855.6564
  23835477.368    -3606828.156 8  -2786308.70545  23835479.764    23835493.4334
  20077502.043   -23613676.111 9 -18373955.41748  20077506.409    20077514.6894
  23510993.343    -8530438.333 8  -6343233.12446  23510994.355    23511006.3814
 00  4 21  0 19 30.0000000  0  6 06 17 23 09 26 10
  22335723.375   -12780350.389 8  -9942653.45546  22335727.997    22335740.1964
  20605724.422   -22419772.065 9 -17455908.33748  20605727.082    20605736.7774
  22785029.337   -11182908.633 8  -8685680.75846  22785035.093    22785046.6764
  23815693.674    -3710749.336 8  -2867286.01045  23815702.836    23815718.1444
  20083060.179   -23584473.045 9 -18351199.76648  20083063.531    20083072.0394
  23525520.943    -8454097.208 8  -6283746.58846  23525520.952    23525534.1434
 00  4 21  0 20  0.0000000  0  6 06 17 23 09 26 10
  22351046.299   -12699836.958 8  -9879915.81346  22351049.962    22351060.9474
  20595586.380   -22473038.407 9 -17497414.53948  20595590.639    20595600.3264
  22774243.191   -11239613.303 8  -8729866.11647  22774245.038    22774256.0844
  23795926.774    -3814641.896 8  -2948241.01945  23795933.842    23795947.4664
  20088719.046   -23554742.560 9 -18328033.14248  20088720.985    20088729.3304
  23540056.532    -8377689.925 8  -6224208.53245  23540061.266    23540073.2264
 00  4 21  0 20 30.0000000  0  6 06 17 23 09 26 10
  22366434.249   -12618973.620 8  -9816905.52346  22366437.770    22366449.3964
  20585529.241   -22525895.620 9 -17538601.93948  20585532.158    20585541.8584
  22763476.114   -11296205.742 8  -8773964.03147  22763475.770    22763487.0364
  23776176.794    -3918509.100 8  -3029176.23245  23776167.505    23776182.3374
  20094475.639   -23524479.959 9 -18304451.88748  20094479.434    20094487.8634
  23554613.714    -8301235.529 8  -6164633.74546  23554610.737    23554622.2204
 00  4 21  0 21  0.0000000  0  6 06 17 23 09 26 10
  22381883.032   -12537782.895 8  -9753640.11146  22381887.519    22381898.5934
  20575544.734   -22578358.463 9 -17579482.03748  20575549.005    20575558.5374
  22752723.365   -11352681.446 8  -8817970.96947  22752728.262    22752740.0464
  23756401.488    -4022337.052 8  -3110080.88245  23756410.065    23756424.6614
  20100338.581   -23493672.233 9 -18280445.85948  20100342.023    20100350.5484
  23569163.667    -8224738.303 8  -6105025.57846  23569167.770    23569179.6554
 00  4 21  0 21 30.0000000  0  6 06 17 23 09 26 10
  22397394.989   -12456275.908 8  -9690128.25546  22397397.684    22397409.4034
  20565635.296   -22630436.318 9 -17620062.14748  20565639.436    20565648.3054
  22742004.997   -11409038.732 8  -8861885.64547  22742004.126    22742015.2844
  23736663.660    -4126134.407 8  -3190961.70845  23736657.089    23736672.3264
  20106306.396   -23462315.701 9 -18256012.19648  20106309.254    20106317.6974
  23583730.479    -8148181.310 8  -6045370.85046  23583735.403    23583748.3334
 00  4 21  0 22  0.0000000  0  6 06 17 23 09 26 10
  22412964.417   -12374444.882 8  -9626363.91746  22412969.911    22412981.2884
  20555799.064   -22682135.387 9 -17660347.08948  20555801.055    20555809.9674
  22731298.628   -11465268.445 8  -8905700.90747  22731303.515    22731315.3094
  23716907.236    -4229888.522 8  -3271808.85145  23716913.944    23716928.2064
  20112377.524   -23430406.846 9 -18231148.14848  20112380.838    20112389.6594
  23598307.048    -8071572.088 8  -5985675.39145  23598314.308    23598326.2424
 00  4 21  0 22 30.0000000  0  6 06 17 23 09 26 10
  22428599.355   -12292294.487 8  -9562350.73046  22428602.566    22428614.3634
  20546029.527   -22733462.116 9 -17700341.88348  20546033.953    20546042.9234
  22720618.609   -11521374.171 8  -8949419.55446  22720625.730    22720638.2484
  23697179.222    -4333574.935 8  -3352603.20946  23697182.933    23697197.3134
  20118556.082   -23397938.313 9 -18205847.99048  20118559.602    20118568.2184
  23612903.552    -7994910.361 8  -5925939.06946  23612903.068    23612915.1934
 00  4 21  0 23  0.0000000  0  6 06 17 23 09 26 10
  22444290.436   -12209837.708 8  -9498098.78146  22444294.398    22444305.1344
  20536338.138   -22784402.369 9 -17740035.53748  20536340.212    20536349.2434
  22709969.740   -11577368.344 8  -8993051.28546  22709971.602    22709982.3984
  23677462.310    -4437195.605 8  -3433346.35946  23677464.280    23677478.9004
  20124839.048   -23364932.981 9 -18180129.54948  20124840.645    20124848.8054
  23627503.472    -7918195.393 8  -5866161.23245  23627501.612    23627512.9924
 00  4 21  0 23 30.0000000  0  6 06 17 23 09 26 10
  22460041.364   -12127070.371 8  -9433604.83746  22460043.875    22460055.5174
  20526718.096   -22834949.902 9 -17779423.17148  20526721.255    20526730.4604
  22699338.132   -11633246.235 8  -9036592.41247  22699338.429    22699349.1504
  23657756.467    -4540742.950 8  -3514032.36146  23657760.370    23657773.6154
  20131217.559   -23331404.953 9 -18154003.80648  20131220.697    20131229.2704
  23642109.876    -7841432.280 8  -5806345.86445  23642109.558    23642119.7934
 00  4 21  0 24  0.0000000  0  6 06 17 23 09 26 10
  22475848.480   -12043993.766 8  -9368869.93346  22475852.573    22475865.2274
  20517175.677   -22885101.100 9 -17818501.97948  20517177.493    20517186.8354
  22688722.019   -11689016.691 8  -9080049.82347  22688725.605    22688736.9134
  23638074.658    -4644189.784 8  -3594640.07146  23638074.295    23638088.1474
  20137698.095   -23297351.644 9 -18127468.75848  20137700.747    20137709.3124
  23656721.163    -7764633.082 8  -5746502.40545  23656722.753    23656736.0304
 00  4 21  0 24 30.0000000  0  6 06 17 23 09 26 10
  22491712.792   -11960626.941 8  -9303908.87246  22491717.191    22491729.0784
  20507706.160   -22934850.541 9 -17857267.71848  20507710.457    20507719.6424
  22678130.737   -11744684.273 8  -9123427.09247  22678132.174    22678143.4084
  23618405.948    -4747534.776 8  -3675168.42546  23618408.364    23618421.9644
  20144273.221   -23262788.464 9 -18100536.39848  20144277.844    20144286.5134
  23671334.130    -7687799.986 8  -5686632.54545  23671342.340    23671355.9884
 00  4 21  0 25  0.0000000  0  6 06 17 23 09 26 10
  22507633.116   -11876981.850 8  -9238730.99446  22507634.554    22507646.8574
  20498317.931   -22984188.433 9 -17895712.77848  20498321.967    20498331.0934
  22667554.494   -11800250.818 8  -9166725.62447  22667557.704    22667569.1894
  23598755.434    -4850782.838 8  -3755621.23746  23598760.706    23598774.4494
  20150949.596   -23227722.010 9 -18073211.88048  20150951.058    20150959.3384
  23685966.792    -7610934.133 8  -5626737.16645  23685971.061    23685983.9204
 00  4 21  0 25 30.0000000  0  6 06 17 23 09 26 10
  22523597.663   -11793060.486 8  -9173337.83246  22523604.494    22523615.9114
  20489011.686   -23033104.927 9 -17933829.47348  20489013.437    20489022.3864
  22656999.074   -11855720.786 8  -9209948.90947  22657002.305    22657013.6424
  23579133.894    -4953925.866 8  -3835992.20646  23579133.468    23579146.4564
  20157718.436   -23192140.164 9 -18045485.75548  20157721.967    20157729.9294
  23700605.093    -7534029.194 8  -5566811.27845  23700606.298    23700617.3534
 00  4 21  0 26  0.0000000  0  6 06 17 23 09 26 10
  22539623.261   -11708859.614 8  -9107726.85446  22539627.727    22539639.5714
  20479784.079   -23081594.641 9 -17971613.60048  20479786.426    20479794.8894
  22646462.839   -11911096.499 8  -9253098.73347  22646464.450    22646476.0424
  23559516.873    -5056972.902 8  -3916288.37746  23559524.666    23559536.8534
  20164587.779   -23156036.282 9 -18017352.83748  20164592.001    20164600.0664
  23715247.022    -7457080.654 8  -5506851.42745  23715247.601    23715260.5554
 00  4 21  0 26 30.0000000  0  6 06 17 23 09 26 10
  22555701.315   -11624379.993 8  -9041898.68946  22555703.314    22555714.6444
  20470641.267   -23129638.922 9 -18009050.64448  20470643.633    20470652.5574
  22635944.714   -11966366.405 8  -9296166.09247  22635947.912    22635958.4474
  23539928.095    -5159939.914 8  -3996522.20346  23539929.741    23539942.6904
  20171559.271   -23119411.723 9 -17988814.20548  20171561.707    20171569.8554
  23729900.158    -7380078.531 8  -5446849.88145  23729899.649    23729914.6534
 00  4 21  0 27  0.0000000  0  6 06 17 23 09 26 10
  22571829.772   -11539616.432 8  -8975849.27046  22571833.573    22571844.9664
  20461579.895   -23177240.927 9 -18046143.06048  20461584.706    20461594.2904
  22625448.905   -12021524.610 8  -9339146.43047  22625451.225    22625461.2984
  23520346.413    -5262820.766 8  -4076688.90546  23520352.028    23520365.2614
  20178631.688   -23082243.552 9 -17959851.98248  20178634.563    20178642.4384
  23744562.509    -7303012.234 8  -5386798.30445  23744566.962    23744579.3034
 00  4 21  0 27 30.0000000  0  6 06 17 23 09 26 10
  22588013.901   -11454559.473 8  -8909571.22846  22588019.193    22588031.4474
  20452605.036   -23224413.429 9 -18082900.79548  20452608.091    20452617.7104
  22614976.725   -12076563.996 8  -9382034.17147  22614977.566    22614987.5304
  23500780.321    -5365602.149 8  -4156778.08746  23500793.323    23500806.4054
  20185809.467   -23044525.552 9 -17930461.32648  20185812.326    20185820.1994
  23759246.585    -7225873.048 8  -5326689.89045  23759246.824    23759258.4234
 00  4 21  0 28  0.0000000  0  6 06 17 23 09 26 10
  22604261.277   -11369202.106 8  -8843059.11046  22604262.520    22604274.8864
  20443708.240   -23271167.903 9 -18119332.79348  20443711.274    20443720.4734
  22604522.881   -12131474.080 8  -9424821.16347  22604528.143    22604538.5144
  23481252.021    -5468276.214 8  -4236783.64046  23481254.415    23481266.9344
  20193091.784   -23006259.778 9 -17900643.82948  20193093.770    20193101.8804
  23773939.660    -7148666.450 8  -5266528.96945  23773937.312    23773950.3874
 00  4 21  0 28 30.0000000  0  6 06 17 23 09 26 10
  22620554.772   -11283559.192 8  -8776324.47946  22620559.571    22620572.1424
  20434890.282   -23317507.846 9 -18155441.79348  20434892.777    20434901.8294
  22594101.141   -12186259.116 8  -9467510.72047  22594102.715    22594114.0324
  23461737.235    -5570837.179 8  -4316701.10646  23461737.965    23461751.3024
  20200474.022   -22967462.034 9 -17870411.81948  20200476.889    20200485.1344
  23788645.331    -7071393.837 8  -5206316.65645  23788641.707    23788654.9084
 00  4 21  0 29  0.0000000  0  6 06 17 23 09 26 10
  22636906.889   -11197628.325 8  -8709365.49146  22636911.256    22636924.3134
  20426147.531   -23363453.010 9 -18191243.15948  20426149.941    20426159.3164
  22583697.922   -12240924.717 8  -9510107.20647  22583699.774    22583711.1474
  23442237.214    -5673263.780 8  -4396513.82446  23442246.581    23442259.4544
  20207955.084   -22928151.111 9 -17839779.92948  20207957.291    20207965.4224
  23803356.553    -6994054.326 8  -5146052.15745  23803360.101    23803371.7384
 00  4 21  0 29 30.0000000  0  6 06 17 23 09 26 10
  22653311.447   -11111408.879 8  -8642181.63246  22653318.667    22653330.1544
  20417484.154   -23408984.710 9 -18226722.36448  20417485.842    20417495.0264
  22573316.513   -12295482.707 8  -9552619.85347  22573317.820    22573328.4984
  23422773.912    -5775555.053 8  -4476221.09346  23422780.589    23422793.4474
  20215525.943   -22888354.896 9 -17808769.89048  20215530.375    20215538.7234
  23818085.502    -6916656.336 8  -5085742.04345  23818087.140    23818100.7744
 00  4 21  0 30  0.0000000  0  6 06 17 23 09 26 10
  22669776.343   -11024916.836 8  -8574785.34746  22669778.463    22669790.1134
  20408897.999   -23454092.677 9 -18261871.37748  20408901.505    20408911.1954
  22562950.232   -12349951.023 8  -9595062.61147  22562952.883    22562963.3914
  23403336.050    -5877722.264 8  -4555831.70845  23403337.886    23403351.2004
  20223186.889   -22848091.821 9 -17777396.06048  20223191.981    20223200.3234
  23832818.318    -6839227.753 8  -5025408.17145  23832822.026    23832835.1284
 00  4 21  0 30 30.0000000  0  6 06 17 23 09 26 10
  22686280.713   -10938166.096 8  -8507187.50046  22686286.237    22686297.7874
  20400395.161   -23498779.012 9 -18296691.85848  20400398.104    20400407.0944
  22552600.342   -12404343.648 8  -9637446.40347  22552602.106    22552613.1744
  23383915.460    -5979763.304 8  -4635344.00946  23383920.756    23383932.5544
  20230939.279   -22807370.166 9 -17745664.89948  20230941.138    20230949.3394
  23847562.521    -6761766.176 8  -4965048.60745  23847562.113    23847576.2754
 00  4 21  0 31  0.0000000  0  6 06 17 23 09 26 10
  22702840.801   -10851144.372 8  -8439378.47246  22702846.033    22702857.6724
  20391970.921   -23543047.093 9 -18331186.42648  20391974.068    20391983.1314
  22542263.426   -12458655.694 8  -9679767.39047  22542266.798    22542277.8624
  23364525.045    -6081667.442 8  -4714749.65746  23364529.625    23364542.4474
  20238775.776   -22766179.679 9 -17713568.41548  20238779.517    20238787.6584
  23862299.930    -6684281.829 8  -4904671.30245  23862307.796    23862320.4424
 00  4 21  0 31 30.0000000  0  6 06 17 23 09 26 10
  22719453.131   -10763864.026 8  -8371367.91946  22719455.357    22719467.3034
  20383627.094   -23586893.992 9 -18365352.80448  20383630.263    20383639.5614
  22531944.625   -12512883.283 8  -9722022.55747  22531947.618    22531958.5304
  23345160.682    -6183456.857 8  -4794065.89746  23345159.543    23345172.2694
  20246705.911   -22724503.874 9 -17681093.75548  20246710.124    20246718.4314
  23877050.138    -6606783.785 8  -4844283.22345  23877055.193    23877067.9424
 00  4 21  0 32  0.0000000  0  6 06 17 23 09 26 10
  22736109.479   -10676338.493 8  -8303166.32646  22736110.915    22736122.2664
  20375361.352   -23630331.497 9 -18399200.18048  20375364.495    20375373.3694
  22521649.998   -12567007.568 8  -9764197.24947  22521648.874    22521659.7764
  23325811.193    -6285135.334 8  -4873295.68246  23325809.625    23325822.3284
  20254732.752   -22682325.131 9 -17648227.19848  20254736.169    20254744.9374
  23891800.853    -6529263.526 8  -4783877.87045  23891806.979    23891819.4724
 00  4 21  0 32 30.0000000  0  6 06 17 23 09 26 10
  22752813.275   -10588558.522 8  -8234766.44746  22752814.998    22752827.3764
  20367177.279   -23673341.106 9 -18432714.12848  20367180.243    20367188.9664
  22511370.201   -12620997.829 8  -9806267.51147  22511374.077    22511385.5954
  23306488.624    -6386684.800 8  -4952424.93846  23306485.746    23306498.4074
  20262859.357   -22639623.685 9 -17614953.33948  20262862.577    20262870.8914
  23906563.458    -6451685.930 8  -4723427.87645  23906567.581    23906583.7574
 00  4 21  0 33  0.0000000  0  6 06 17 23 09 26 10
  22769563.827   -10500522.320 8  -8166166.94246  22769567.290    22769580.3074
  20359078.828   -23715897.930 9 -18465875.26448  20359081.697    20359090.8394
  22501123.584   -12674834.498 8  -9848218.07147  22501128.766    22501140.3214
  23287181.483    -6488109.087 8  -5031456.65646  23287185.590    23287197.6394
  20271086.279   -22596387.142 9 -17581262.51048  20271089.870    20271098.1734
  23921342.258    -6374044.354 8  -4662928.04745  23921344.899    23921356.5084
 00  4 21  0 33 30.0000000  0  6 06 17 23 09 26 10
  22786362.961   -10412241.765 8  -8097377.03046  22786365.697    22786379.3424
  20351071.214   -23757975.900 9 -18498663.25748  20351074.736    20351083.5534
  22490908.764   -12728517.181 8  -9890048.66647  22490913.918    22490924.6534
  23267897.045    -6589409.993 8  -5110392.26246  23267908.042    23267921.3464
  20279414.967   -22552626.222 9 -17547163.07848  20279417.259    20279425.7454
  23936132.304    -6296329.384 8  -4602370.98945  23936133.460    23936144.9894
 00  4 21  0 34  0.0000000  0  6 06 17 23 09 26 10
  22803209.313   -10323719.852 8  -8028399.05346  22803211.998    22803224.4354
  20343160.284   -23799556.033 9 -18531063.34148  20343162.488    20343170.7374
  22480725.363   -12782038.605 8  -9931753.57347  22480728.320    22480739.3644
  23248656.711    -6690557.429 8  -5189208.26946  23248660.333    23248673.2994
  20287837.944   -22508357.172 9 -17512667.70448  20287841.252    20287849.3624
  23950929.712    -6218538.824 8  -4541754.95845  23950936.572    23950946.4314
 00  4 21  0 34 30.0000000  0  6 06 17 23 09 26 10
  22820100.701   -10234950.318 8  -7959228.08946  22820104.461    22820116.7834
  20335341.991   -23840633.359 9 -18563071.61448  20335345.170    20335354.2084
  22470571.126   -12835412.104 8  -9973343.21747  22470571.851    22470583.4034
  23229438.207    -6791541.465 8  -5267896.94146  23229444.180    23229456.8034
  20296356.319   -22463593.424 9 -17477786.84448  20296359.003    20296367.7234
  23965742.054    -6140688.916 8  -4481092.75245  23965748.845    23965762.8994
 00  4 21  0 35  0.0000000  0  6 06 17 23 09 26 10
  22837039.869   -10145941.829 8  -7889870.94146  22837042.470    22837054.5694
  20327616.400   -23881222.479 9 -18594699.47148  20327621.316    20327630.4244
  22460434.315   -12888663.322 8 -10014837.59947  22460438.826    22460449.6044
  23210260.124    -6892370.339 8  -5346464.72546  23210257.192    23210270.0864
  20304963.810   -22418357.624 9 -17442538.16148  20304967.114    20304975.9804
  23980567.707    -6062799.633 8  -4420399.92745  23980572.450    23980586.0904
 00  4 21  0 35 30.0000000  0  6 06 17 23 09 26 10
  22854023.646   -10056706.930 8  -7820337.37146  22854023.234    22854036.0704
  20319983.078   -23921345.248 9 -18625963.93448  20319985.975    20319995.2754
  22450322.129   -12941815.837 8 -10056255.07047  22450323.969    22450333.7274
  23191095.582    -6993035.510 8  -5424904.95446  23191100.675    23191113.4394
  20313660.153   -22372668.106 9 -17406935.93148  20313661.799    20313670.3844
  23995397.325    -5984880.267 8  -4359683.61945  23995400.184    23995412.4804
 00  4 21  0 36  0.0000000  0  6 06 17 23 09 26 10
  22871046.415    -9967248.697 8  -7750629.78846  22871047.542    22871059.0864
  20312433.807   -23961021.710 9 -18656880.62248  20312436.190    20312445.1354
  22440223.135   -12994884.739 8 -10097607.40147  22440225.513    22440234.9864
  23171973.220    -7093534.090 8  -5503215.37546  23171976.396    23171988.7914
  20322443.515   -22326513.506 9 -17370971.29748  20322445.123    20322452.9954
  24010231.310    -5906930.003 8  -4298943.19045  24010233.730    24010245.3684
 00  4 21  0 36 30.0000000  0  6 06 17 23 09 26 10
  22888108.202    -9877570.968 8  -7680751.14546  22888111.944    22888123.9324
  20304964.647   -24000264.597 9 -18687459.45148  20304968.504    20304977.1944
  22430136.867   -13047895.822 8 -10138914.66447  22430137.618    22430148.1464
  23152878.361    -7193878.805 8  -5581405.88746  23152881.517    23152894.0024
  20331313.724   -22279897.043 9 -17334646.77548  20331315.801    20331324.3754
  24025074.830    -5828937.138 7  -4238169.53745  24025073.799    24025086.1344
 00  4 21  0 37  0.0000000  0  6 06 17 23 09 26 10
  22905213.382    -9787685.891 8  -7610710.93646  22905216.687    22905227.4634
  20297578.650   -24039082.765 9 -18717707.32948  20297581.251    20297590.0754
  22420055.462   -13100854.112 8 -10180180.77647  22420059.945    22420070.7474
  23133810.343    -7294059.354 8  -5659468.46946  23133817.090    23133830.2714
  20340270.547   -22232824.962 9 -17297967.22648  20340273.217    20340281.6074
  24039923.127    -5750888.462 8  -4177352.48545  24039926.294    24039940.9414
 00  4 21  0 37 30.0000000  0  6 06 17 23 09 26 10
  22922359.955    -9697601.742 8  -7540515.58646  22922359.388    22922370.1584
  20290273.857   -24077462.413 9 -18747613.51148  20290277.975    20290286.6844
  22409989.986   -13153751.287 9 -10221399.29747  22409994.686    22410004.1764
  23114777.238    -7394074.545 8  -5737402.19146  23114784.320    23114796.6444
  20349316.713   -22185287.776 9 -17260925.25848  20349319.427    20349327.7434
  24054789.312    -5672782.266 8  -4116490.61245  24054790.528    24054804.7514
 00  4 21  0 38  0.0000000  0  6 06 17 23 09 26 10
  22939538.947    -9607310.983 8  -7470159.25446  22939541.313    22939553.8484
  20283057.074   -24115389.457 9 -18777167.01148  20283060.631    20283069.7694
  22399940.568   -13206562.851 8 -10262551.09447  22399944.344    22399953.9774
  23095785.271    -7493917.780 8  -5815201.93246  23095785.445    23095797.2544
  20358450.005   -22137285.166 9 -17223520.63348  20358453.954    20358461.8104
  24069653.862    -5594622.498 7  -4055586.95245  24069663.164    24069676.0864
 00  4 21  0 38 30.0000000  0  6 06 17 23 09 26 10
  22956760.337    -9516811.591 8  -7399640.34646  22956762.828    22956775.3494
  20275928.882   -24152860.164 9 -18806364.92948  20275930.486    20275939.1084
  22389909.752   -13259267.021 8 -10303619.22747  22389914.122    22389924.7054
  23076818.733    -7593582.796 8  -5892862.82746  23076820.081    23076832.3994
  20367673.740   -22088823.531 9 -17185758.31848  20367675.862    20367684.6314
  24084541.486    -5516420.577 7  -3994650.46745  24084544.003    24084558.7344
 00  4 21  0 39  0.0000000  0  6 06 17 23 09 26 10
  22974022.717    -9426090.463 8  -7328948.65846  22974026.669    22974037.7884
  20268883.982   -24189862.777 9 -18835198.09048  20268889.004    20268897.9624
  22379909.787   -13311835.736 8 -10344581.79547  22379911.416    22379921.0314
  23057888.586    -7693059.817 8  -5970377.21446  23057889.185    23057901.7654
  20376986.446   -22039882.240 9 -17147622.24348  20376989.022    20376997.5084
  24099430.904    -5438198.109 8  -3933697.98245  24099429.709    24099443.1114
 00  4 21  0 39 30.0000000  0  6 06 17 23 09 26 10
  22991333.518    -9335138.624 8  -7258077.23946  22991333.374    22991346.8744
  20261935.531   -24226384.763 9 -18863656.74048  20261939.156    20261947.8444
  22369932.779   -13364251.576 8 -10385425.24647  22369936.199    22369946.3544
  23038987.259    -7792349.632 8  -6047745.73346  23038995.015    23039007.1404
  20386393.249   -21990449.733 9 -17109103.40348  20386395.775    20386404.1004
  24114317.425    -5359958.762 8  -3872732.31445  24114318.891    24114332.1984
 00  4 21  0 40  0.0000000  0  6 06 17 23 09 26 10
  23008681.834    -9243950.633 8  -7187021.76646  23008687.140    23008697.8704
  20255074.250   -24262442.017 9 -18891753.26648  20255077.553    20255086.4964
  22359986.470   -13416519.756 8 -10426153.63047  22359989.703    22360000.1124
  23020128.098    -7891446.191 8  -6124963.64046  23020136.347    23020150.0214
  20395892.481   -21940526.422 9 -17070202.11048  20395895.752    20395904.4774
  24129211.073    -5281708.238 8  -3811757.93945  24129210.311    24129223.1274
 00  4 21  0 40 30.0000000  0  6 06 17 23 09 26 10
  23026082.921    -9152533.577 8  -7115787.78746  23026082.939    23026096.1604
  20248303.567   -24298026.011 9 -18919481.00848  20248305.944    20248314.8614
  22350059.648   -13468663.093 8 -10466784.75247  22350067.248    22350077.8614
  23001316.229    -7990349.889 8  -6202031.27646  23001317.015    23001328.9944
  20405484.968   -21890115.343 9 -17030920.74548  20405488.743    20405497.4004
  24144107.201    -5203448.112 7  -3750776.15245  24144100.615    24144115.6114
 00  4 21  0 41  0.0000000  0  6 06 17 23 09 26 10
  23043514.605    -9060896.438 8  -7044382.34746  23043521.562    23043532.6464
  20241624.051   -24333120.573 9 -18946827.38848  20241627.493    20241636.6344
  22340162.459   -13520692.541 8 -10507327.11947  22340166.929    22340177.1844
  22982535.172    -8089061.129 8  -6278948.97746  22982532.589    22982544.3494
  20415167.568   -21839235.720 9 -16991274.29148  20415171.073    20415179.2404
  24158994.987    -5125162.907 8  -3689774.77745  24158998.664    24159011.7004
 00  4 21  0 41 30.0000000  0  6 06 17 23 09 26 10
  23060993.110    -8969062.784 8  -6972823.77146  23060997.042    23061009.2934
  20235038.172   -24367726.668 9 -18973793.14548  20235042.303    20235051.1144
  22330281.648   -13572630.993 8 -10547798.58347  22330283.690    22330293.4744
  22963775.180    -8187589.223 8  -6355723.94346  22963781.733    22963794.6344
  20424932.989   -21787915.148 9 -16951284.24048  20424937.282    20424945.4544
  24173901.710    -5046834.213 8  -3628739.51045  24173904.819    24173916.9144
 00  4 21  0 42  0.0000000  0  6 06 17 23 09 26 10
  23078506.371    -8877041.154 8  -6901118.72746  23078507.503    23078519.8964
  20228548.011   -24401841.981 9 -19000376.47048  20228550.657    20228559.3834
  22320407.979   -13624492.565 8 -10588210.13847  22320414.329    22320424.4254
  22945062.637    -8285932.237 8  -6432354.70246  22945067.713    22945080.6204
  20434780.202   -21736172.282 9 -16910965.11748  20434783.199    20434791.5764
  24188819.306    -4968455.476 8  -3567665.23145  24188820.181    24188833.1744
 00  4 21  0 42 30.0000000  0  6 06 17 23 09 26 10
  23096052.974    -8784839.066 8  -6829273.08446  23096053.958    23096064.1554
  20222152.064   -24435445.910 9 -19026561.31348  20222155.477    20222164.6654
  22310556.756   -13676266.442 8 -10628553.35547  22310561.984    22310572.3224
  22926385.501    -8384081.143 8  -6508834.18146  22926389.560    22926403.8534
  20444706.600   -21684016.781 9 -16870324.47048  20444708.024    20444716.3934
  24203736.271    -4890011.082 7  -3506539.79045  24203746.966    24203760.5244
 00  4 21  0 43  0.0000000  0  6 06 17 23 09 26 10
  23113620.943    -8692464.728 8  -6757293.19446  23113631.074    23113642.5204
  20215853.912   -24468543.370 9 -19052351.51648  20215857.843    20215866.3834
  22300728.663   -13727938.678 8 -10668817.38247  22300729.755    22300738.8504
  22907746.919    -8482040.368 8  -6585165.84546  22907750.014    22907762.0394
  20454709.739   -21631442.360 9 -16829357.38048  20454712.356    20454721.0274
  24218688.387    -4811482.812 8  -3445349.06145  24218690.478    24218703.5074
 00  4 21  0 43 30.0000000  0  6 06 17 23 09 26 10
  23131241.183    -8599923.722 8  -6685183.44946  23131241.165    23131253.7294
  20209650.642   -24501140.494 9 -19077751.83848  20209654.346    20209663.3244
  22290908.773   -13779515.318 8 -10709006.92047  22290913.711    22290924.2564
  22889145.782    -8579806.069 8  -6661346.74046  22889145.977    22889157.9034
  20464797.574   -21578429.693 9 -16788048.81048  20464800.158    20464809.0324
  24233645.176    -4732888.629 8  -3384106.92145  24233646.983    24233659.4084
 00  4 21  0 44  0.0000000  0  6 06 17 23 09 26 10
  23148882.132    -8507214.057 8  -6612942.28346  23148883.395    23148896.2044
  20203542.859   -24533236.816 9 -19102761.93148  20203546.834    20203555.5884
  22281119.810   -13830976.159 8 -10749106.20847  22281121.664    22281131.6494
  22870576.008    -8677361.356 8  -6737363.68046  22870580.795    22870592.9484
  20474972.300   -21524965.845 9 -16746388.66448  20474974.444    20474983.0414
  24248613.879    -4654238.845 8  -3322821.42445  24248614.239    24248624.3044
 00  4 21  0 44 30.0000000  0  6 06 17 23 09 26 10
  23166551.271    -8414341.637 8  -6540574.30446  23166556.518    23166569.4114
  20197532.574   -24564827.629 9 -19127378.11948  20197535.333    20197544.4304
  22271350.887   -13882314.088 9 -10789109.73447  22271352.956    22271362.5504
  22852047.939    -8774702.741 8  -6813213.94046  22852057.405    22852069.4404
  20485234.648   -21471042.442 9 -16704370.42248  20485236.011    20485244.0774
  24263585.091    -4575545.660 7  -3261502.14945  24263587.514    24263601.5674
 00  4 21  0 45  0.0000000  0  6 06 17 23 09 26 10
  23184256.989    -8321306.806 8  -6468079.76446  23184261.087    23184273.5924
  20191613.428   -24595926.828 9 -19151611.22548  20191617.123    20191626.5394
  22261603.469   -13933535.554 9 -10829022.50247  22261605.964    22261615.5674
  22833574.156    -8871835.249 8  -6888901.43046  22833573.948    22833585.6224
  20495582.684   -21416653.549 9 -16661989.47248  20495585.682    20495594.3024
  24278569.383    -4496817.650 7  -3200155.73745  24278569.874    24278583.6394
 00  4 21  0 45 30.0000000  0  6 06 17 23 09 26 10
  23201989.400    -8228106.412 8  -6395456.22346  23201996.474    23202008.0334
  20185787.377   -24626541.125 9 -19175466.49548  20185791.134    20185800.3124
  22251876.880   -13984636.932 8 -10868841.68547  22251880.965    22251890.8184
  22815136.806    -8968738.737 8  -6964410.47346  22815133.822    22815145.5644
  20506019.865   -21361808.935 9 -16619253.40748  20506022.323    20506030.6954
  24293555.253    -4418066.532 8  -3138791.36245  24293556.588    24293569.6274
 00  4 21  0 46  0.0000000  0  6 06 17 23 09 26 10
  23219763.357    -8134728.651 8  -6322694.45446  23219765.807    23219776.8754
  20180054.826   -24656668.852 9 -19198942.61748  20180058.433    20180067.2414
  22242178.451   -14035606.250 9 -10908557.95847  22242181.693    22242191.8544
  22796734.047    -9065411.397 8  -7039739.66246  22796738.375    22796749.4034
  20516539.807   -21306526.369 9 -16576176.08048  20516541.809    20516550.3664
  24308553.896    -4339273.560 8  -3077394.30245  24308549.485    24308563.4694
 00  4 21  0 46 30.0000000  0  6 06 17 23 09 26 10
  23237564.833    -8041166.657 8  -6249789.11846  23237569.532    23237581.3634
  20174415.592   -24686308.624 9 -19222038.51048  20174417.888    20174427.2454
  22232501.295   -14086455.224 8 -10948180.45547  22232505.141    22232515.8174
  22778371.975    -9161861.159 8  -7114895.15646  22778383.496    22778395.5804
  20527141.782   -21250811.356 9 -16532761.78148  20527144.364    20527152.8104
  24323548.696    -4260436.725 7  -3015963.08345  24323552.187    24323564.3664
 00  4 21  0 47  0.0000000  0  6 06 17 23 09 26 10
  23255405.173    -7947418.531 8  -6176738.77346  23255410.160    23255422.2434
  20168865.701   -24715467.885 9 -19244759.97948  20168869.072    20168877.8764
  22222848.229   -14137186.427 9 -10987711.19647  22222852.244    22222861.6294
  22760069.167    -9258080.687 8  -7189871.26046  22760073.965    22760084.9034
  20537822.346   -21194672.278 9 -16489017.04548  20537826.499    20537835.6304
  24338562.736    -4181548.027 7  -2954491.48445  24338563.687    24338576.0204
 00  4 21  0 47 30.0000000  0  6 06 17 23 09 26 10
  23273282.778    -7853489.507 8  -6103547.47146  23273283.961    23273297.0354
  20163409.779   -24744135.116 9 -19267098.04748  20163413.843    20163422.9524
  22213216.596   -14187804.849 8 -11027154.06347  22213218.948    22213229.3074
  22741813.801    -9354059.342 8  -7264659.65046  22741809.729    22741820.9294
  20548584.109   -21138118.345 9 -16444949.03948  20548588.712    20548597.2454
  24353581.392    -4102607.939 7  -2892979.80545  24353584.850    24353598.7384
 00  4 21  0 48  0.0000000  0  6 06 17 23 09 26 10
  23291192.153    -7759379.796 8  -6030215.34846  23291192.437    23291205.2264
  20158051.772   -24772299.659 9 -19289044.40748  20158053.979    20158063.2464
  22203603.992   -14238318.573 9 -11066515.33047  22203606.325    22203616.8764
  22723585.664    -9449802.319 8  -7339264.40746  22723589.752    22723602.0574
  20559429.203   -21081139.786 9 -16400550.16148  20559431.824    20559439.8914
  24368612.868    -4023617.967 7  -2831429.25845  24368617.543    24368631.4604
 00  4 21  0 48 30.0000000  0  6 06 17 23 09 26 10
  23309127.818    -7665110.183 8  -5956758.62546  23309130.487    23309145.2534
  20152787.389   -24799960.054 9 -19310597.93348  20152790.447    20152799.6434
  22194010.568   -14288739.087 9 -11105803.96847  22194012.535    22194022.6394
  22705414.451    -9545294.529 8  -7413673.75846  22705418.745    22705429.8614
  20570352.613   -21023728.815 9 -16355814.33948  20570356.135    20570364.8164
  24383651.020    -3944589.959 7  -2769849.10145  24383655.802    24383668.5354
 00  4 21  0 49  0.0000000  0  6 06 17 23 09 26 10
  23327097.867    -7570696.087 8  -5883189.37446  23327097.555    23327111.0504
  20147619.182   -24827118.740 9 -19331760.50848  20147622.710    20147631.4304
  22184430.682   -14339066.102 9 -11145019.75147  22184435.364    22184445.8434
  22687294.042    -9640520.307 8  -7487875.51846  22687297.388    22687309.0434
  20581357.372   -20965895.412 9 -16310749.33848  20581361.681    20581369.8984
  24398694.412    -3865517.771 7  -2708234.50645  24398700.222    24398717.8674
 00  4 21  0 49 30.0000000  0  6 06 17 23 09 26 10
  23345090.494    -7476138.917 8  -5809508.57646  23345091.441    23345104.3464
  20142546.452   -24853771.828 9 -19352529.11748  20142550.475    20142559.3414
  22174872.038   -14389303.133 9 -11184165.39847  22174874.548    22174885.5014
  22669225.079    -9735480.060 8  -7561869.96346  22669226.956    22669239.5344
  20592445.208   -20907638.443 9 -16265354.28848  20592447.945    20592456.1074
  24413748.009    -3786402.734 7  -2646586.54445  24413756.983    24413771.6474
 00  4 21  0 50  0.0000000  0  6 06 17 23 09 26 10
  23363107.939    -7381436.129 8  -5735714.34746  23363113.083    23363125.1214
  20137573.387   -24879916.771 9 -19372901.76448  20137575.495    20137584.2084
  22165327.418   -14439445.432 8 -11223237.23947  22165332.776    22165342.9224
  22651205.790    -9830173.644 8  -7635656.99046  22651207.377    22651219.0614
  20603609.788   -20848967.986 9 -16219637.05048  20603613.046    20603620.3474
  24428813.899    -3707242.405 7  -2584903.27045  24428822.553    24428835.1114
 00  4 21  0 50 30.0000000  0  6 06 17 23 09 26 10
  23381156.977    -7286594.819 8  -5661812.19046  23381160.466    23381173.5934
  20132692.496   -24905558.041 9 -19392881.93848  20132695.995    20132704.4984
  22155806.166   -14489494.462 9 -11262236.40247  22155809.153    22155819.6964
  22633236.391    -9924599.674 8  -7709235.54746  22633237.955    22633250.1914
  20614848.424   -20789909.209 9 -16173617.21348  20614851.334    20614859.1314
  24443893.661    -3628036.913 7  -2523184.79745  24443894.129    24443907.3834
 00  4 21  0 51  0.0000000  0  6 06 17 23 09 26 10
  23399235.318    -7191612.090 8  -5587799.80346  23399235.855    23399248.8174
  20127913.157   -24930684.497 9 -19412460.95548  20127914.802    20127923.0754
  22146301.762   -14539442.936 9 -11301157.20947  22146304.366    22146315.0174
  22615320.732   -10018768.362 8  -7782613.59646  22615318.493    22615330.2364
  20626158.551   -20730470.021 9 -16127300.94348  20626161.409    20626170.1864
  24458975.000    -3548790.944 7  -2461434.78145  24458974.730    24458987.2754
 00  4 21  0 51 30.0000000  0  6 06 17 23 09 26 10
  23417334.396    -7096487.351 8  -5513676.79946  23417337.772    23417350.0804
  20123229.063   -24955281.551 9 -19431627.45348  20123233.815    20123242.3874
  22136817.536   -14589290.772 9 -11339999.60947  22136818.163    22136828.6784
  22597441.716   -10112687.272 8  -7855797.03346  22597447.078    22597457.0544
  20637544.105   -20670644.365 9 -16080683.54248  20637546.138    20637554.3374
  24474059.135    -3469513.531 7  -2399660.28345  24474060.390    24474074.0134
 00  4 21  0 52  0.0000000  0  6 06 17 23 09 26 10
  23435465.030    -7001227.757 8  -5439448.69845  23435465.109    23435475.2804
  20118653.907   -24979338.891 9 -19450373.39948  20118656.042    20118664.5134
  22127350.728   -14639033.359 8 -11378759.99547  22127351.686    22127362.9934
  22579611.584   -10206361.367 8  -7928789.69246  22579619.674    22579631.5374
  20649002.435   -20610434.453 9 -16033766.71848  20649003.723    20649012.2654
  24489155.231    -3390204.318 7  -2337861.02445  24489152.254    24489165.8864
 00  4 21  0 52 30.0000000  0  6 06 17 23 09 26 10
  23453608.739    -6905848.610 8  -5365127.38945  23453615.234    23453626.4194
  20114178.287   -25002855.199 9 -19468697.75648  20114181.144    20114189.5154
  22117903.715   -14688668.836 9 -11417436.91247  22117907.439    22117917.2184
  22561842.631   -10299793.386 8  -8001593.69846  22561839.903    22561852.3374
  20660532.393   -20549831.986 9 -15986544.02048  20660536.239    20660544.5504
  24504247.727    -3310867.706 7  -2276040.37145  24504250.950    24504262.3764
 00  4 21  0 53  0.0000000  0  6 06 17 23 09 26 10
  23471787.078    -6810356.531 8  -5290718.11145  23471787.186    23471799.0674
  20109808.190   -25025820.718 9 -19486592.93148  20109810.721    20109819.1494
  22108478.488   -14738195.614 9 -11456029.14447  22108483.135    22108492.4954
  22544101.243   -10392973.307 8  -8074201.25846  22544109.220    22544121.1764
  20672142.106   -20488824.009 9 -15939005.32548  20672145.288    20672154.0624
  24519351.437    -3231495.569 7  -2214192.06345  24519353.570    24519367.9834
 00  4 21  0 53 30.0000000  0  6 06 17 23 09 26 10
  23489975.655    -6714756.745 8  -5216224.92945  23489978.365    23489990.9264
  20105540.543   -25048244.628 9 -19504066.06948  20105543.538    20105552.1614
  22099077.921   -14787611.135 9 -11494534.67647  22099079.501    22099089.2924
  22526424.147   -10485893.906 8  -8146606.75346  22526427.866    22526438.2504
  20683826.420   -20427411.951 9 -15891151.75748  20683831.669    20683840.6944
  24534464.235    -3152079.933 7  -2152309.81745  24534467.629    24534480.0884
 00  4 21  0 54  0.0000000  0  6 06 17 23 09 26 10
  23508182.897    -6619053.072 8  -5141650.77645  23508190.894    23508203.5184
  20101375.644   -25070132.486 9 -19521121.51648  20101378.516    20101387.1004
  22089696.158   -14836903.603 9 -11532944.30947  22089698.420    22089709.3764
  22508795.286   -10578548.259 8  -8218804.81246  22508796.152    22508806.3494
  20695593.177   -20365600.998 9 -15842987.37048  20695594.130    20695602.8334
  24549585.546    -3072612.347 7  -2090387.15245  24549588.923    24549600.7764
 00  4 21  0 54 30.0000000  0  6 06 17 23 09 26 10
  23526415.877    -6523250.520 8  -5066999.58645  23526421.226    23526434.7694
  20097311.278   -25091489.624 9 -19537763.39648  20097314.479    20097322.6764
  22080339.430   -14886070.925 9 -11571256.42647  22080342.134    22080353.4164
  22491215.634   -10670910.420 8  -8290775.16046  22491218.968    22491230.1684
  20707430.470   -20303390.826 9 -15794511.91548  20707432.849    20707440.5344
  24564711.596    -2993096.800 7  -2028427.05045  24564718.452    24564734.7334
 00  4 21  0 55  0.0000000  0  6 06 17 23 09 26 10
  23544668.795    -6427341.825 8  -4992265.68346  23544672.476    23544684.7614
  20093345.521   -25112319.832 9 -19553994.69048  20093350.296    20093358.8974
  22071008.619   -14935108.873 9 -11609467.73247  22071011.073    22071021.3964
  22473694.028   -10762970.213 8  -8362509.89846  22473700.428    22473711.1854
  20719342.414   -20240781.040 9 -15745725.06248  20719346.847    20719354.7214
  24579861.286    -2913529.167 7  -1966426.36745  24579859.788    24579872.6694
 00  4 21  0 55 30.0000000  0  6 06 17 23 09 26 10
  23562943.346    -6331319.780 8  -4917443.42746  23562945.056    23562957.9084
  20089481.205   -25132632.209 9 -19569822.48148  20089485.119    20089493.8544
  22061702.895   -14984007.192 9 -11647570.26247  22061706.189    22061716.1204
  22456239.901   -10854729.065 8  -8434010.14446  22456240.262    22456250.4064
  20731331.849   -20177775.602 9 -15696629.90848  20731335.858    20731344.7014
  24594995.058    -2833919.612 7  -1904393.02844  24595009.709    24595023.5744
 00  4 21  0 56  0.0000000  0  6 06 17 23 09 26 10
  23581234.934    -6235177.564 8  -4842527.52945  23581240.158    23581252.9314
  20085715.660   -25152425.109 9 -19585245.47948  20085718.521    20085727.1014
  22052426.115   -15032762.752 9 -11685561.53747  22052428.220    22052438.7604
  22438836.551   -10946173.436 8  -8505265.34946  22438838.241    22438848.4544
  20743395.857   -20114378.008 9 -15647229.17847  20743399.794    20743408.4934
  24610164.731    -2754275.451 7  -1842332.75844  24610164.584    24610179.1964
 00  4 21  0 56 30.0000000  0  6 06 17 23 09 26 10
  23599559.121    -6138918.617 8  -4767520.66745  23599558.210    23599570.6044
  20082047.190   -25171702.203 9 -19600266.55648  20082050.111    20082058.9464
  22043171.203   -15081393.668 8 -11723455.68147  22043173.075    22043184.3764
  22421491.728   -11037297.739 8  -8576271.15546  22421498.520    22421508.9254
  20755533.550   -20050591.170 9 -15597525.14047  20755538.109    20755546.9364
  24625320.871    -2674605.893 7  -1780252.69745  24625327.687    24625339.9194
 00  4 21  0 57  0.0000000  0  6 06 17 23 09 26 10
  23617894.768    -6042548.454 8  -4692427.18745  23617896.684    23617910.2094
  20078477.075   -25190467.655 9 -19614888.94648  20078479.139    20078488.0164
  22033937.116   -15129902.589 9 -11761254.74947  22033941.988    22033952.8864
  22404214.577   -11128117.478 8  -8647039.65046  22404215.174    22404226.0114
  20767745.046   -19986434.512 9 -15547532.94347  20767747.229    20767755.2184
  24640493.413    -2594908.834 7  -1718151.16845  24640494.186    24640506.4334
 00  4 21  0 57 30.0000000  0  6 06 17 23 09 26 10
  23636255.227    -5946068.520 8  -4617248.13445  23636256.240    23636269.5174
  20075004.616   -25208707.332 9 -19629101.64848  20075008.072    20075016.9504
  22024731.592   -15178300.913 9 -11798967.64847  22024733.392    22024742.4124
  22386986.536   -11218624.410 8  -8717564.34746  22386991.835    22387002.8984
  20780022.460   -19921919.771 9 -15497261.72647  20780023.754    20780031.7064
  24655657.402    -2515183.982 7  -1656028.01445  24655663.396    24655678.4234
 00  4 21  0 58  0.0000000  0  6 06 17 23 09 26 10
  23654636.112    -5849490.387 8  -4541992.58346  23654635.332    23654647.3664
  20071636.678   -25226406.337 9 -19642893.04348  20071640.255    20071648.9454
  22015536.838   -15226607.202 9 -11836608.85547  22015540.460    22015550.0784
  22369827.323   -11308818.523 8  -8787845.34446  22369827.870    22369839.3844
  20792362.945   -19857050.912 9 -15446714.56647  20792368.087    20792376.2934
  24670836.221    -2435420.722 7  -1593874.86444  24670840.891    24670853.9974
 00  4 21  0 58 30.0000000  0  6 06 17 23 09 26 10
  23673022.782    -5752827.742 8  -4466671.17446  23673029.001    23673042.7594
  20068372.699   -25243561.070 9 -19656260.32448  20068375.835    20068384.4234
  22006358.868   -15274832.441 8 -11874186.89747  22006362.941    22006372.9704
  22352717.471   -11398713.978 8  -8857893.60346  22352721.780    22352732.9044
  20804777.514   -19791835.035 9 -15395897.00347  20804778.248    20804786.1174
  24686023.647    -2355609.900 7  -1531684.75044  24686029.736    24686042.7334
 00  4 21  0 59  0.0000000  0  6 06 17 23 09 26 10
  23691442.559    -5656076.694 8  -4391280.86145  23691439.586    23691452.9204
  20065214.917   -25260152.415 9 -19669188.60748  20065218.475    20065227.2094
  21997199.883   -15322970.985 9 -11911697.38547  21997202.681    21997212.0864
  22335671.018   -11488316.747 8  -8927713.78246  22335671.118    22335681.6784
  20817252.803   -19726269.396 9 -15344806.89747  20817254.883    20817263.0934
  24701229.658    -2275746.852 7  -1469453.86345  24701227.298    24701241.5164
 00  4 21  0 59 30.0000000  0  6 06 17 23 09 26 10
  23709856.431    -5559235.107 8  -4315820.01345  23709868.684    23709882.7544
  20062168.028   -25276165.231 9 -19681666.08448  20062171.382    20062179.6464
  21988055.672   -15371024.923 9 -11949141.93447  21988058.420    21988068.1534
  22318672.004   -11577624.848 8  -8997304.33846  22318675.850    22318687.4364
  20829797.088   -19660330.571 9 -15293425.99847  20829802.291    20829811.0354
  24716436.552    -2195832.351 7  -1407182.89445  24716436.696    24716448.7484
 00  4 21  1  0  0.0000000  0  6 06 17 23 09 26 10
  23728316.238    -5462318.393 8  -4240300.65145  23728309.757    23728324.1794
  20059229.755   -25291610.711 9 -19693701.47748  20059232.223    20059240.5634
  21978930.300   -15418979.365 9 -11986508.95947  21978933.144    21978942.7614
  22301731.161   -11666650.373 8  -9066674.73846  22301735.068    22301745.7574
  20842418.702   -19594013.316 9 -15241750.21647  20842421.890    20842430.4604
  24731659.408    -2115867.038 7  -1344872.41744  24731651.926    24731665.5544
 00  4 21  1  0 30.0000000  0  6 06 17 23 09 26 10
  23746769.969    -5365331.366 8  -4164726.48345  23746767.956    23746780.9084
  20056397.893   -25306489.366 9 -19705295.19448  20056400.981    20056409.4684
  21969827.894   -15466824.706 9 -12023790.97047  21969828.608    21969837.3994
  22284846.472   -11755385.498 8  -9135818.82146  22284849.396    22284859.9364
  20855112.631   -19527313.217 9 -15189776.10747  20855114.876    20855122.7354
  24746870.262    -2035867.792 7  -1282535.41744  24746876.893    24746890.7124
 00  4 21  1  1  0.0000000  0  6 06 17 23 09 26 10
  23765232.525    -5268273.715 8  -4089097.25445  23765237.558    23765250.8184
  20053675.648   -25320794.584 9 -19716442.07448  20053678.509    20053687.0824
  21960744.667   -15514553.531 9 -12060982.20247  21960745.892    21960754.9974
  22268014.587   -11843816.830 8  -9204726.21546  22268021.229    22268031.5944
  20867880.414   -19460219.968 9 -15137495.65947  20867882.920    20867890.4734
  24762105.770    -1955837.822 7  -1220174.52144  24762104.752    24762118.0384
 00  4 21  1  1 30.0000000  0  6 06 17 23 09 26 10
  23783713.288    -5171151.866 8  -4013418.02345  23783719.108    23783732.9044
  20051059.865   -25334542.207 9 -19727154.48148  20051062.285    20051071.0244
  21951686.339   -15562151.813 9 -12098071.68747  21951688.422    21951697.6594
  22251253.232   -11931924.371 8  -9273381.30846  22251254.416    22251264.3844
  20880720.046   -19392748.777 9 -15084920.71647  20880721.830    20880729.3854
  24777336.234    -1875775.961 7  -1157788.75544  24777338.676    24777354.2044
 00  4 21  1  2  0.0000000  0  6 06 17 23 09 26 10
  23802208.956    -5073965.609 8  -3937688.57945  23802211.986    23802225.4484
  20048547.451   -25347739.672 9 -19737438.19648  20048551.127    20048559.7474
  21942656.233   -15609614.848 9 -12135055.79847  21942656.237    21942664.9924
  22234546.514   -12019696.578 8  -9341775.11046  22234551.816    22234562.4604
  20893622.832   -19324920.726 9 -15032067.69547  20893628.948    20893637.3754
  24792586.451    -1795684.352 7  -1095379.81944  24792581.590    24792596.3204
 00  4 21  1  2 30.0000000  0  5 06 17 23 09 26
  23820720.181    -4976705.685 8  -3861901.75245  23820721.172    23820734.3074
  20046143.792   -25360377.955 9 -19747286.18048  20046145.706    20046154.6804
  21933646.859   -15656951.098 9 -12171941.12847  21933647.743    21933657.2824
  22217914.900   -12107121.558 8  -9409898.34146  22217916.092    22217925.4684
  20906595.711   -19256752.560 9 -14978949.65947  20906600.962    20906609.1914
 00  4 21  1  3  0.0000000  0  5 06 17 23 09 26
  23839241.116    -4879359.584 8  -3786047.77145  23839244.874    23839258.3034
  20043843.033   -25372462.649 9 -19756702.79748  20043846.105    20043854.7834
  21924661.123   -15704159.610 9 -12208726.89347  21924664.278    21924674.2294
  22201339.873   -12194195.058 8  -9477747.70046  22201345.734    22201355.9004
  20919630.678   -19188255.231 9 -14925575.12447  20919635.295    20919643.7124
 00  4 21  1  3 30.0000000  0  5 06 17 23 09 26
  23857784.244    -4781930.879 8  -3710129.43645  23857784.650    23857799.5624
  20041648.521   -25383999.161 9 -19765692.26548  20041651.029    20041659.5264
  21915699.401   -15751248.618 9 -12245419.57047  21915703.458    21915713.5104
  22184842.001   -12280912.571 8  -9545319.66746  22184843.704    22184853.4234
  20932728.138   -19119436.367 9 -14871950.04247  20932730.961    20932739.5954
 00  4 21  1  4  0.0000000  0  5 06 17 23 09 26
  23876337.961    -4684426.276 8  -3634152.00145  23876338.437    23876353.6814
  20039557.936   -25394980.295 9 -19774248.97448  20039561.132    20039569.9444
  21906758.346   -15798239.169 9 -12282035.52047  21906761.975    21906771.2334
  22168402.062   -12367284.124 8  -9612622.04346  22168408.044    22168418.1364
  20945887.419   -19050291.836 9 -14818071.19747  20945889.451    20945897.5264
 00  4 21  1  4 30.0000000  0  5 06 17 23 09 26
  23894894.343    -4586852.162 8  -3558120.36345  23894907.441    23894921.5714
  20037575.280   -25405403.038 9 -19782370.57848  20037577.641    20037586.3584
  21897834.099   -15845145.594 9 -12318585.93547  21897836.037    21897845.0554
  22152033.737   -12453299.409 8  -9679646.81046  22152039.475    22152049.5034
  20959108.695   -18980813.775 9 -14763932.46547  20959110.507    20959118.8114
 00  4 21  1  5  0.0000000  0  5 06 17 23 09 26
  23913482.855    -4489225.099 8  -3482047.43545  23913486.148    23913499.3034
  20035696.369   -25415274.479 9 -19790062.59848  20035699.222    20035707.9194
  21888921.069   -15891976.061 9 -12355077.16247  21888924.514    21888933.9574
  22135737.794   -12538950.757 8  -9746387.98047  22135740.608    22135751.2744
  20972394.451   -18910989.999 9 -14709524.34547  20972397.682    20972406.2084
 00  4 21  1  5 30.0000000  0  5 06 17 23 09 26
  23932068.806    -4391568.217 8  -3405951.29545  23932069.122    23932082.2834
  20033923.486   -25424590.214 9 -19797321.59348  20033926.613    20033935.1854
  21880025.934   -15938728.007 9 -12391507.19147  21880027.745    21880037.0244
  22119508.511   -12624238.250 8  -9812845.63847  22119511.048    22119521.5744
  20985741.278   -18840831.556 9 -14654855.43947  20985748.002    20985756.6984
 00  4 21  1  6  0.0000000  0  6 03 06 17 23 09 26
  24640669.369    -1505050.32918  -1158858.73255  24640671.236    24640682.9324
  23950646.076    -4293891.628 8  -3329839.80045  23950655.661    23950670.9064
  20032256.209   -25433352.743 9 -19804149.51748  20032259.369    20032267.6474
  21871144.845   -15985394.872 9 -12427870.93547  21871146.723    21871156.1874
  22103347.643   -12709167.197 8  -9879023.89847  22103349.104    22103359.9404
  20999156.866   -18770344.145 9 -14599930.18347  20999161.185    20999169.5344
 00  4 21  1  6 30.0000000  0  6 03 06 17 23 09 26
  24632949.279    -1545611.934 7  -1190465.09345  24632951.871    24632963.9984
  23969238.081    -4196203.778 7  -3253719.54145  23969244.481    23969260.5154
  20030693.151   -25441563.802 9 -19810547.71448  20030696.624    20030705.0844
  21862281.911   -16031956.393 9 -12464152.58147  21862286.237    21862295.8324
  22087251.039   -12793741.958 8  -9944926.17347  22087255.227    22087265.4964
  21012635.131   -18699531.703 9 -14544751.66847  21012636.601    21012644.7904
 00  4 21  1  7  0.0000000  0  6 03 06 17 23 09 26
  24625321.694    -1585675.610 7  -1221683.47045  24625326.877    24625339.5264
  23987835.446    -4098510.550 8  -3177595.12045  23987837.242    23987850.5414
  20029236.405   -25449221.100 9 -19816514.40848  20029239.633    20029248.1034
  21853450.635   -16078383.728 9 -12500329.67547  21853451.855    21853460.5294
  22071225.432   -12877978.837 8 -10010565.17247  22071225.820    22071235.5884
  21026168.936   -18628402.992 9 -14489326.72147  21026171.834    21026180.4714
 00  4 21  1  7 30.0000000  0  6 03 06 17 23 09 26
  24617792.598    -1625225.673 7  -1252501.60245  24617799.068    24617812.5984
  24006424.663    -4000802.930 8  -3101459.45445  24006429.724    24006443.4624
  20027886.790   -25456317.227 9 -19822043.81948  20027889.175    20027897.6754
  21844639.759   -16124665.308 9 -12536393.20347  21844644.771    21844653.8554
  22055255.759   -12961883.291 8 -10075945.14347  22055259.370    22055269.0404
  21039763.730   -18556962.517 9 -14433658.84047  21039766.366    21039774.8304
 00  4 21  1  8  0.0000000  0  7 03 06 21 17 23 09 26
  24610370.994    -1664249.904 7  -1282910.03545  24610374.882    24610389.4514
  24025027.989    -3903074.075 8  -3025307.21445  24025026.532    24025040.4194
  25035129.470     -224767.39217   -160804.31054  25035134.058    25035148.7864
  20026642.414   -25462849.810 9 -19827134.10648  20026645.939    20026654.2154
  21835865.174   -16170800.942 9 -12572342.97847  21835866.169    21835874.8034
  22039356.002   -13045449.309 8 -10141061.40447  22039356.471    22039366.7154
  21053418.971   -18485196.785 9 -14377737.51747  21053423.226    21053432.0304
 00  4 21  1  8 30.0000000  0  7 03 06 21 17 23 09 26
  24603044.882    -1702735.212 7  -1312898.52345  24603050.420    24603065.8424
  24043627.071    -3805303.171 8  -2949122.20445  24043632.096    24043645.6364
  25020451.990     -301938.040 7   -220937.17644  25020450.477    25020460.7674
  20025510.387   -25468802.118 9 -19831772.23548  20025512.990    20025521.6484
  21827112.375   -16216792.489 9 -12608180.49547  21827113.758    21827123.1514
  22023518.746   -13128656.585 8 -10205898.10947  22023523.483    22023533.2044
  21067138.002   -18413105.393 9 -14321562.43747  21067142.296    21067150.2484
 00  4 21  1  9  0.0000000  0  7 03 06 21 17 23 09 26
  24595825.597    -1740690.947 7  -1342474.39445  24595828.348    24595841.9354
  24062239.332    -3707480.103 7  -2872896.52145  24062247.104    24062262.6694
  25005749.692     -379162.286 7   -281111.76045  25005755.006    25005767.1914
  20024491.126   -25474163.218 9 -19835949.67648  20024492.858    20024501.7414
  21818384.114   -16262653.979 9 -12643916.66247  21818386.539    21818395.9074
  22007756.698   -13211482.297 8 -10270437.51747  22007761.959    22007771.3844
  21080920.295   -18340685.069 9 -14265131.03447  21080922.713    21080931.5114
 00  4 21  1  9 30.0000000  0  7 03 06 21 17 23 09 26
  24588700.456    -1778135.799 7  -1371652.15045  24588702.784    24588716.8204
  24080875.630    -3609600.549 7  -2796626.90445  24080874.273    24080887.6554
  24991044.985                      -56807.78717
  20023582.948   -25478932.629 9 -19839666.08048  20023585.212    20023593.8614
  21809676.618   -16308415.603 9 -12679575.02047  21809678.370    21809686.4284
  21992070.689   -13293913.107 8 -10334669.19247  21992075.232    21992085.6254
  21094764.894   -18267936.659 9 -14208443.98047  21094766.810    21094774.6894
 00  4 21  1 10  0.0000000  0  7 03 06 21 17 23 09 26
  24581670.355    -1815084.747 7  -1400443.50845  24581671.592    24581685.2534
  24099514.447    -3511665.893 7  -2720314.34745  24099509.040    24099525.0944
  24976327.916     -134150.543 7    -88917.26755  24976329.260    24976342.6824
  20022785.923   -25483114.853 9 -19842924.93548  20022789.357    20022798.1184
  21800985.315   -16354076.813 9 -12715155.14847  21800988.678    21800997.6824
  21976461.698   -13375943.449 8 -10398588.81847  21976465.956    21976475.9364
  21108665.035   -18194872.367 9 -14151510.78847  21108669.447    21108678.6304
 00  4 21  1 10 30.0000000  0  7 03 06 21 17 23 09 26
  24574727.195    -1851542.154 7  -1428851.86745  24574733.389    24574747.8894
  24118146.042    -3413673.709 7  -2643957.01645  24118156.403    24118170.7904
  24961594.719     -211543.279 7   -149223.12545  24961599.791    24961616.8144
  20022101.861   -25486711.377 9 -19845727.39948  20022104.861    20022113.5774
  21792315.897   -16399639.141 9 -12750658.19347  21792318.470    21792327.9344
  21960929.010   -13457577.337 8 -10462199.54347  21960930.726    21960941.4204
  21122628.703   -18121504.359 9 -14094340.92547  21122631.239    21122640.0534
 00  4 21  1 11  0.0000000  0  7 03 06 21 17 23 09 26
  24567885.861    -1887506.846 7  -1456876.34245  24567889.816    24567903.0774
  24136797.468    -3315651.698 7  -2567576.34845  24136811.208    24136824.4264
  24946869.104     -288958.072 7   -209546.16945  24946868.717    24946882.3514
  20021527.951   -25489731.663 9 -19848080.84848  20021530.481    20021538.9834
  21783664.710   -16445098.980 9 -12786081.38947  21783667.530    21783676.9814
  21945468.689   -13538822.737 8 -10525507.51547  21945470.480    21945480.3184
  21136648.792   -18047833.065 9 -14036934.75047  21136650.560    21136659.0204
 00  4 21  1 11 30.0000000  0  7 03 06 21 17 23 09 26
  24561137.097    -1922970.982 7  -1484510.75845  24561142.263    24561155.0124
  24155465.466    -3217614.708 8  -2491184.04945  24155466.274    24155481.8184
  24932129.435     -366395.937 7   -269887.21145  24932134.706    24932147.6394
  20021061.988   -25492181.653 9 -19849989.92448  20021063.929    20021072.6994
  21775035.076   -16490446.393 9 -12821417.00147  21775038.562    21775048.1304
  21930080.422   -13619682.874 8 -10588515.31547  21930082.658    21930092.5904
  21150722.691   -17973870.376 9 -13979301.50147  21150725.621    21150733.8164
 00  4 21  1 12  0.0000000  0  7 03 06 21 17 23 09 26
  24554487.253    -1957935.755 7  -1511756.03745  24554489.535    24554500.8654
  24174117.031    -3119581.437 8  -2414794.64045  24174121.911    24174137.7244
  24917391.302     -443864.330 7   -330252.06545  24917391.885    24917405.9534
  20020703.420   -25494048.797 9 -19851444.82548  20020708.444    20020717.4194
  21766433.943   -16535658.748 9 -12856647.35847  21766435.334    21766444.1554
  21914768.113   -13700155.584 8 -10651221.20747  21914769.107    21914779.3344
  21164851.419   -17899610.920 9 -13921437.00347  21164856.758    21164865.3514
 00  4 21  1 12 30.0000000  0  7 03 06 21 17 23 09 26
  24547924.597    -1992402.521 7  -1538613.26945  24547929.451    24547943.6684
  24192763.483    -3021569.595 7  -2338421.90745  24192772.011    24192787.2004
  24902642.522     -521359.621 7   -390637.81445  24902644.591    24902658.7784
  20020463.179   -25495327.346 9 -19852441.08748  20020465.330    20020473.8924
  21757851.943   -16580742.141 9 -12891777.22047  21757855.160    21757864.9724
  21899526.321   -13780231.475 8 -10713617.89747  21899531.442    21899541.2874
  21179042.313   -17825045.558 9 -13863334.13347  21179046.002    21179054.3154
 00  4 21  1 13  0.0000000  0  7 03 06 21 17 23 09 26
  24541464.899    -2026375.847 7  -1565086.03545  24541464.833    24541476.2644
  24211406.566    -2923594.447 7  -2262077.80845  24211415.370    24211431.9524
  24887885.742     -598885.342 7   -451047.28445  24887890.948    24887904.5674
  20020332.057   -25496015.746 9 -19852977.49448  20020334.578    20020343.1324
  21749300.313   -16625691.241 9 -12926802.43647  21749301.986    21749311.2344
  21884367.609   -13859898.242 8 -10775695.79947  21884371.554    21884381.5244
  21193293.241   -17750167.129 9 -13804987.31547  21193294.906    21193303.5824
 00  4 21  1 13 30.0000000  0  7 03 06 21 17 23 09 26
  24535087.441    -2059858.532 7  -1591176.45845  24535093.175    24535106.1674
  24230045.954    -2825645.219 7  -2185753.90145  24230056.342    24230070.2064
  24873131.036     -676442.224 7   -511481.03645  24873131.358    24873147.6414
  20020311.465   -25496117.413 9 -19853056.70148  20020315.036    20020323.8184
  21740766.495   -16670509.105 9 -12961725.38747  21740773.044    21740783.1024
  21869287.548   -13939159.443 8 -10837457.66647  21869288.270    21869298.6234
  21207598.302   -17674979.543 9 -13746399.60547  21207602.252    21207610.8804
 00  4 21  1 14  0.0000000  0  7 03 06 21 17 23 09 26
  24528811.725    -2092847.873 7  -1616882.46045  24528815.370    24528827.9074
  24248682.432    -2727701.993 7  -2109434.60545  24248694.105    24248707.5624
  24858369.795     -754016.946 7   -571928.69845  24858369.324    24858383.8994
  20020401.179   -25495639.260 9 -19852684.09848  20020405.903    20020414.3034
  21732261.224   -16715208.581 9 -12996556.10047  21732266.792    21732276.2704
  21854281.451   -14018023.163 9 -10898909.79747  21854281.264    21854291.0584
  21221967.320   -17599474.569 9 -13687564.57047  21221970.124    21221978.9884
 00  4 21  1 14 30.0000000  0  7 03 06 21 17 23 09 26
  24522630.055    -2125325.510 7  -1642189.69245  24522635.366    24522647.1574
  24267321.408    -2629747.839 7  -2033106.89345  24267334.009    24267350.0754
  24843599.801     -831596.862 7   -632380.41545  24843608.221    24843621.6614
  20020602.598   -25494593.732 9 -19851869.37448  20020605.278    20020613.4644
  21723779.673   -16759798.150 9 -13031301.16747  21723781.888    21723791.3784
  21839346.681   -14096477.286 9 -10960042.78647  21839351.883    21839361.6134
  21236390.235   -17523669.775 9 -13628495.91947  21236395.027    21236404.7844
 00  4 21  1 15  0.0000000  0  7 03 06 21 17 23 09 26
  24516547.322    -2157285.137 7  -1667093.27345  24516552.817    24516565.4304
  24285972.900    -2531774.846 8  -1956764.45345  24285978.546    24285993.3264
  24828834.705     -909191.484 7   -692843.57745  24828842.738    24828853.8424
  20020909.625   -25492978.626 9 -19850610.82648  20020912.530    20020920.9924
  21715316.075   -16804280.256 9 -13065962.48747  21715317.497    21715326.9474
  21824497.470   -14174528.007 8 -11020861.41747  21824498.878    21824508.7874
  21250873.079   -17447573.893 9 -13569200.43647  21250876.122    21250884.9584
 00  4 21  1 15 30.0000000  0  8 03 06 21 17 23 09 26 29
  24510562.332    -2188730.605 7  -1691596.19245  24510569.159    24510582.4454
  24304616.732    -2433779.649 7  -1880404.71545  24304625.510    24304641.7314
  24814059.804     -986807.686 7   -753323.56245  24814069.230    24814083.7064
  20021323.731   -25490793.542 9 -19848908.13748  20021327.790    20021336.8194
  21706868.641   -16848664.424 9 -13100547.47847  21706871.680    21706880.8304
  21809714.779   -14252179.487 8 -11081368.96347  21809722.360    21809731.4044
  21265405.474   -17371204.080 9 -13509691.50647  21265409.239    21265417.4854
  24551733.622    -1580266.92417  -1212910.59655  24551729.397    24551743.7784
 00  4 21  1 16  0.0000000  0  8 03 06 21 17 23 09 26 29
  24504686.324    -2219654.584 7  -1715692.76545  24504684.496    24504697.4054
  24323260.425    -2335778.057 7  -1804039.96245  24323275.399    24323289.1164
  24799300.719    -1064461.201 7   -813832.57645  24799294.774    24799306.3404
  20021850.197   -25488024.488 9 -19846750.41148  20021854.728    20021863.9184
  21698439.953   -16892941.467 9 -13135049.02047  21698446.058    21698455.2504
  21795022.923   -14329412.202 8 -11141550.19147  21795024.507    21795035.4774
  21279990.490   -17294568.650 9 -13449975.59847  21279992.883    21280000.9504
  24533757.459    -1674677.237 7  -1286476.71245  24533765.079    24533780.3154
 00  4 21  1 16 30.0000000  0  8 03 06 21 17 23 09 26 29
  24498897.506    -2250059.601 7  -1739384.91245  24498898.399    24498911.6014
  24341912.365    -2237798.538 7  -1727692.44045  24341919.635    24341936.2834
  24784510.101    -1142161.021 7   -874377.80945  24784510.913    24784521.7364
  20022493.983   -25484653.196 9 -19844123.40948  20022496.445    20022505.4264
  21690038.403   -16937103.928 9 -13169461.27347  21690041.845    21690051.1604
  21780406.879   -14406216.725 8 -11201397.75347  21780409.523    21780419.7594
  21294620.064   -17217676.975 9 -13390060.00447  21294625.145    21294632.8834
  24515831.713    -1768925.945 7  -1359916.94745  24515829.436    24515844.5054
 00  4 21  1 17  0.0000000  0  8 03 06 21 17 23 09 26 29
  24493202.890    -2279962.123 7  -1762685.57045  24493207.841    24493219.9594
  24360564.085    -2139843.485 7  -1651363.98945  24360560.920    24360577.0814
  24769700.130    -1219917.145 7   -934966.81845  24769713.040    24769724.8584
  20023249.256   -25480678.315 9 -19841026.08248  20023252.605    20023261.7524
  21681656.773   -16981153.442 9 -13203785.50747  21681659.960    21681669.0714
  21765871.914   -14482606.190 8 -11260921.90447  21765872.950    21765882.9704
  21309305.137   -17140518.126 9 -13329936.24547  21309307.369    21309315.4984
  24497917.447    -1863012.650 7  -1433230.97545  24497925.673    24497940.5034
 00  4 21  1 17 30.0000000  0  8 03 06 21 17 23 09 26 29
  24487616.447    -2309355.988 7  -1785589.82645  24487615.789    24487626.7164
  24379207.434    -2041902.262 7  -1575046.31345  24379196.918    24379213.1934
  24754909.405    -1297715.894 7   -995589.07945  24754907.458    24754921.9604
  20024119.998   -25476099.263 9 -19837457.98048  20024124.246    20024132.9644
  21673295.675   -17025086.503 9 -13238018.98147  21673299.044    21673308.4904
  21751414.226   -14558575.075 8 -11320118.33947  21751416.554    21751425.8294
  21324038.676   -17063091.409 9 -13269603.74047  21324041.558    21324049.8834
  24480048.757    -1956937.661 7  -1506419.03945  24480052.866    24480065.6404
 00  4 21  1 18  0.0000000  0  8 03 06 21 17 23 09 26 29
  24482119.084    -2338230.746 7  -1808089.53345  24482120.298    24482133.5334
  24397838.980    -1943977.799 7  -1498741.69345  24397833.185    24397849.2774
  24740097.530    -1375547.444 7  -1056236.88445  24740096.833    24740110.3464
  20025107.769   -25470921.102 9 -19833423.03648  20025109.799    20025118.5024
  21664958.713   -17068903.252 9 -13272161.82747  21664961.040    21664970.5564
  21737035.654   -14634118.993 8 -11378983.62847  21737041.130    21737050.9074
  21338825.165   -16985386.677 9 -13209054.60647  21338827.439    21338836.2904
  24462212.215    -2050710.913 7  -1579488.76845  24462207.677    24462221.6574
 00  4 21  1 18 30.0000000  0  8 03 06 21 17 23 09 26 29
  24476718.337    -2366599.557 7  -1830195.04145  24476720.338    24476732.9344
  24416472.800    -1846058.539 7  -1422441.11245  24416464.819    24416482.1794
  24725280.052    -1453401.589 7  -1116902.31545  24725282.113    24725293.8904
  20026204.095   -25465159.420 9 -19828933.40248  20026206.293    20026214.9604
  21656641.615   -17112619.985 9 -13306226.76347  21656642.595    21656651.5674
  21722746.333   -14709241.840 9 -11437520.80747  21722745.441    21722755.6334
  21353663.660   -16907404.600 9 -13148289.35247  21353667.108    21353675.7174
  24444375.597    -2144343.729 7  -1652449.09345  24444388.351    24444403.9294
 00  4 21  1 19  0.0000000  0  8 03 06 21 17 23 09 26 29
  24471414.534    -2394454.068 7  -1851899.80945  24471421.339    24471433.5004
  24435101.008    -1748140.296 7  -1346141.34345  24435099.891    24435113.9774
  24710454.959    -1531275.033 7  -1177582.77145  24710461.790    24710475.1654
  20027406.359   -25458831.085 9 -19824002.22648  20027410.205    20027419.0634
  21648340.794   -17156225.593 9 -13340205.10047  21648344.339    21648353.9594
  21708527.047   -14783935.565 9 -11495723.60347  21708532.288    21708541.6384
  21368556.242   -16829143.854 9 -13087306.97147  21368559.344    21368568.3204
  24426586.144    -2237844.375 7  -1725306.40645  24426595.845    24426610.3904
 00  4 21  1 19 30.0000000  0  8 03 06 21 17 23 09 26 29
  24466217.851    -2421779.786 7  -1873192.46545  24466220.481    24466233.3124
  24453716.184    -1650254.815 7  -1269867.10345  24453725.994    24453742.3984
  24695646.654    -1609157.124 7  -1238269.95445  24695641.736    24695656.2744
  20028720.479   -25451934.038 9 -19818627.89248  20028723.062    20028731.4574
  21640066.641   -17199710.956 9 -13374089.72847  21640068.940    21640078.4024
  21694404.856   -14858180.172 9 -11553576.43547  21694404.088    21694413.1754
  21383502.303   -16750610.176 9 -13026111.89647  21383504.465    21383512.7994
  24408822.684    -2331210.367 7  -1798058.82745  24408827.494    24408842.3374
 00  4 21  1 20  0.0000000  0  8 03 06 21 17 23 09 26 29
  24461119.380    -2448592.957 7  -1894085.80345  24461118.642    24461130.7894
  24472334.877    -1552426.913 7  -1193637.70645  24472342.684    24472356.5914
  24680818.469    -1687057.444 7  -1298971.37445  24680818.498    24680832.5334
  20030140.870   -25444469.598 9 -19812811.43548  20030143.624    20030151.9434
  21631815.498   -17243070.516 9 -13407876.32847  21631818.079    21631826.9404
  21680356.497   -14931970.414 9 -11611075.22047  21680361.831    21680371.2444
  21398494.749   -16671805.635 9 -12964705.77747  21398499.648    21398508.9494
  24391089.750    -2424442.345 7  -1870706.84445  24391087.307    24391101.3984
 00  4 21  1 20 30.0000000  0  8 03 06 21 17 23 09 26 29
  24456106.337    -2474899.872 7  -1914584.63645  24456113.177    24456125.1214
  24490935.182    -1454665.601 7  -1117460.17145  24490945.282    24490961.1124
  24665974.578    -1764981.136 7  -1359691.00145  24665987.624    24666003.0034
  20031672.076   -25436415.959 9 -19806535.86648  20031675.822    20031684.2594
  21623593.987   -17286286.872 9 -13441551.35347  21623594.679    21623603.3814
  21666403.159   -15005301.102 9 -11668215.90947  21666407.194    21666417.1604
  21413543.642   -16592737.510 9 -12903094.27347  21413546.092    21413555.0364
  24373365.445    -2517541.508 7  -1943251.37645  24373371.479    24373385.6254
 00  4 21  1 21  0.0000000  0  8 03 06 21 17 23 09 26 29
  24451202.159    -2500690.745 7  -1934681.31945  24451205.372    24451217.3424
  24509528.771    -1356988.005 7  -1041347.90545  24509534.123    24509548.8014
  24651153.568    -1842922.562 7  -1420424.41345  24651157.114    24651172.4824
  20033319.537   -25427759.030 9 -19799790.19648  20033322.948    20033331.5364
  21615394.585   -17329349.093 9 -13475106.26647  21615399.623    21615408.6094
  21652541.787   -15078166.368 9 -11724993.94747  21652541.600    21652551.2684
  21428638.351   -16513407.673 9 -12841278.84447  21428641.996    21428651.0464
  24355685.381    -2610493.646 7  -2015681.33945  24355682.780    24355695.6104
 00  4 21  1 21 30.0000000  0  7 03 21 17 23 09 26 29
  24446390.231    -2525983.655 7  -1954390.07345  24446391.540    24446404.9594
  24636321.132    -1920881.355 7  -1481171.37345  24636322.883    24636336.1254
  20035083.927   -25418489.031 9 -19792566.81948  20035087.023    20035095.5174
  21607229.242   -17372276.288 9 -13508555.96847  21607230.723    21607239.6674
  21638760.527   -15150562.237 9 -11781406.22047  21638765.297    21638774.7164
  21443781.554   -16433826.008 9 -12779267.19347  21443786.476    21443795.3494
  24338017.223    -2703291.917 7  -2087991.42045  24338023.792    24338036.8264
 00  4 21  1 22  0.0000000  0  7 03 21 17 23 09 26 29
  24441670.292    -2550775.107 7  -1973708.03245  24441672.844    24441685.9494
  24621476.402    -1998865.850 7  -1541938.38145  24621482.448    24621495.9834
  20036967.035   -25408594.505 9 -19784856.80048  20036970.033    20036978.2894
  21599083.596   -17415076.595 9 -13541906.80047  21599086.127    21599095.3594
  21625072.596   -15222498.407 9 -11837460.30047  21625075.763    21625084.5624
  21458978.517   -16353999.365 9 -12717064.63847  21458977.435    21458985.4014
  24320395.644    -2795942.828 7  -2160186.67345  24320393.547    24320404.9014
 00  4 21  1 22 30.0000000  0  7 03 21 17 23 09 26 29
  24437052.159    -2575042.694 7  -1992617.79745  24437056.162    24437070.1304
  24606632.172    -2076872.948 7  -1602722.94745  24606636.666    24606651.2654
  20038970.054   -25398073.343 9 -19776658.48148  20038972.120    20038980.5454
  21590963.500   -17457749.326 9 -13575158.20547  21590965.621    21590974.7174
  21611474.331   -15293964.366 9 -11893147.97147  21611476.282    21611485.0034
  21474211.366   -16273934.950 9 -12654676.80847  21474213.202    21474220.9254
  24302795.637    -2888425.937 8  -2232251.14945  24302794.461    24302806.1894
 00  4 21  1 23  0.0000000  0  7 03 21 17 23 09 26 29
  24432538.433    -2598776.948 7  -2011112.03245  24432539.214    24432551.2004
  24591785.704    -2154907.922 7  -1663529.27945  24591787.168    24591802.2934
  20041085.870   -25386947.543 9 -19767989.02748  20041089.389    20041097.8394
  21582864.916   -17500306.506 9 -13608319.56847  21582867.026    21582876.5914
  21597960.715   -15364966.419 9 -11948474.15747  21597965.039    21597974.3194
  21489490.896   -16193630.979 9 -12592102.30247  21489494.902    21489502.5634
  24285222.090    -2980729.808 7  -2304175.95245  24285229.469    24285241.6724
 00  4 21  1 23 30.0000000  0  7 03 21 17 23 09 26 29
  24428119.818    -2621974.723 7  -2029188.25345  24428124.552    24428138.8664
  24576924.856    -2232987.579 7  -1724370.39645  24576928.636    24576942.5114
  20043318.196   -25375226.405 9 -19758855.66948  20043319.809    20043328.3404
  21574787.200   -17542746.898 9 -13641389.95847  21574791.264    21574800.4024
  21584537.551   -15435521.069 9 -12003451.70747  21584538.415    21584547.9754
  21504818.680   -16113084.836 9 -12529339.08347  21504821.471    21504830.1454
  24267686.511    -3072858.976 7  -2375964.65845  24267695.364    24267710.4004
 00  4 21  1 24  0.0000000  0  7 03 21 17 23 09 26 29
  24423815.355    -2644618.278 7  -2046832.52245  24423814.846    24423829.3954
  24562039.799    -2311116.188 7  -1785249.70445  24562061.172    24562075.7644
  20045661.064   -25362911.327 9 -19749259.49548  20045663.365    20045671.8154
  21566737.946   -17585055.456 9 -13674357.62547  21566739.880    21566749.3594
  21571192.148   -15505632.936 9 -12058084.25247  21571196.686    21571206.3704
  21520189.838   -16032299.139 9 -12466389.20547  21520194.731    21520203.1054
  24250190.990    -3164807.556 7  -2447612.58345  24250197.638    24250212.5484
 00  4 21  1 24 30.0000000  0  7 03 21 17 23 09 26 29
  24419612.332    -2666719.810 7  -2064054.50545  24419611.503    24419621.6924
  24547183.942    -2389283.582 7  -1846159.18245  24547187.192    24547200.3074
  20048112.751   -25350015.808 9 -19739211.03448  20048116.946    20048125.9014
  21558712.285   -17627231.537 9 -13707222.06147  21558714.691    21558723.2094
  21557936.969   -15575298.174 9 -12112368.75047  21557939.813    21557949.1414
  21535609.804   -15951280.625 9 -12403257.90447  21535611.786    21535620.1394
  24232728.605    -3256572.456 7  -2519117.39145  24232735.669    24232749.4144
 00  4 21  1 25  0.0000000  0  7 03 21 17 23 09 26 29
  24415504.463    -2688299.112 8  -2080869.51945  24415504.110    24415517.5094
  24532311.558    -2467480.820 7  -1907091.99045  24532307.931    24532318.7504
  20050678.593   -25336540.271 9 -19728710.60648  20050681.467    20050690.2974
  21550710.238   -17669288.905 9 -13739993.97647  21550710.950    21550719.8624
  21544764.894   -15644529.110 9 -12166314.85047  21544765.829    21544774.8724
  21551069.934   -15870030.156 9 -12339945.85547  21551073.062    21551081.0244
  24215294.663    -3348169.893 7  -2590491.70245  24215305.463    24215318.7904
 00  4 21  1 25 30.0000000  0  7 03 21 17 23 09 26 29
  24411487.238    -2709364.893 7  -2097284.41645  24411494.111    24411506.6424
  24517418.072    -2545694.464 7  -1968037.51645  24517423.978    24517434.4114
  20053355.952   -25322469.548 9 -19717746.39748  20053359.051    20053367.7084
  21542728.775   -17711229.911 9 -13772675.20347  21542729.972    21542738.6114
  21531677.093   -15713303.872 9 -12219905.47747  21531678.207    21531687.4164
  21566571.994   -15788562.743 9 -12276464.77347  21566576.010    21566583.9144
  24197907.124    -3439603.101 7  -2661738.08545  24197906.315    24197919.5574
 00  4 21  1 26  0.0000000  0  7 03 21 17 23 09 26 29
  24407577.849    -2729925.277 7  -2113305.44045  24407582.882    24407594.6634
  24502534.387    -2623909.169 7  -2028983.86245  24502538.989    24502551.6644
  20056147.945   -25307795.270 9 -19706311.88748  20056151.564    20056159.9594
  21534768.396   -17753053.712 9 -13805265.09547  21534770.967    21534779.9744
  21518679.949   -15781600.125 9 -12273123.25947  21518681.168    21518690.6524
  21582117.121   -15706875.835 9 -12212812.65247  21582121.254    21582128.8164
  24180531.831    -3530882.995 7  -2732865.00845  24180536.910    24180549.3034
 00  4 21  1 26 30.0000000  0  7 03 21 17 23 09 26 29
  24403763.439    -2749988.148 7  -2128938.81845  24403765.115    24403777.2094
  24487652.795    -2702123.652 7  -2089930.02145  24487655.457    24487668.6884
  20059055.378   -25292525.567 9 -19694413.40348  20059057.209    20059065.4044
  21526832.165   -17794766.010 9 -13837768.12647  21526833.670    21526842.2294
  21505774.598   -15849414.023 9 -12325965.16447  21505777.250    21505786.4744
  21597701.711   -15624956.874 9 -12148979.70647  21597709.518    21597717.4364
  24163192.597    -3622007.004 7  -2803870.43345  24163196.034    24163208.3754
 00  4 21  1 27  0.0000000  0  7 03 21 17 23 09 26 29
  24400043.873    -2769541.417 7  -2144175.09245  24400044.166    24400054.8054
  24472770.343    -2780348.035 7  -2150883.88845  24472769.126    24472782.6834
  20062076.217   -25276650.864 9 -19682043.48348  20062078.236    20062086.5464
  21518919.601   -17836352.133 9 -13870172.84247  21518919.651    21518927.9614
  21492965.428   -15916735.117 9 -12378423.07847  21492966.502    21492975.2504
  21613340.997   -15542795.319 8 -12084957.72347  21613343.929    21613352.2234
  24145873.641    -3712978.027 7  -2874756.65745  24145884.462    24145897.5604
 00  4 21  1 27 30.0000000  0  7 03 21 17 23 09 26 29
  24396419.126    -2788565.092 7  -2158998.65545  24396423.547    24396436.4304
  24457878.192    -2858594.817 7  -2211855.23545  24457881.101    24457891.0514
  20065210.179   -25260174.657 9 -19669204.85248  20065213.343    20065221.8654
  21511031.506   -17877795.236 9 -13902466.11747  21511033.366    21511041.5284
  21480250.152   -15983552.638 9 -12430488.60047  21480251.609    21480260.4274
  21629022.886   -15460388.307 8 -12020744.49147  21629024.948    21629033.6724
  24128598.574    -3803795.296 8  -2945523.11245  24128602.399    24128615.3644
 00  4 21  1 28  0.0000000  0  7 03 21 17 23 09 26 29
  24392900.661    -2807058.147 7  -2173408.78545  24392904.989    24392916.1494
  24442976.248    -2936882.453 7  -2272858.43945  24442982.332    24442994.5274
  20068459.579   -25243102.751 9 -19655902.04548  20068462.219    20068470.8214
  21503172.259   -17919092.137 9 -13934645.48847  21503175.062    21503183.3164
  21467624.999   -16049887.684 9 -12482178.15847  21467628.283    21467637.4234
  21644749.045   -15377724.390 8 -11956331.08147  21644755.675    21644764.1574
  24111353.203    -3894451.291 8  -3016163.91245  24111350.913    24111363.7054
 00  4 21  1 28 30.0000000  0  7 03 21 17 23 09 26 29
  24389481.278    -2825014.427 7  -2187400.60545  24389488.124    24389500.1984
  24428076.440    -3015217.064 7  -2333898.24645  24428074.568    24428086.8164
  20071820.786   -25225433.374 9 -19642133.68748  20071824.497    20071832.9474
  21495340.704   -17960254.028 9 -13966719.65147  21495342.191    21495350.3674
  21455090.870   -16115748.342 9 -12533498.06347  21455095.369    21455104.6064
  21660529.795   -15294821.565 9 -11891731.48847  21660532.233    21660540.1384
  24094122.509    -3984932.609 7  -3086668.59545  24094133.196    24094145.8114
 00  4 21  1 29  0.0000000  0  7 03 21 17 23 09 26 29
  24386168.644    -2842434.177 7  -2200974.35545  24386172.720    24386186.1404
  24413159.376    -3093603.360 7  -2394978.36845  24413159.314    24413170.7964
  20075300.101   -25207155.372 9 -19627891.07148  20075302.840    20075310.9314
  21487531.167   -18001289.041 9 -13998694.93847  21487533.525    21487541.5834
  21442653.954   -16181128.741 9 -12584443.74147  21442654.182    21442662.6574
  21676345.919   -15211697.886 9 -11826959.80447  21676350.631    21676358.6074
  24076949.641    -4075237.573 7  -3157035.84845  24076947.356    24076960.4924
 00  4 21  1 29 30.0000000  0  7 03 21 17 23 09 26 29
  24382957.581    -2859332.091 7  -2214141.47445  24382957.684    24382969.3184
  24398230.173    -3172045.095 7  -2456101.60445  24398231.233    24398244.0214
  20078892.270   -25188270.596 9 -19613175.64948  20078896.177    20078904.7914
  21479743.290   -18042219.490 9 -14030588.73847  21479744.775    21479752.6454
  21430299.392   -16246035.617 9 -12635020.44447  21430301.844    21430310.5824
  21692205.386   -15128361.891 9 -11762022.67147  21692208.846    21692216.6774
  24059788.880    -4165353.397 7  -3227255.73245  24059799.413    24059812.0314
 00  4 21  1 30  0.0000000  0  7 03 21 17 23 09 26 29
  24379838.496    -2875717.533 7  -2226909.28645  24379839.400    24379851.8814
  24383291.599    -3250537.022 7  -2517263.97545  24383293.336    24383307.0144
  20082603.497   -25168769.290 9 -19597979.81848  20082606.939    20082615.6484
  21471969.373   -18083052.445 9 -14062406.57647  21471973.962    21471982.6604
  21418038.753   -16310465.292 9 -12685225.30947  21418041.348    21418049.7844
  21708102.393   -15044825.086 8 -11696929.08247  21708104.338    21708112.9484
  24042686.394    -4255279.333 7  -3297327.66345  24042687.465    24042699.4554
 00  4 21  1 30 30.0000000  0  7 03 21 17 23 09 26 29
  24376813.842    -2891584.621 7  -2239273.17145  24376818.170    24376833.8024
  24368346.880    -3329066.857 7  -2578455.88945  24368350.411    24368363.9554
  20086431.956   -25148651.135 9 -19582303.32148  20086435.464    20086443.9704
  21464223.202   -18123784.363 9 -14094145.68447  21464223.202    21464231.4984
  21405875.238   -16374387.020 9 -12735034.37347  21405877.872    21405886.7484
  21724033.643   -14961090.082 8 -11631681.06347  21724038.574    21724047.6834
  24025611.301    -4345019.214 8  -3367254.62145  24025610.204    24025622.5444
 00  4 21  1 31  0.0000000  0  7 03 21 17 23 09 26 29
  24373890.754    -2906942.985 7  -2251240.62945  24373898.272    24373909.7424
  24353395.683    -3407630.184 7  -2639673.91945  24353400.674    24353413.4764
  20090378.015   -25127914.629 9 -19566145.00148  20090381.292    20090390.0684
  21456492.330   -18164397.861 9 -14125792.51047  21456494.747    21456503.5724
  21393809.720   -16437790.281 9 -12784439.42647  21393812.091    21393821.4854
  21740008.249   -14877156.711 8 -11566278.44847  21740010.401    21740019.9554
  24008560.381    -4434576.032 7  -3437038.89245  24008566.910    24008580.9624
 00  4 21  1 31 30.0000000  0  7 03 21 17 23 09 26 29
  24371077.328    -2921788.197 7  -2262808.26245  24371072.860    24371083.9854
  24338442.524    -3486220.459 8  -2700913.00745  24338446.470    24338458.5734
  20094439.097   -25106567.185 9 -19549510.62648  20094443.420    20094452.1084
  21448788.484   -18204871.045 9 -14157329.99647  21448792.830    21448801.2824
  21381843.797   -16500669.853 9 -12833436.39747  21381846.533    21381855.5734
  21756014.398   -14793026.374 8 -11500722.37047  21756020.265    21756028.7354
  23991556.176    -4523962.435 8  -3506690.43045  23991557.653    23991569.8514
 00  4 21  1 32  0.0000000  0  7 03 21 17 23 09 26 29
  24368338.788    -2936110.544 7  -2273968.44745  24368347.176    24368358.7544
  24323481.942    -3564830.673 8  -2762167.54845  24323486.193    24323498.9914
  20098614.600   -25084627.847 9 -19532415.03748  20098618.648    20098627.0234
  21441118.761   -18245188.878 9 -14188746.42647  21441120.776    21441129.3064
  21369978.675   -16563021.114 9 -12882021.72447  21369981.460    21369989.8764
  21772065.525   -14708697.304 9 -11435011.41147  21772067.919    21772076.0424
  23974579.594    -4613182.219 8  -3576212.13245  23974580.595    23974592.5514
 00  4 21  1 32 30.0000000  0  7 03 21 17 23 09 26 29
  24365717.966    -2949914.299 7  -2284724.53245  24365718.470    24365732.2494
  24308513.212    -3643463.114 7  -2823439.41545  24308521.808    24308536.0514
  20102903.604   -25062105.780 9 -19514865.37548  20102904.723    20102913.1354
  21433475.232   -18285347.530 9 -14220038.84147  21433478.769    21433487.5974
  21358217.522   -16624847.419 9 -12930197.98247  21358216.398    21358225.1824
  21788153.371   -14624169.729 9 -11369145.76147  21788153.431    21788161.4964
  23957631.921    -4702230.535 8  -3645600.20945  23957634.782    23957645.1274
 00  4 21  1 33  0.0000000  0  7 03 21 17 23 09 26 29
  24363183.250    -2963188.831 7  -2295068.26645  24363193.985    24363205.2174
  24293552.014    -3722117.214 7  -2884728.16645  24293555.126    24293568.3484
  20107296.820   -25039005.881 9 -19496865.47048  20107300.143    20107308.4924
  21425865.900   -18325339.755 9 -14251201.59247  21425868.119    21425877.0784
  21346539.866   -16686168.925 9 -12977980.89147  21346547.007    21346556.2814
  21804275.177   -14539452.131 9 -11303132.06547  21804274.618    21804282.9274
  23940717.698    -4791106.099 8  -3714853.69745  23940722.142    23940734.0904
 00  4 21  1 33 30.0000000  0  7 03 21 17 23 09 26 29
  24360762.303    -2975922.331 7  -2304990.45945  24360770.210    24360783.5844
  24278570.912    -3800797.805 7  -2946037.57145  24278582.281    24278596.0784
  20111802.192   -25015335.444 9 -19478420.99248  20111804.918    20111813.0154
  21418284.374   -18365173.349 9 -14282240.73447  21418287.814    21418297.1364
  21334971.397   -16746988.137 9 -13025372.39947  21334973.333    21334982.5644
  21820429.868   -14454530.942 8 -11236959.72347  21820434.051    21820442.5094
  23923832.601    -4879797.531 7  -3783963.66345  23923842.982    23923857.3924
 00  4 21  1 34  0.0000000  0  7 03 21 17 23 09 26 29
  24358453.719    -2988118.609 7  -2314493.96845  24358450.173    24358463.5354
  24263605.097    -3879495.907 8  -3007360.63845  24263607.279    24263620.0224
  20116417.845   -24991075.776 9 -19459517.36748  20116421.107    20116429.4254
  21410730.152   -18404863.805 9 -14313168.32547  21410735.366    21410743.8924
  21323493.235   -16807300.513 9 -13072368.97247  21323496.641    21323504.8194
  21836628.552   -14369401.944 8 -11170625.46047  21836633.285    21836642.4414
  23907006.343    -4968297.297 8  -3852924.26245  23907001.520    23907014.3904
 00  4 21  1 34 30.0000000  0  7 03 21 17 23 09 26 29
  24356228.022    -2999779.535 7  -2323580.39045  24356230.268    24356243.1304
  24248621.252    -3958203.098 7  -3068690.75545  24248629.468    24248642.1524
  20121151.059   -24966196.843 9 -19440131.19048  20121155.169    20121163.8914
  21403206.868   -18444412.927 9 -14343985.77547  21403209.299    21403217.9644
  21312115.933   -16867093.499 9 -13118960.83847  21312117.426    21312126.4944
  21852867.400   -14284072.599 8 -11104135.08247  21852870.656    21852880.0254
  23890191.483    -5056603.063 7  -3921733.72645  23890197.835    23890210.1864
 00  4 21  1 35  0.0000000  0  7 03 21 17 23 09 26 29
  24354107.264    -3010906.285 7  -2332250.51245  24354112.998    24354125.3134
  24233645.664    -4036911.760 7  -3130022.02745  24233649.607    24233665.6414
  20126005.976   -24940691.223 9 -19420256.69648  20126009.036    20126017.5344
  21395709.381   -18483821.775 9 -14374693.91747  21395710.472    21395718.4964
  21300837.982   -16926358.788 9 -13165141.50347  21300839.964    21300849.0654
  21869143.036   -14198540.078 8 -11037486.38647  21869147.683    21869155.8494
  23873428.255    -5144711.804 8  -3990389.65645  23873432.554    23873443.5774
 00  4 21  1 35 30.0000000  0  7 03 21 17 23 09 26 29
  24352088.547    -3021523.757 7  -2340523.82445  24352091.707    24352106.1294
  24218664.213    -4115616.536 7  -3191350.22845  24218673.496    24218686.9824
  20130979.738   -24914557.343 9 -19399892.63748  20130982.107    20130990.3964
  21388232.569   -18523104.771 9 -14405303.98447  21388235.078    21388243.3604
  21289659.743   -16985087.190 9 -13210903.80547  21289663.713    21289673.6214
  21885458.608   -14112808.742 8 -10970682.75847  21885462.001    21885470.4644
  23856701.514    -5232628.025 8  -4058895.59545  23856701.543    23856713.8914
 00  4 21  1 36  0.0000000  0  7 03 21 17 23 09 26 29
  24350165.216    -3031630.717 7  -2348399.38245  24350168.754    24350182.4594
  24203690.301    -4194308.814 8  -3252668.73445  24203700.026    24203713.3814
  20136071.064   -24887791.667 9 -19379036.27248  20136075.524    20136083.6864
  21380783.767   -18562261.012 9 -14435815.27647  21380783.862    21380791.9714
  21278590.337   -17043279.766 9 -13256248.58447  21278590.583    21278599.6144
  21901808.359   -14026895.730 8 -10903737.58047  21901810.670    21901818.8404
  23840003.457    -5320364.771 8  -4127261.61045  23840005.980    23840017.9944
 00  4 21  1 36 30.0000000  0  7 03 21 17 23 09 26 29
  24348341.572    -3041220.797 7  -2355872.14945  24348343.810    24348356.1744
  24188723.944    -4273004.470 8  -3313989.89145  24188724.768    24188736.2254
  20141282.530   -24860411.214 9 -19357700.85848  20141285.552    20141293.9724
  21373356.101   -18601284.405 9 -14466223.06347  21373357.302    21373365.9624
  21267616.807   -17100942.584 9 -13301180.57947  21267617.671    21267626.5714
  21918190.083   -13940808.149 8 -10836656.36247  21918192.394    21918200.5624
  23823343.093    -5407914.107 8  -4195481.62245  23823346.057    23823356.6894
 00  4 21  1 37  0.0000000  0  7 03 21 17 23 09 26 29
  24346607.540    -3050298.233 7  -2362945.43045  24346617.364    24346628.2954
  24173742.537    -4351719.153 8  -3375325.86545  24173745.429    24173756.8704
  20146607.394   -24832430.648 9 -19335897.82548  20146610.383    20146618.7684
  21365952.896   -18640185.545 9 -14496535.58747  21365954.797    21365962.7304
  21256741.839   -17158082.159 9 -13345704.84947  21256744.510    21256753.2924
  21934605.613   -13854544.848 8 -10769438.21647  21934607.677    21934616.5184
  23806720.205    -5495282.394 7  -4263560.55845  23806719.132    23806731.2054
 00  4 21  1 37 30.0000000  0  7 03 21 17 23 09 26 29
  24344986.174    -3058855.917 7  -2369613.70345  24344986.583    24345000.9014
  24158752.555    -4430461.116 8  -3436683.08445  24158761.010    24158773.5064
  20152046.669   -24803846.892 9 -19313624.76248  20152049.875    20152057.8484
  21358572.513   -18678971.355 9 -14526758.22847  21358574.081    21358582.4564
  21245965.285   -17214701.012 9 -13389823.35747  21245970.060    21245979.1264
  21951054.476   -13768106.642 8 -10702083.80647  21951056.488    21951064.6404
  23790122.271    -5582481.438 8  -4331507.62745  23790126.477    23790137.2274
 00  4 21  1 38  0.0000000  0  7 03 21 17 23 09 26 29
  24343456.072    -3066879.766 7  -2375866.03345  24343459.943    24343473.7944
  24143770.538    -4509247.885 8  -3498075.21745  24143768.406    24143780.7624
  20157601.298   -24774655.369 9 -19290878.11748  20157604.634    20157612.8344
  21351216.070   -18717626.703 9 -14556879.17847  21351217.898    21351226.5974
  21235293.577   -17270794.012 9 -13433532.11947  21235295.712    21235304.9824
  21967536.825   -13681484.704 8 -10634586.19247  21967540.162    21967548.5354
  23773566.067    -5669504.215 8  -4399317.35545  23773565.656    23773576.1854
 00  4 21  1 38 30.0000000  0  7 03 21 17 23 09 26 29
  24342026.061    -3074379.520 7  -2381709.94745  24342033.178    24342046.3304
  24128760.699    -4588091.593 8  -3559511.75645  24128765.177    24128776.6634
  20163271.974   -24744861.501 9 -19267662.10548  20163274.137    20163282.3564
  21343884.669   -18756147.459 9 -14586895.28447  21343887.683    21343896.0584
  21224720.243   -17326346.658 9 -13476819.82947  21224724.835    21224733.3854
  21984057.222   -13594674.409 8 -10566941.83247  21984059.645    21984068.1264
  23757035.021    -5756349.796 8  -4466989.02045  23757037.869    23757051.5314
 00  4 21  1 39  0.0000000  0  7 03 21 17 23 09 26 29
  24340708.145    -3081360.527 7  -2387149.66345  24340705.706    24340717.2694
  24113752.386    -4666980.300 8  -3620983.35045  24113752.306    24113762.7864
  20169054.598   -24714469.887 9 -19243980.31548  20169057.346    20169065.8924
  21336581.599   -18794527.658 9 -14616801.85247  21336584.374    21336592.7244
  21214253.885   -17381364.100 9 -13519690.48747  21214255.376    21214263.9774
  22000610.110   -13507672.650 8 -10499148.27347  22000615.537    22000624.4154
  23740538.646    -5843028.055 8  -4534530.27345  23740544.391    23740557.2784
 00  4 21  1 39 30.0000000  0  7 03 21 17 23 09 26 29
  24339472.981    -3087814.720 7  -2392178.87345  24339477.096    24339490.0804
  24098732.166    -4745902.278 8  -3682480.88545  24098733.296    24098746.3104
  20174947.965   -24683490.272 9 -19219840.35748  20174952.704    20174961.3054
  21329308.081   -18832744.475 9 -14646581.09547  21329311.977    21329320.1434
  21203885.774   -17435845.045 9 -13562143.09447  21203887.929    21203896.5504
  22017201.339   -13420487.832 8 -10431212.06047  22017205.476    22017214.6744
  23724085.866    -5929530.378 8  -4601934.42445  23724084.820    23724095.3764
 00  4 21  1 40  0.0000000  0  7 03 21 17 23 09 26 29
  24338344.376    -3093754.127 7  -2396806.94245  24338348.030    24338359.5384
  24083710.312    -4824854.651 8  -3744002.09645  24083709.960    24083722.8964
  20180955.984   -24651934.626 9 -19195251.53048  20180957.944    20180966.0854
  21322069.963   -18870788.712 9 -14676225.88147  21322072.107    21322080.0594
  21193623.259   -17489775.626 9 -13604166.84647  21193625.199    21193633.9364
  22033822.478   -13333129.219 8 -10363140.44246  22033829.054    22033838.5554
  23707654.725    -6015838.685 8  -4669187.41045  23707661.126    23707669.9834
 00  4 21  1 40 30.0000000  0  7 03 21 17 23 09 26 29
  24337307.246    -3099190.498 7  -2401043.01545  24337312.576    24337324.1434
  24068681.355    -4903823.517 8  -3805536.13845  24068682.425    24068694.8844
  20187068.565   -24619807.617 9 -19170217.48148  20187070.956    20187079.6254
  21314859.514   -18908674.320 9 -14705747.08747  21314862.653    21314870.7714
  21183465.535   -17543155.601 9 -13645761.56647  21183467.204    21183475.5854
  22050483.662   -13245602.710 8 -10294937.99746  22050484.955    22050493.5774
  23691271.768    -6101944.353 8  -4736282.52445  23691274.131    23691284.8594
 00  4 21  1 41  0.0000000  0  7 03 21 17 23 09 26 29
  24336375.653    -3104137.254 7  -2404897.56845  24336370.844    24336384.2374
  24053651.581    -4982800.582 8  -3867076.59345  24053654.138    24053664.8244
  20193290.806   -24587101.359 9 -19144732.08448  20193294.884    20193303.0564
  21307677.727   -18946412.021 9 -14735153.07047  21307681.119    21307689.6094
  21173407.918   -17595994.599 9 -13686934.73647  21173412.119    21173420.6644
  22067165.063   -13157914.174 8 -10226609.29646  22067172.353    22067180.3504
  23674931.879    -6187835.076 8  -4803210.11645  23674929.342    23674940.2044
 00  4 21  1 41 30.0000000  0  7 03 21 17 23 09 26 29
  24335515.796    -3108598.581 7  -2408373.88645  24335522.554    24335534.7464
  24038621.405    -5061784.115 8  -3928622.08045  24038624.444    24038635.6054
  20199628.238   -24553801.773 9 -19118784.35248  20199631.859    20199639.5194
  21300523.951   -18984004.065 9 -14764445.53147  21300527.960    21300535.7774
  21163461.026   -17648269.938 9 -13727668.71547  21163464.023    21163473.0294
  22083884.294   -13070071.091 8 -10158160.16247  22083888.353    22083896.7834
  23658616.152    -6273499.038 7  -4869961.04445  23658627.378    23658640.3304
 00  4 21  1 42  0.0000000  0  7 03 21 17 23 09 26 29
  24334751.627    -3112579.851 7  -2411476.16345  24334761.952    24334778.3694
  24023591.074    -5140773.305 8  -3990172.00745  24023593.868    24023603.8614
  20206082.410   -24519890.450 9 -19092359.92448  20206084.809    20206092.8304
  21293397.020   -19021457.205 9 -14793629.76347  21293400.850    21293408.6054
  21153621.539   -17699984.694 9 -13767965.85547  21153623.498    21153631.9244
  22100631.699   -12982072.220 8 -10089589.63747  22100633.978    22100642.7244
  23642363.112    -6358943.425 8  -4936540.85445  23642369.000    23642380.2044
 00  4 21  1 42 30.0000000  0  7 03 21 17 23 09 26 29
  24334095.931    -3116067.583 7  -2414193.82545  24334099.567    24334114.2464
  24008559.254    -5219759.810 8  -4051719.84845  24008562.080    24008573.6014
  20212654.299   -24485355.886 9 -19065449.87248  20212656.586    20212664.7454
  21286298.691   -19058773.240 9 -14822707.17447  21286299.828    21286307.9954
  21143881.857   -17751158.670 9 -13807841.62147  21143885.301    21143893.9144
  22117400.398   -12893935.745 8 -10020911.88547  22117406.212    22117414.4604
  23626147.078    -6444184.259 8  -5002962.08245  23626147.872    23626158.8284
 00  4 21  1 43  0.0000000  0  7 03 21 17 23 09 26 29
  24333534.685    -3119038.881 7  -2416509.06045  24333535.082    24333548.6164
  23993529.076    -5298743.546 8  -4113265.50145  23993532.305    23993543.7524
  20219342.732   -24450202.113 9 -19038057.31748  20219345.989    20219354.3794
  21279223.415   -19095949.171 9 -14851675.39747  21279225.119    21279233.2754
  21134248.074   -17801787.703 9 -13847292.75447  21134250.716    21134259.3174
  22134199.254   -12805672.843 8  -9952135.59647  22134201.681    22134210.4374
  23609954.935    -6529239.058 8  -5069238.35745  23609961.593    23609974.2304
 00  4 21  1 43 30.0000000  0  7 03 21 17 23 09 26 29
  24333073.330    -3121463.254 7  -2418398.13545  24333074.439    24333086.5284
  23978502.031    -5377725.775 8  -4174810.00445  23978501.639    23978514.2624
  20226149.062   -24414431.992 9 -19010184.49548  20226152.691    20226160.8734
  21272176.767   -19132973.839 9 -14880525.74847  21272179.245    21272187.4894
  21124717.129   -17851861.773 9 -13886311.44447  21124722.059    21124730.9254
  22151017.587   -12717275.084 8  -9883254.26047  22151023.016    22151032.0804
  23593809.453    -6614121.374 8  -5135380.20245  23593809.936    23593820.6654
 00  4 21  1 44  0.0000000  0  7 03 21 17 23 09 26 29
  24332713.408    -3123338.754 7  -2419859.52645  24332716.693    24332728.5354
  23963467.791    -5456716.164 8  -4236360.82545  23963469.985    23963482.4184
  20233074.101   -24378052.472 9 -18981836.81648  20233075.770    20233083.7994
  21265156.255   -19169858.308 9 -14909266.79947  21265159.961    21265168.6644
  21115293.693   -17901392.083 9 -13924906.42247  21115296.588    21115304.8884
  22167868.223   -12628740.943 8  -9814266.63647  22167870.690    22167878.7714
  23577687.601    -6698839.540 8  -5201394.11345  23577687.957    23577698.4614
 00  4 21  1 44 30.0000000  0  7 03 21 17 23 09 26 29
  24332454.832    -3124667.371 7  -2420894.79345  24332464.618    24332475.3484
  23948429.635    -5535722.624 8  -4297924.22346  23948436.214    23948448.2904
  20240110.481   -24341073.441 9 -18953021.98948  20240112.663    20240120.8084
  21258164.383   -19206612.459 9 -14937906.28547  21258166.383    21258174.7254
  21105976.912   -17950357.506 9 -13963061.24047  21105979.201    21105987.2644
  22184742.426   -12540059.655 8  -9745164.33046  22184746.132    22184754.9004
  23561599.100    -6783384.740 8  -5267273.30945  23561600.135    23561610.3004
 00  4 21  1 45  0.0000000  0  7 03 21 17 23 09 26 29
  24332308.461    -3125458.373 7  -2421511.15645  24332310.325    24332324.8744
  23933397.899    -5614748.986 8  -4359503.11745  23933397.825    23933409.7514
  20247260.077   -24303499.047 9 -18923743.25848  20247262.822    20247271.1884
  21251195.258   -19243232.795 9 -14966441.51947  21251197.675    21251206.2034
  21096766.225   -17998739.312 9 -14000761.29547  21096771.873    21096780.6324
  22201653.350   -12451199.935 8  -9675923.00346  22201655.603    22201664.2604
  23545538.806    -6867750.947 8  -5333012.98045  23545545.041    23545555.9164
 00  4 21  1 45 30.0000000  0  7 03 21 17 23 09 26 29
  24332257.021    -3125727.811 7  -2421721.06145  24332261.744    24332273.3814
  23918350.464    -5693797.100 8  -4421098.91045  23918355.076    23918366.9264
  20254526.368   -24265314.084 9 -18893988.75848  20254529.118    20254537.2714
  21244253.483   -19279709.059 9 -14994864.50947  21244256.465    21244264.5504
  21087671.812   -18046543.367 9 -14038011.14747  21087674.573    21087683.6834
  22218592.633   -12362163.013 8  -9606543.58446  22218598.706    22218607.4044
  23529525.512    -6951932.298 8  -5398608.63545  23529525.143    23529535.6284
 00  4 21  1 46  0.0000000  0  7 03 21 17 23 09 26 29
  24332306.612    -3125497.647 7  -2421541.68945  24332305.653    24332318.2384
  23903307.012    -5772868.618 8  -4482712.94845  23903308.355    23903319.7994
  20261907.319   -24226531.854 9 -18863768.85648  20261908.964    20261917.4344
  21237340.046   -19316043.428 9 -15023176.94747  21237342.151    21237350.0984
  21078689.924   -18093758.734 9 -14074802.28047  21078690.315    21078699.0474
  22235570.897   -12272962.061 8  -9537036.35646  22235572.473    22235581.8064
  23513541.722    -7035917.464 8  -5464051.41545  23513543.481    23513554.3294
 00  4 21  1 46 30.0000000  0  7 03 21 17 23 09 26 29
  24332437.653    -3124763.405 7  -2420969.51645  24332446.816    24332458.3754
  23888255.608    -5851954.196 8  -4544337.94045  23888259.276    23888269.6244
  20269399.406   -24187155.343 9 -18833085.88148  20269401.939    20269410.6774
  21230452.990   -19352225.780 9 -15051370.95647  21230456.718    21230464.8734
  21069819.081   -18140377.659 9 -14111128.64647  21069819.185    21069827.4794
  22252576.130   -12183598.524 8  -9467402.42646  22252578.245    22252587.7524
  23497590.556    -7119702.872 8  -5529338.57645  23497599.471    23497609.7214
 00  4 21  1 47  0.0000000  0  7 03 21 17 23 09 26 29
  24332678.936    -3123519.968 7  -2420000.56145  24332681.842    24332694.5304
  23873203.647    -5931051.996 8  -4605972.49145  23873206.423    23873217.4624
  20277003.511   -24147189.921 9 -18801944.00548  20277007.346    20277015.7934
  21223599.314   -19388251.275 9 -15079442.74147  21223601.596    21223609.4834
  21061053.193   -18186419.685 9 -14147005.50347  21061057.025    21061065.6694
  22269606.751   -12094090.035 8  -9397655.58046  22269611.007    22269620.4274
  23481692.404    -7203289.638 8  -5594470.90845  23481692.364    23481703.8354
 00  4 21  1 47 30.0000000  0  7 03 21 17 23 09 26 29
  24333008.343    -3121770.680 7  -2418637.45045  24333015.537    24333025.2044
  23858149.827    -6010165.505 8  -4667619.25045  23858152.142    23858163.3654
  20284718.014   -24106643.432 9 -18770349.34548  20284723.303    20284731.6554
  21216775.197   -19424115.141 9 -15107388.58648  21216777.079    21216784.9724
  21052402.730   -18231885.635 9 -14182433.46647  21052405.509    21052414.0494
  22286664.895   -12004447.500 8  -9327804.27046  22286669.857    22286679.0164
  23465824.942    -7286664.389 8  -5659438.06045  23465827.011    23465838.5424
 00  4 21  1 48  0.0000000  0  7 03 21 17 23 09 26 29
  24333444.588    -3119518.087 7  -2416882.18645  24333444.059    24333455.8364
  23843091.694    -6089298.269 8  -4729281.00645  23843092.213    23843104.3684
  20292545.371   -24065527.126 9 -18738310.67648  20292547.430    20292555.7754
  21209981.319   -19459813.480 9 -15135205.48948  21209984.198    21209991.7334
  21043862.195   -18276771.315 9 -14217409.25247  21043864.317    21043872.5014
  22303751.180   -11914670.375 8  -9257848.10646  22303754.101    22303761.9044
  23449998.516    -7369813.180 8  -5724229.11745  23450003.792    23450015.5204
 00  4 21  1 48 30.0000000  0  7 03 21 17 23 09 26 29
  24333964.460    -3116755.296 7  -2414729.31445  24333970.292    24333979.6064
  23828030.500    -6168446.655 8  -4790954.94445  23828030.729    23828042.7734
  20300480.008   -24023822.317 9 -18705813.43748  20300483.750    20300491.8254
  21203218.228   -19495349.813 9 -15162896.16748  21203221.583    21203229.4954
  21035426.177   -18321099.303 9 -14251950.49747  21035428.522    21035437.1354
  22320859.504   -11824756.359 8  -9187785.23946  22320863.972    22320871.9604
  23434220.945    -7452732.051 8  -5788841.02946  23434225.854    23434237.0564
 00  4 21  1 49  0.0000000  0  7 03 21 17 23 09 26 29
  24334592.415    -3113480.939 7  -2412177.83845  24334594.017    24334603.5314
  23812965.836    -6247617.892 8  -4852646.71545  23812965.688    23812975.6324
  20308528.502   -23981530.319 9 -18672858.63748  20308531.351    20308539.6234
  21196489.735   -19530713.165 9 -15190451.97648  21196492.190    21196499.9894
  21027098.041   -18364869.008 9 -14286056.69547  21027099.794    21027107.7384
  22337996.872   -11734711.914 8  -9117620.74746  22337998.926    22338006.5344
  23418490.475    -7535422.363 8  -5853274.84646  23418490.542    23418501.2404
 00  4 21  1 49 30.0000000  0  7 03 21 17 23 09 26 29
  24335310.726    -3109701.220 7  -2409232.55545  24335310.896    24335322.6924
  23797898.178    -6326805.180 8  -4914350.98545  23797896.983    23797907.0144
  20316688.590   -23938646.687 9 -18639442.81948  20316691.767    20316700.0784
  21189793.300   -19565897.017 9 -15217867.87648  21189796.700    21189804.9834
  21018880.261   -18408054.688 9 -14319707.82647  21018881.819    21018890.0124
  22355154.336   -11644531.361 8  -9047350.21446  22355159.581    22355167.9954
  23402796.870    -7617882.385 8  -5917529.24246  23402799.076    23402809.0844
 00  4 21  1 50  0.0000000  0  7 03 21 17 23 09 26 29
  24336123.783    -3105400.549 7  -2405881.36045  24336130.552    24336141.0214
  23782826.959    -6406001.407 8  -4976062.17445  23782825.764    23782837.4514
  20324962.926   -23895165.109 9 -18605561.07048  20324966.000    20324974.3774
  21183128.944   -19600918.001 9 -15245156.86648  21183132.249    21183140.6364
  21010771.383   -18450651.285 9 -14352899.93647  21010775.856    21010783.9144
  22372341.260   -11554230.056 8  -8976985.61646  22372343.460    22372351.3514
  23387143.379    -7700126.852 8  -5981615.69445  23387147.391    23387157.8084
 00  4 21  1 50 30.0000000  0  7 03 21 17 23 09 26 29
  24337049.111    -3100567.760 7  -2402115.56645  24337050.446    24337062.9734
  23767756.728    -6485189.362 8  -5037766.92346  23767756.927    23767768.3724
  20333349.719   -23851092.737 9 -18571218.97048  20333352.642    20333360.9784
  21176494.775   -19635790.508 9 -15272330.17548  21176496.659    21176504.5504
  21002777.460   -18492659.415 9 -14385633.48147  21002781.726    21002790.1524
  22389544.896   -11463816.165 8  -8906533.26546  22389548.452    22389557.1814
  23371534.347    -7782176.024 8  -6045549.93846  23371534.260    23371544.0324
 00  4 21  1 51  0.0000000  0  7 03 21 17 23 09 26 29
  24338066.324    -3095206.242 7  -2397937.74945  24338072.115    24338080.1344
  23752690.528    -6564362.186 8  -5099459.88746  23752691.473    23752701.9204
  20341847.532   -23806437.948 9 -18536423.03448  20341850.388    20341858.9724
  21169886.815   -19670516.198 9 -15299389.09748  21169888.909    21169896.3944
  20994901.980   -18534061.570 9 -14417894.84147  20994903.653    20994911.5754
  22406770.592   -11373301.845 8  -8836002.64846  22406772.592    22406781.3614
  23355950.521    -7864037.824 8  -6109338.20746  23355956.930    23355966.7134
 00  4 21  1 51 30.0000000  0  7 03 21 17 23 09 26 29
  24339189.469    -3089323.806 7  -2393353.98445  24339188.947    24339200.7794
  23737628.203    -6643514.684 8  -5161137.02946  23737629.336    23737639.2964
  20350456.442   -23761194.739 9 -18501168.59648  20350459.735    20350468.4584
  21163300.215   -19705110.993 9 -15326346.06348  21163305.140    21163313.1714
  20987138.686   -18574858.816 9 -14449684.85447  20987140.050    20987147.7524
  22424013.065   -11282693.842 8  -8765399.01246  22424014.924    22424023.9744
  23340414.743    -7945711.090 8  -6172979.57446  23340415.494    23340424.8664
 00  4 21  1 52  0.0000000  0  7 03 21 17 23 09 26 29
  24340401.593    -3082918.152 7  -2388362.54645  24340409.785    24340420.6444
  23722568.048    -6722653.172 8  -5222803.26746  23722568.912    23722579.8914
  20359178.636   -23715366.323 9 -18465458.15048  20359180.873    20359188.8924
  21156743.797   -19739575.994 9 -15353201.90948  21156746.526    21156754.6064
  20979485.749   -18615072.236 9 -14481019.94247  20979487.754    20979495.4074
  22441268.952   -11192004.535 8  -8694732.05446  22441272.473    22441281.2554
  23324899.155    -8027199.660 8  -6236477.04346  23324907.338    23324917.3304
 00  4 21  1 52 30.0000000  0  7 03 21 17 23 09 26 29
  24341727.978    -3076015.913 7  -2382984.15445  24341724.107    24341733.9174
  23707503.984    -6801785.713 8  -5284464.83246  23707510.892    23707520.9314
  20368011.537   -23668952.811 9 -18429291.77148  20368013.093    20368021.1754
  21150214.351   -19773890.271 9 -15379940.29448  21150216.512    21150224.7944
  20971943.828   -18654695.432 9 -14511895.10047  20971947.549    20971955.0294
  22458542.566   -11101220.430 8  -8623991.23146  22458547.917    22458557.0334
  23309435.499    -8108496.797 8  -6299825.34546  23309436.514    23309447.6544
 00  4 21  1 53  0.0000000  0  7 03 21 17 23 09 26 29
  24343121.951    -3068638.428 7  -2377235.42445  24343122.998    24343138.1764
  23692447.982    -6880930.595 8  -5346136.04146  23692449.715    23692459.7444
  20376953.692   -23621947.120 9 -18392663.93848  20376957.686    20376966.2414
  21143715.774   -19808039.751 9 -15406550.28348  21143717.852    21143726.3224
  20964520.994   -18693712.765 9 -14542298.16447  20964522.780    20964530.5444
  22475844.473   -11010326.762 8  -8553165.01946  22475845.119    22475853.6694
  23294005.638    -8189580.703 8  -6363007.48046  23294007.231    23294018.4034
 00  4 21  1 53 30.0000000  0  7 03 21 17 23 09 26 29
  24344615.041    -3060788.654 7  -2371118.66645  24344619.957    24344632.1374
  23677380.788    -6960098.672 8  -5407825.34346  23677385.863    23677395.0564
  20386012.988   -23574348.813 9 -18355574.32848  20386015.550    20386023.7634
  21137251.653   -19842011.808 9 -15433022.01548  21137253.265    21137261.4944
  20957207.414   -18732135.257 9 -14572237.71747  20957210.766    20957219.0054
  22493159.721   -10919312.189 8  -8482244.60546  22493164.154    22493173.5174
  23278617.103    -8270447.296 8  -6426020.30946  23278619.100    23278629.8954
 00  4 21  1 54  0.0000000  0  7 03 21 17 23 09 26 29
  24346198.316    -3052470.371 7  -2364636.85445  24346202.929    24346213.7804
  23662313.570    -7039287.473 8  -5469530.80446  23662316.127    23662325.2024
  20395183.403   -23526160.541 9 -18318025.00848  20395185.396    20395193.8114
  21130820.990   -19875799.978 9 -15459350.44348  21130823.794    21130832.3214
  20950008.239   -18769968.711 9 -14601718.26247  20950011.015    20950019.4464
  22510504.567   -10828168.610 8  -8411223.67446  22510508.486    22510517.8654
  23263266.746    -8351091.941 8  -6488860.18646  23263272.398    23263282.7994
 00  4 21  1 54 30.0000000  0  7 03 21 17 23 09 26 29
  24347870.026    -3043687.340 7  -2357792.88545  24347873.492    24347884.2614
  23647243.721    -7118491.172 8  -5531247.86246  23647242.293    23647252.7504
  20404465.418   -23477379.924 9 -18280014.16048  20404467.583    20404476.3024
  21124428.412   -19909404.370 9 -15485535.64448  21124429.375    21124437.2944
  20942921.911   -18807207.508 9 -14630735.44147  20942924.640    20942932.9924
  22527875.065   -10736891.912 8  -8340098.99846  22527878.187    22527886.9864
  23247967.803    -8431505.024 8  -6551519.62846  23247970.226    23247980.2484
 00  4 21  1 55  0.0000000  0  7 03 21 17 23 09 26 29
  24349631.571    -3034420.654 7  -2350572.01045  24349637.349    24349649.1894
  23632164.620    -7197705.116 8  -5592972.88846  23632167.680    23632179.2794
  20413860.411   -23428006.404 9 -18241541.31948  20413863.401    20413871.8684
  21118066.532   -19942830.716 9 -15511582.15048  21118068.302    21118076.2014
  20935943.691   -18843875.403 9 -14659307.78347  20935946.909    20935955.3674
  22545268.592   -10645486.755 8  -8268874.23046  22545271.517    22545280.3124
  23232710.577    -8511684.735 8  -6613997.21846  23232711.115    23232722.5284
 00  4 21  1 55 30.0000000  0  7 03 21 17 23 09 26 29
  24351490.617    -3024655.868 7  -2342963.00745  24351494.987    24351505.7504
  23617094.833    -7276924.759 8  -5654702.36046  23617094.322    23617103.5544
  20423369.158   -23378041.234 9 -18202607.45948  20423371.239    20423380.1444
  21111738.844   -19976083.043 9 -15537493.09948  21111740.584    21111748.7134
  20929071.515   -18879981.616 9 -14687442.45447  20929075.994    20929084.0454
  22562684.176   -10553967.309 8  -8197560.42046  22562687.032    22562696.1814
  23217490.804    -8591639.568 8  -6676299.57546  23217496.561    23217508.0884
 00  4 21  1 56  0.0000000  0  7 03 21 17 23 09 26 29
  24353449.844    -3014391.044 7  -2334964.38545  24353448.380    24353460.3334
  23602013.043    -7356148.083 8  -5716434.71946  23602018.721    23602028.7174
  20432987.802   -23327494.845 9 -18163220.68848  20432990.004    20432998.7044
  21105442.871   -20009160.656 9 -15563267.84948  21105446.190    21105454.6754
  20922313.903   -18915505.448 9 -14715123.31247  20922316.507    20922324.1984
  22580120.694   -10462338.051 8  -8126161.04246  22580124.153    22580133.0854
  23202321.293    -8671369.112 8  -6738426.37846  23202325.557    23202335.8974
 00  4 21  1 56 30.0000000  0  7 03 21 17 23 09 26 29
  24355492.118    -3003621.911 7  -2326572.81745  24355497.259    24355510.9574
  23586935.216    -7435380.923 8  -5778174.48546  23586940.825    23586951.4754
  20442714.455   -23276377.475 9 -18123388.97748  20442717.316    20442725.8424
  21099184.835   -20042063.641 9 -15588906.50348  21099185.159    21099193.1934
  20915667.635   -18950430.707 9 -14742337.76247  20915670.167    20915678.5214
  22597578.011   -10370599.529 8  -8054676.50746  22597581.169    22597589.5194
  23187192.954    -8750884.848 8  -6800386.58146  23187193.689    23187203.6244
 00  4 21  1 57  0.0000000  0  7 03 21 17 23 09 26 29
  24357646.076    -2992345.717 7  -2317786.14545  24357644.097    24357655.0524
  23571852.736    -7514628.126 8  -5839925.44646  23571859.791    23571870.9204
  20452550.396   -23224697.672 9 -18083118.99948  20452551.970    20452559.7814
  21092953.164   -20074795.210 9 -15614411.55248  21092956.159    21092964.5364
  20909136.353   -18984748.497 9 -14769078.85147  20909139.758    20909147.8454
  22615052.378   -10278753.096 8  -7983107.89046  22615059.439    22615068.2324
  23172096.436    -8830198.966 8  -6862189.64546  23172100.117    23172110.8384
 00  4 21  1 57 30.0000000  0  7 03 21 17 23 09 26 29
  24359878.408    -2980570.316 7  -2308610.46345  24359884.762    24359895.9454
  23556772.713    -7593895.268 8  -5901691.95546  23556775.921    23556787.7324
  20462487.494   -23172469.354 9 -18042421.60248  20462490.661    20462498.6004
  21086757.342   -20107360.335 9 -15639786.93648  21086759.103    21086767.6064
  20902726.409   -19018424.578 9 -14795319.90747  20902731.216    20902739.7024
  22632548.230   -10186809.014 8  -7911463.22146  22632555.625    22632564.6144
  23157042.151    -8909315.541 8  -6923838.77946  23157045.179    23157055.0604
 00  4 21  1 58  0.0000000  0  7 03 21 17 23 09 26 29
  24362219.717    -2968300.746 7  -2299049.69545  24362219.391    24362231.7224
  23541686.184    -7673184.098 8  -5963475.35746  23541687.417    23541698.9744
  20472531.473   -23119694.024 9 -18001297.97148  20472533.183    20472541.5294
  21080589.761   -20139760.109 9 -15665033.43548  21080593.485    21080601.7214
  20896445.161   -19051451.349 9 -14821054.99948  20896446.655    20896454.5334
  22650066.676   -10094761.326 8  -7839737.80946  22650071.742    22650080.7354
  23142019.779    -8988239.439 8  -6985337.79346  23142026.286    23142036.4284
 00  4 21  1 58 30.0000000  0  7 03 21 17 23 09 26 29
  24364638.790    -2955542.078 7  -2289107.82845  24364646.977    24364660.5424
  23526595.332    -7752486.825 8  -6025269.60746  23526597.465    23526607.9384
  20482678.469   -23066365.831 9 -17959743.53448  20482681.313    20482689.8774
  21074453.276   -20172004.861 9 -15690159.11048  21074456.923    21074465.7674
  20890281.468   -19083837.782 9 -14846291.14047  20890283.481    20890291.4524
  22667607.544   -10002611.893 8  -7767933.04546  22667606.949    22667615.0924
  23127042.194    -9066959.261 8  -7046677.79246  23127045.312    23127055.8604
 00  4 21  1 59  0.0000000  0  7 03 21 17 23 09 26 29
  24367168.394    -2942296.267 7  -2278786.39645  24367166.762    24367181.2184
  23511506.703    -7831787.075 8  -6087061.88846  23511506.494    23511517.6134
  20492935.225   -23012473.179 9 -17917749.27548  20492936.924    20492945.2124
  21068346.518   -20204098.876 9 -15715167.35748  21068350.047    21068358.3864
  20884239.649   -19115581.813 9 -14871026.70047  20884242.463    20884250.5614
  22685156.213    -9910377.632 8  -7696062.21946  22685158.121    22685167.8104
  23112105.290    -9145453.869 8  -7107842.28146  23112107.943    23112119.0874
 00  4 21  1 59 30.0000000  0  7 03 21 17 23 09 26 29
  24369779.917    -2928569.795 7  -2268090.42245  24369779.034    24369792.2054
  23496409.652    -7911078.567 8  -6148847.35546  23496416.411    23496429.0044
  20503300.142   -22958007.203 9 -17875308.26048  20503301.566    20503309.7084
  21062269.156   -20236037.505 9 -15740054.57348  21062272.443    21062280.1354
  20878319.852   -19146687.462 9 -14895264.80247  20878323.664    20878331.6404
  22702719.769    -9818056.136 8  -7624123.43546  22702726.198    22702735.7614
  23097213.484    -9223715.573 8  -7168825.26246  23097216.435    23097226.5934
 00  4 21  2  0  0.0000000  0  7 03 21 17 23 09 26 29
  24372472.053    -2914363.046 7  -2257020.20444  24372479.234    24372495.0374
  23481328.853    -7990338.639 8  -6210608.34946  23481334.160    23481346.0814
  20513775.278   -22902953.081 9 -17832408.94848  20513777.708    20513786.3014
  21056223.177   -20267820.330 9 -15764820.38148  21056224.780    21056232.0444
  20872519.269   -19177175.690 9 -14919021.80548  20872521.983    20872530.1504
  22720310.486    -9725647.158 8  -7552116.46446  22720311.629    22720319.3554
  23082369.575    -9301742.153 8  -7229625.05046  23082368.412    23082378.6234
 00  4 21  2  0 30.0000000  0  7 03 21 17 23 09 26 29
  24375266.578    -2899667.416 7  -2245569.07945  24375279.582    24375292.1294
  23466255.002    -8069563.727 8  -6272342.09046  23466258.579    23466270.4554
  20524362.281   -22847307.258 9 -17789048.57848  20524366.935    20524375.1624
  21050200.054   -20299450.197 9 -15789467.02048  21050205.404    21050212.8664
  20866835.988   -19207041.722 9 -14942293.98348  20866838.622    20866846.4244
  22737906.032    -9633163.643 8  -7480051.40246  22737910.411    22737920.0644
  23067563.029    -9379530.433 8  -7290239.15146  23067565.132    23067575.7174
 00  4 21  2  1  0.0000000  0  7 03 21 17 23 09 26 29
  24378169.091    -2884476.333 7  -2233731.88444  24378169.692    24378182.7194
  23451182.870    -8148775.803 8  -6334065.67146  23451184.628    23451196.7094
  20535066.884   -22791061.998 9 -17745221.10948  20535070.009    20535078.5544
  21044215.782   -20330913.883 9 -15813984.14648  21044218.016    21044225.9294
  20861271.908   -19236283.095 9 -14965079.43148  20861274.419    20861281.7774
  22755520.088    -9540601.388 8  -7407924.97346  22755524.400    22755533.9444
  23052799.472    -9457100.952 8  -7350683.55646  23052803.310    23052813.1864
 00  4 21  2  1 30.0000000  0  7 03 21 17 23 09 26 29
  24381147.870    -2868794.943 7  -2221512.59644  24381155.759    24381166.0454
  23436112.225    -8227986.457 8  -6395788.16346  23436111.740    23436122.3494
  20545882.476   -22734226.913 9 -17700934.03548  20545885.404    20545893.9984
  21038260.881   -20362202.048 9 -15838364.54148  21038264.179    21038271.8804
  20855823.532   -19264908.065 9 -14987384.56447  20855826.804    20855834.5294
  22773155.971    -9447950.136 8  -7335729.23046  22773155.655    22773164.7784
  23038079.180    -9534470.094 8  -7410971.02946  23038081.072    23038090.3254
 00  4 21  2  2  0.0000000  0  7 03 21 17 23 09 26 29
  24384236.974    -2852623.629 7  -2208911.60345  24384232.093    24384242.3244
  23421037.307    -8307200.803 8  -6457513.53746  23421038.431    23421047.3744
  20556809.056   -22676812.595 9 -17656195.61848  20556810.973    20556819.1504
  21032341.547   -20393312.301 9 -15862606.30348  21032344.228    21032351.9104
  20850494.535   -19292910.618 9 -15009204.70247  20850497.834    20850505.5654
  22790799.645    -9355218.332 8  -7263470.67846  22790802.140    22790810.8994
  23023395.303    -9611639.794 8  -7471103.12646  23023396.750    23023405.0454
 00  4 21  2  2 30.0000000  0  7 03 21 17 23 09 26 29
  24387387.937    -2835965.713 7  -2195931.46645  24387400.093    24387415.2384
  23405955.744    -8386440.412 8  -6519258.54446  23405958.694    23405969.0314
  20567841.388   -22618828.428 9 -17611013.16648  20567845.028    20567853.1244
  21026457.960   -20424229.109 9 -15886697.24148  21026461.193    21026468.3614
  20845285.750   -19320290.211 9 -15030539.43148  20845288.256    20845295.7674
  22808464.372    -9262399.788 8  -7191144.55046  22808465.278    22808474.2044
  23008745.623    -9688613.398 8  -7531082.41746  23008749.205    23008757.3344
 00  4 21  2  3  0.0000000  0  7 03 21 17 23 09 26 29
  24390658.045    -2818837.731 7  -2182585.00144  24390660.428    24390675.1024
  23390876.532    -8465686.750 8  -6581008.79446  23390878.669    23390887.9214
  20578980.886   -22560288.488 9 -17565397.64948  20578985.020    20578993.4174
  21020614.182   -20454944.706 9 -15910631.40548  21020616.050    21020623.6414
  20840192.496   -19347061.275 9 -15051399.96348  20840193.921    20840201.0604
  22826138.850    -9169490.516 8  -7118747.74246  22826145.038    22826154.0014
  22994135.037    -9765388.209 8  -7590906.81146  22994139.156    22994147.0664
 00  4 21  2  3 30.0000000  0  7 03 21 17 23 09 26 29
  24393998.734    -2801247.701 7  -2168878.49044  24394007.403    24394020.6654
  23375801.213    -8544915.833 8  -6642745.63546  23375802.371    23375812.7784
  20590222.448   -22501209.992 9 -17519362.49748  20590227.142    20590235.6944
  21014805.282   -20485466.139 9 -15934414.34748  21014807.406    21014815.6914
  20835211.058   -19373230.082 9 -15071791.19348  20835214.143    20835221.8214
  22843836.376    -9076507.760 8  -7046293.65146  22843839.102    22843846.8894
  22979564.085    -9841958.026 8  -7650571.47346  22979567.725    22979576.9944
 00  4 21  2  4  0.0000000  0  7 03 21 17 23 09 26 29
  24397441.025    -2783189.059 7  -2154806.83645  24397445.662    24397455.5304
  23360726.369    -8624122.084 8  -6704464.67846  23360729.787    23360739.4994
  20601570.156   -22441581.281 9 -17472898.62048  20601573.989    20601582.6934
  21009033.361   -20515798.846 9 -15958050.24148  21009035.660    21009044.0894
  20830348.410   -19398791.426 9 -15091709.08348  20830349.410    20830357.6684
  22861541.304    -8983452.319 8  -6973782.96046  22861546.176    22861555.3144
  22965032.781    -9918308.840 8  -7710065.51246  22965038.734    22965047.6154
 00  4 21  2  4 30.0000000  0  7 03 21 17 23 09 26 29
  24400962.714    -2764660.127 7  -2140368.70445  24400969.215    24400982.4134
  23345659.567    -8703301.414 8  -6766162.71846  23345662.670    23345671.6564
  20613025.566   -22381399.619 9 -17426003.86748  20613026.026    20613034.7884
  21003296.192   -20545948.285 9 -15981543.27748  21003298.424    21003306.8684
  20825596.580   -19423751.006 9 -15111158.04848  20825599.538    20825608.0334
  22879263.162    -8890328.463 8  -6901218.95346  22879267.753    22879276.6704
  22950550.260    -9994425.182 8  -7769376.83646  22950554.298    22950562.4824
 00  4 21  2  5  0.0000000  0  7 03 21 17 23 09 26 29
  24404585.864    -2745660.050 7  -2125563.43445  24404586.831    24404598.8324
  23330596.096    -8782445.734 8  -6827833.46546  23330601.376    23330611.4644
  20624577.412   -22320670.712 9 -17378682.68148  20624582.573    20624591.3024
  20997593.125   -20575924.282 9 -16004901.21748  20997594.042    20997602.3734
  20820963.721   -19448096.185 9 -15130128.28047  20820966.513    20820974.7294
  22896995.262    -8797151.304 8  -6828613.43846  22896998.283    22897007.5164
  22936110.302   -10070296.878 8  -7828497.53246  22936116.391    22936125.3664
 00  4 21  2  5 30.0000000  0  7 03 21 17 23 09 26 29
  24408291.540    -2726183.554 7  -2110386.94945  24408293.690    24408303.3424
  23315546.391    -8861568.141 8  -6889487.17546  23315545.716    23315554.3844
  20636241.769   -22259386.757 9 -17330928.99648  20636244.638    20636253.2674
  20991920.410   -20605721.850 9 -16028120.08148  20991923.488    20991931.7784
  20816452.238   -19471812.040 9 -15148608.12948  20816453.905    20816462.1834
  22914737.784    -8703916.705 8  -6755963.17846  22914740.284    22914749.2434
  22921723.119   -10145921.003 8  -7887425.30846  22921725.731    22921734.6854
 00  4 21  2  6  0.0000000  0  7 03 21 17 23 09 26 29
  24412086.496    -2706226.399 7  -2094835.94445  24412092.688    24412100.6614
  23300487.547    -8940678.422 8  -6951131.44646  23300490.515    23300500.0864
  20648009.184   -22197547.113 9 -17282742.29748  20648012.351    20648020.6514
  20986286.431   -20635333.350 9 -16051193.97148  20986288.734    20986297.1924
  20812060.523   -19494895.251 9 -15166595.01948  20812061.533    20812069.5474
  22932500.837    -8610609.151 8  -6683256.03546  22932495.815    22932504.2204
  22907378.717   -10221294.346 8  -7946157.62846  22907382.118    22907391.7574
 00  4 21  2  6 30.0000000  0  7 03 21 17 23 09 26 29
  24415981.685    -2685798.907 7  -2078918.41045  24415978.279    24415989.0984
  23285430.076    -9019784.194 8  -7012772.18546  23285436.440    23285447.3854
  20659877.801   -22135176.896 9 -17234142.17647  20659880.878    20659889.7474
  20980689.416   -20664752.682 9 -16074118.09048  20980690.472    20980698.7854
  20807785.568   -19517348.593 9 -15184091.09348  20807788.877    20807796.5884
  22950260.991    -8517234.672 8  -6610496.76246  22950265.236    22950273.7624
  22893084.501   -10296439.490 8  -8004712.14446  22893083.318    22893091.2754
 00  4 21  2  7  0.0000000  0  7 03 21 17 23 09 26 29
  24419940.427    -2664903.901 7  -2062636.62045  24419953.596    24419964.1974
  23270385.352    -9098878.572 8  -7074404.00246  23270385.232    23270395.7764
  20671845.947   -22072278.231 9 -17185130.27348  20671850.186    20671859.1834
  20975127.801   -20693973.134 9 -16096887.08848  20975129.960    20975138.1534
  20803635.970   -19539161.560 9 -15201088.16648  20803637.803    20803645.6074
  22968044.119    -8423785.939 8  -6537679.59246  22968047.210    22968056.0574
  22878814.636   -10371387.532 8  -8063113.12346  22878820.814    22878829.3874
 00  4 21  2  7 30.0000000  0  7 03 21 17 23 09 26 29
  24424016.208    -2643550.889 7  -2045997.95145  24424017.941    24424026.6374
  23255334.314    -9177967.791 8  -7136031.87146  23255335.884    23255345.2214
  20683920.240   -22008839.483 9 -17135697.52848  20683922.686    20683931.4804
  20969603.743   -20723001.291 9 -16119506.33848  20969605.831    20969614.2654
  20799604.602   -19560343.247 9 -15217593.34048  20799606.748    20799614.8324
  22985838.496    -8330259.702 8  -6464802.00146  22985844.747    22985852.7114
  22864594.131   -10446141.966 8  -8121363.22746  22864594.978    22864604.4424
 00  4 21  2  8  0.0000000  0  7 03 21 17 23 09 26 29
  24428169.661    -2621743.081 7  -2029004.87545  24428166.695    24428176.9874
  23240283.709    -9257058.682 8  -7197661.06446  23240284.029    23240294.2914
  20696090.649   -21944864.238 9 -17085846.72848  20696096.657    20696105.0634
  20964115.445   -20751844.135 9 -16141981.33548  20964117.595    20964125.8484
  20795693.425   -19580893.043 9 -15233606.13048  20795696.395    20795704.1614
  23003651.623    -8236680.101 8  -6391882.83846  23003653.267    23003661.8314
  22850401.825   -10520703.055 8  -8179462.64546  22850406.138    22850415.1634
 00  4 21  2  8 30.0000000  0  7 03 21 17 23 09 26 29
  24432400.176    -2599486.212 7  -2011661.81345  24432402.458    24432414.8694
  23225227.608    -9336147.254 8  -7259288.38746  23225233.271    23225244.4244
  20708372.955   -21880337.032 9 -17035565.86147  20708375.747    20708383.6114
  20958662.061   -20780503.236 9 -16164313.18848  20958663.899    20958671.9474
  20791905.798   -19600797.806 9 -15249116.30348  20791908.664    20791916.8324
  23021466.959    -8143064.191 8  -6318935.40646  23021467.635    23021476.4844
  22836252.077   -10595056.975 8  -8237400.62246  22836257.166    22836265.3734
 00  4 21  2  9  0.0000000  0  7 03 21 17 23 09 26 29
  24436719.108    -2576782.286 7  -1993970.48345  24436723.744    24436734.7754
  23210185.877    -9415232.683 8  -7320913.28546  23210185.185    23210194.9614
  20720759.850   -21815238.611 9 -16984839.85247  20720763.216    20720771.6684
  20953242.658   -20808968.614 9 -16186493.94848  20953247.129    20953254.8244
  20788239.737   -19620052.829 9 -15264120.19248  20788244.508    20788252.5094
  23039283.039    -8049412.029 8  -6245959.74646  23039288.961    23039296.9984
  22822147.837   -10669172.636 8  -8295152.95246  22822153.264    22822162.0274
 00  4 21  2  9 30.0000000  0  7 03 21 17 23 09 26 29
  24441118.834    -2553633.678 7  -1975932.59645  24441128.817    24441139.1864
  23195134.473    -9494316.710 8  -7382537.11546  23195135.723    23195146.1514
  20733257.523   -21749565.367 9 -16933665.91147  20733260.561    20733269.0274
  20947865.771   -20837233.547 9 -16208518.59248  20947868.581    20947876.3084
  20784702.161   -19638663.473 9 -15278621.95648  20784703.370    20784710.5674
  23057110.866    -7955733.945 8  -6172963.85346  23057115.612    23057123.9814
  22808098.802   -10743018.470 8  -8352695.02446  22808100.818    22808110.0574
 00  4 21  2 10  0.0000000  0  7 03 21 17 23 09 26 29
  24445619.559    -2530027.104 7  -1957537.88745  24445619.665    24445631.2344
  23180082.746    -9573389.396 8  -7444152.08646  23180087.819    23180099.2954
  20745860.991   -21683334.326 9 -16882057.34447  20745864.080    20745872.2844
  20942529.069   -20865279.398 9 -16230372.47248  20942531.435    20942539.4094
  20781282.833   -19656625.314 9 -15292618.14148  20781285.187    20781292.9074
  23074943.827    -7862016.504 8  -6099937.30846  23074948.728    23074959.0964
  22794096.200   -10816598.713 8  -8410030.11746  22794098.465    22794107.7404
 00  4 21  2 10 30.0000000  0  7 03 21 17 23 09 26 29
  24450195.240    -2505960.146 7  -1938784.40845  24450199.160    24450212.0864
  23165039.672    -9652443.708 8  -7505752.76246  23165043.859    23165055.0084
  20758570.919   -21616549.843 9 -16830017.53647  20758572.784    20758581.4934
  20937233.356   -20893102.379 9 -16252052.71748  20937237.072    20937244.6634
  20777983.946   -19673947.777 9 -15306116.13248  20777988.714    20777996.3954
  23092788.915    -7768234.070 8  -6026860.10746  23092795.058    23092804.7534
  22780146.234   -10889920.264 8  -8467163.66946  22780145.560    22780154.9604
 00  4 21  2 11  0.0000000  0  7 03 21 17 23 09 26 29
  24454863.889    -2481430.135 7  -1919670.14745  24454868.955    24454879.3024
  23150003.298    -9731470.937 8  -7567332.33546  23150006.911    23150016.5834
  20771378.634   -21549234.427 9 -16777564.05447  20771382.334    20771391.0934
  20931980.514   -20920712.858 9 -16273567.32048  20931982.893    20931990.6474
  20774809.453   -19690637.602 9 -15319121.16448  20774812.848    20774820.6404
  23110647.065    -7674382.252 8  -5953728.83646  23110654.450    23110663.4684
  22766234.411   -10963006.502 8  -8524113.84146  22766238.270    22766247.1574
 00  4 21  2 11 30.0000000  0  7 03 21 17 23 09 26 29
  24459620.556    -2456433.419 7  -1900192.19945  24459624.359    24459636.9234
  23134971.136    -9810466.509 8  -7628887.25846  23134973.912    23134983.1464
  20784286.058   -21481400.960 9 -16724706.85447  20784290.391    20784299.2384
  20926763.340   -20948129.731 9 -16294931.04648  20926765.516    20926773.0714
  20771757.593   -19706692.138 9 -15331631.15248  20771757.828    20771765.4894
  23128523.884    -7580461.312 8  -5880543.74346  23128526.614    23128536.5034
  22752366.962   -11035886.708 8  -8580903.46046  22752369.629    22752378.9694
 00  4 21  2 12  0.0000000  0  7 03 21 17 23 09 26 29
  24464466.326    -2430967.237 7  -1880348.44745  24464469.792    24464481.9424
  23119942.403    -9889444.266 8  -7690428.25046  23119944.496    23119954.8914
  20797293.361   -21413055.113 9 -16671450.40447  20797296.470    20797304.8924
  20921580.061   -20975365.532 9 -16316153.71748  20921582.652    20921590.5694
  20768819.431   -19722113.196 9 -15343647.52248  20768823.056    20768830.7854
  23146411.923    -7486464.824 8  -5807299.82846  23146414.482    23146423.1064
  22738532.459   -11108576.559 8  -8637544.71446  22738536.646    22738546.0494
 00  4 21  2 12 30.0000000  0  7 03 21 17 23 09 26 29
  24469399.492    -2405041.685 7  -1860146.70545  24469402.686    24469416.9024
  23104915.218    -9968405.053 8  -7751956.02146  23104918.653    23104930.1064
  20810399.776   -21344185.489 9 -16617785.80747  20810401.899    20810410.3984
  20916429.018   -21002441.560 9 -16337251.84248  20916430.482    20916438.1594
  20766008.402   -19736892.736 9 -15355164.01648  20766010.442    20766018.4064
  23164311.592    -7392404.077 8  -5734005.81546  23164313.489    23164322.7494
  22724736.909   -11181078.465 8  -8694039.57046  22724739.024    22724748.5014
 00  4 21  2 13  0.0000000  0  7 03 21 17 23 09 26 29
  24474418.337    -2378655.669 7  -1839586.14345  24474423.603    24474437.8204
  23089897.500   -10047343.597 8  -7813466.47546  23089898.752    23089907.9034
  20823601.829   -21274799.484 9 -16563718.82647  20823605.749    20823614.4014
  20911304.998   -21029358.367 9 -16358225.91248  20911308.103    20911315.9454
  20763315.873   -19751030.473 9 -15366180.40148  20763319.954    20763327.9034
  23182217.714    -7298288.991 8  -5660669.42846  23182222.955    23182231.6524
  22710976.430   -11253389.398 8  -8750385.59346  22710978.528    22710988.6684
 00  4 21  2 13 30.0000000  0  7 03 21 17 23 09 26 29
  24479530.498    -2351810.387 7  -1818667.71145  24479533.302    24479545.6864
  23074878.540   -10126268.625 8  -7874966.41346  23074879.753    23074888.7714
  20836907.933   -21204891.458 9 -16509245.08647  20836909.109    20836917.6524
  20906217.430   -21056094.671 9 -16379059.33448  20906220.389    20906227.8444
  20760747.137   -19764536.128 9 -15376704.26548  20760750.034    20760757.4254
  23200140.191    -7204116.469 8  -5587288.32246  23200143.478    23200151.8484
  22697257.744   -11325486.427 8  -8806564.94346  22697259.142    22697268.9814
 00  4 21  2 14  0.0000000  0  7 03 21 17 23 09 26 29
  24484732.265    -2324503.280 7  -1797389.39845  24484730.671    24484741.6354
  23059863.765   -10205168.215 8  -7936446.50946  23059865.430    23059874.0984
  20850308.616   -21134474.277 9 -16454374.59147  20850309.415    20850317.6684
  20901166.084   -21082643.181 9 -16399746.40748  20901168.085    20901175.9804
  20758298.924   -19777406.720 9 -15386733.26648  20758300.909    20758308.2074
  23218068.836    -7109884.229 8  -5513860.61746  23218074.677    23218084.9874
  22683583.106   -11397347.469 8  -8862560.40946  22683584.249    22683593.7274
 00  4 21  2 14 30.0000000  0  7 03 21 17 23 09 26 29
  24490002.606    -2296747.873 7  -1775761.83245  24490012.156    24490022.4384
  23044857.952   -10284014.808 8  -7997885.34346  23044860.770    23044870.5554
  20863799.960   -21063553.793 9 -16399111.92047  20863804.804    20863813.1514
  20896151.721   -21108993.199 9 -16420278.85048  20896153.595    20896161.7614
  20755969.624   -19789636.474 9 -15396262.92548  20755973.628    20755980.8994
  23236012.687    -7015600.522 8  -5440392.85746  23236017.785    23236025.9784
  22669952.479   -11468962.103 8  -8918363.89146  22669956.476    22669965.8304
 00  4 21  2 15  0.0000000  0  7 03 21 17 23 09 26 29
  24495377.565    -2268556.445 7  -1753794.52345  24495374.063    24495389.3104
  23029866.683   -10362798.789 8  -8059275.31846  23029868.980    23029878.2174
  20877390.725   -20992141.186 9 -16343465.78447  20877394.289    20877402.8594
  20891178.125   -21135132.513 9 -16440647.10148  20891179.849    20891187.7564
  20753766.041   -19801228.598 9 -15405295.73548  20753767.464    20753775.3694
  23253956.403    -6921277.538 8  -5366894.42346  23253966.032    23253974.2804
  22656372.698   -11540311.463 8  -8973960.65446  22656378.877    22656387.4454
 00  4 21  2 15 30.0000000  0  7 03 21 17 23 09 26 29
  24500816.969    -2239943.931 7  -1731498.97244  24500820.719    24500831.8614
  23014884.117   -10441516.482 8  -8120613.66846  23014889.570    23014899.2644
  20891078.409       25104.83919
  20886243.876   -21161062.132 9 -16460851.92248  20886245.462    20886253.5174
  20751683.810   -19812161.773 9 -15413815.06848  20751687.056    20751695.1334
  23271915.408    -6826925.656 8  -5293373.49946  23271920.986    23271929.5594
  22642850.070   -11611386.866 8  -9029343.97046  22642854.120    22642863.4064
 00  4 21  2 16  0.0000000  0  6 03 21 23 09 26 29
  24506336.642    -2210923.899 7  -1708885.97844  24506341.990    24506352.7054
  22999922.316   -10520160.108 8  -8181894.33646  22999923.863    22999933.3754
  20881346.135   -21186792.523 9 -16480901.55448  20881349.097    20881357.2974
  20749729.856   -19822426.666 9 -15421813.66648  20749734.074    20749741.6204
  23289879.646    -6732556.807 8  -5219839.43746  23289878.787    23289887.8904
  22629375.487   -11682208.371 8  -9084529.42046  22629377.334    22629386.6304
 00  4 21  2 16 30.0000000  0  7 03 21 17 23 09 26 29
  24511938.753    -2181502.729 7  -1685960.45444  24511941.445    24511951.2894
  22984967.876   -10598749.476 8  -8243132.70146  22984968.038    22984978.4214
  20918753.497       69219.53019     38518.51257  20918746.601    20918761.0984
  20876488.082   -21212313.659 9 -16500788.15148  20876492.434    20876500.6794
  20747901.276   -19832037.089 9 -15429302.27848  20747905.194    20747912.7054
  23307835.812    -6638181.259 8  -5146300.11646  23307838.366    23307846.6034
  22615943.556   -11752790.835 8  -9139528.57546  22615945.313    22615954.3254
 00  4 21  2 17  0.0000000  0  7 03 21 17 23 09 26 29
  24517611.311    -2151662.576 7  -1662708.43444  24517621.541    24517632.4554
  22970012.910   -10677312.477 8  -8304350.52346  22970018.079    22970027.8904
  20932733.635      142730.959 9     95800.12847  20932737.988    20932746.8764
  20871674.362   -21237621.688 9 -16520508.65748  20871676.672    20871684.5514
  20746196.859   -19841000.088 9 -15436286.41148  20746199.467    20746206.9274
  23325797.616    -6543803.677 8  -5072759.18746  23325797.683    23325806.0824
  22602555.837   -11823140.418 8  -9194346.30246  22602558.363    22602567.2014
 00  4 21  2 17 30.0000000  0  6 03 21 23 09 26 29
  24523381.771    -2121374.636 7  -1639107.45444  24523384.326    24523397.2284
  22955066.733   -10755872.591 8  -8365566.11546  22955068.897    22955078.3484
  20866901.064   -21262709.376 9 -16540057.46048  20866902.628    20866910.3794
  20744610.904   -19849331.573 9 -15442778.45248  20744614.098    20744621.6214
  23343754.393    -6449411.708 8  -4999207.12746  23343759.431    23343769.2294
  22589209.114   -11893278.409 8  -9248999.15446  22589212.324    22589219.9974
 00  4 21  2 18  0.0000000  0  7 03 21 17 23 09 26 29
  24529232.122    -2090632.184 7  -1615152.30744  24529237.653    24529246.8524
  22940112.157   -10834439.503 8  -8426786.97546  22940117.650    22940127.8024
  20961036.923       85741.43519     50994.05257  20961033.016    20961043.5184
  20862169.526   -21287568.671 9 -16559428.31748  20862172.087    20862179.8364
  20743139.263   -19857061.890 9 -15448802.06048  20743142.991    20743150.4104
  23361725.577    -6354995.372 8  -4925636.06846  23361727.326    23361735.7954
  22575900.846   -11963213.240 8  -9303493.73546  22575903.459    22575912.0234
 00  4 21  2 18 30.0000000  0  7 03 21 17 23 09 26 29
  24535169.387    -2059428.744 7  -1590837.94044  24535167.629    24535185.9774
  22925162.490   -10913017.574 8  -8488016.51146  22925164.100    22925174.9384
  20975330.067      160895.247 9    109555.42447  20975332.596    20975340.9144
  20857480.874   -21312206.870 9 -16578626.87648  20857483.497    20857491.0944
  20741783.649   -19864190.575 9 -15454356.86648  20741786.235    20741794.0744
  23379693.618    -6260549.537 8  -4852041.96946  23379698.703    23379708.1244
  22562634.607   -12032928.733 8  -9357817.36446  22562636.903    22562645.5224
 00  4 21  2 19  0.0000000  0  7 03 21 17 23 09 26 29
  24541195.441    -2027777.703 7  -1566174.88644  24541197.584    24541207.2194
  22910212.624   -10991586.834 8  -8549239.21646  22910214.054    22910223.3384
  20989732.624      236570.684 9    168523.24747  20989732.792    20989741.3594
  20852832.916   -21336632.266 9 -16597659.64748  20852835.407    20852843.0214
  20740545.186   -19870706.804 9 -15459434.42948  20740546.364    20740554.3344
  23397679.725    -6166065.325 8  -4778418.00446  23397679.236    23397688.2184
  22549409.208   -12102421.523 8  -9411967.47346  22549413.127    22549421.5304
 00  4 21  2 19 30.0000000  0  7 03 21 17 23 09 26 29
  24547291.309    -1995708.981 7  -1541186.25944  24547297.924    24547307.3764
  22895267.118   -11070133.603 8  -8610444.38146  22895266.422    22895275.8174
  21004226.177      312746.160 9    227880.72247  21004228.911    21004237.7734
  20848223.146   -21360853.694 9 -16616533.48448  20848226.298    20848233.8284
  20739422.063   -19876606.337 9 -15464031.45148  20739423.531    20739431.4414
  23415664.958    -6071536.695 8  -4704759.39846  23415667.263    23415677.1564
  22536224.254   -12171697.660 8  -9465948.79146  22536230.013    22536239.1734
 00  4 21  2 20  0.0000000  0  7 03 21 17 23 09 26 29
  24553472.890    -1963258.438 7  -1515900.14644  24553472.467    24553486.1384
  22880327.823   -11148634.681 8  -8671613.99146  22880328.243    22880337.4064
  21018811.925      389395.719 9    287607.61247  21018814.817    21018823.2054
  20843650.773   -21384877.422 9 -16635253.27548  20843654.697    20843662.2104
  20738419.656   -19881864.343 9 -15468128.57148  20738422.938    20738430.8974
  23433653.520    -5976974.281 8  -4631074.50146  23433661.924    23433671.8644
  22523084.724   -12240746.355 8  -9519752.85146  22523089.419    22523099.2574
 00  4 21  2 20 30.0000000  0  7 03 21 17 23 09 26 29
  24559719.370    -1930430.227 7  -1490319.75644  24559721.493    24559730.8864
  22865397.349   -11227092.343 8  -8732749.70246  22865398.193    22865407.5694
  21033487.255      466509.780 9    347696.46647  21033488.936    21033497.7314
  20839117.540   -21408702.222 9 -16653818.02148  20839120.726    20839128.6584
  20737548.234   -19886450.819 9 -15471702.43548  20737550.320    20737558.2834
  23451656.914    -5882389.417 8  -4557372.02046  23451660.249    23451669.9784
  22509992.255   -12309567.669 8  -9573379.71646  22509993.756    22510002.3884
 00  4 21  2 21  0.0000000  0  7 03 21 17 23 09 26 29
  24566039.715    -1897220.866 7  -1464442.41844  24566041.378    24566050.5434
  22850474.484   -11305507.741 8  -8793852.51846  22850476.978    22850485.3994
  21048243.473      544076.302 9    408137.87647  21048249.293    21048258.2894
  20834628.338   -21432304.641 9 -16672209.48948  20834629.492    20834637.2364
  20736802.414   -19890366.968 9 -15474753.96348  20736804.982    20736812.7174
  23469664.655    -5787787.033 8  -4483655.93346  23469663.178    23469671.8984
  22496940.293   -12378162.418 8  -9626830.04446  22496941.228    22496949.3454
 00  4 21  2 21 30.0000000  0  7 03 21 17 23 09 26 29
  24572433.793    -1863617.646 7  -1438258.13644  24572430.895    24572445.6784
  22835559.399   -11383888.740 8  -8854928.55446  22835561.824    22835569.5084
  21063089.608      622092.166 9    468929.40647  21063095.156    21063104.3034
  20830178.548   -21455678.951 9 -16690423.25748  20830181.749    20830189.0284
  20736185.865   -19893603.949 9 -15477276.26048  20736189.127    20736196.9454
  23487670.304    -5693175.422 8  -4409932.65846  23487666.411    23487676.3104
  22483927.732   -12446528.716 8  -9680102.39746  22483930.876    22483939.0894
 00  4 21  2 22  0.0000000  0  7 03 21 17 23 09 26 29
  24578909.945    -1829599.154 7  -1411750.20944  24578907.583    24578921.4654
  22820649.540   -11462233.976 8  -8915976.71346  22820652.645    22820661.2744
  21078024.630      700569.368 9    530080.44147  21078029.003    21078038.0844
  20825776.834   -21478814.378 9 -16708450.88448  20825779.103    20825786.6514
  20735701.002   -19896151.275 9 -15479261.17148  20735704.130    20735712.1894
  23505667.467    -5598554.179 8  -4336201.91845  23505671.963    23505682.3484
  22470963.213   -12514657.615 8  -9733189.74146  22470966.619    22470974.8964
 00  4 21  2 22 30.0000000  0  7 03 21 17 23 09 26 29
  24585461.267    -1795146.875 7  -1384904.31244  24585465.067    24585475.2384
  22805748.141   -11540542.130 8  -8976995.95746  22805750.677    22805759.9154
  21093049.777      779524.949 9    591604.22747  21093053.840    21093063.1004
  20821421.971   -21501702.034 9 -16726285.40948  20821423.577    20821431.4454
  20735345.289   -19898023.250 9 -15480719.82548  20735347.685    20735356.0364
  23523681.342    -5503921.271 8  -4262462.00245  23523680.844    23523689.6884
  22458047.523   -12582540.312 8  -9786085.25746  22458048.856    22458057.3854
 00  4 21  2 23  0.0000000  0  7 03 21 17 23 09 26 29
  24592097.649    -1760267.090 7  -1357725.29544  24592097.058    24592112.6944
  22790855.329   -11618800.091 8  -9037976.09846  22790857.903    22790867.2724
  21108168.914      858970.323 9    653509.67447  21108171.868    21108180.5574
  20817109.386   -21524354.602 9 -16743936.73148  20817112.700    20817120.9004
  20735114.974   -19899240.778 9 -15481668.53348  20735116.341    20735124.2604
  23541689.483    -5409264.027 8  -4188703.13545  23541693.705    23541702.9294
  22445175.367   -12650172.401 8  -9838785.46346  22445178.434    22445186.4594
 00  4 21  2 23 30.0000000  0  7 03 21 17 23 09 26 29
  24598812.310    -1724972.090 7  -1330222.68444  24598817.564    24598828.3764
  22775974.332   -11697010.773 8  -9098919.38646  22775976.480    22775984.5124
  21123382.657      938922.356 9    715809.92747  21123386.087    21123395.2644
  20812841.098   -21546794.385 9 -16761422.23748  20812842.579    20812850.6064
  20735007.535   -19899802.541 9 -15482106.24748  20735009.576    20735016.9704
  23559700.425    -5314576.550 8  -4114920.69545  23559711.332    23559722.0164
  22432347.133   -12717565.511 8  -9891299.45746  22432353.227    22432362.6004
 00  4 21  2 24  0.0000000  0  7 03 21 17 23 09 26 29
  24605607.637    -1689257.002 7  -1302392.76444  24605614.970    24605624.6384
  22761100.285   -11775167.189 8  -9159820.37346  22761102.177    22761110.5634
  21138695.397     1019390.809 9    778512.57047  21138698.954    21138707.7424
  20808610.451   -21569021.896 9 -16778742.44648  20808613.256    20808620.8264
  20735020.260   -19899736.460 9 -15482054.73848  20735022.129    20735029.9174
  23577736.295    -5219862.749 8  -4041117.80546  23577736.240    23577745.5944
  22419574.532   -12784703.602 8  -9943614.75346  22419578.586    22419586.5174
 00  4 21  2 24 30.0000000  0  7 03 21 17 23 09 26 29
  24612495.691    -1653135.579 7  -1274246.16244  24612489.088    24612499.9434
  22746241.567   -11853265.621 8  -9220676.25146  22746240.698    22746249.2374
  21154109.166     1100375.063 9    841617.13547  21154109.987    21154118.7724
  20804419.682   -21591049.176 9 -16795906.47948  20804421.692    20804428.8694
  20735148.288   -19899062.771 9 -15481529.76848  20735149.967    20735158.0954
  23595763.338    -5125123.404 8  -3967294.95545  23595764.755    23595773.1704
  22406846.953   -12851586.486 8  -9995731.22946  22406850.474    22406858.9214
 00  4 21  2 25  0.0000000  0  7 03 21 17 23 09 26 29
  24619432.335    -1616612.154 7  -1245786.31944  24619438.470    24619449.3174
  22731387.004   -11931315.519 8  -9281494.29546  22731388.482    22731397.0924
  21169616.144     1181868.282 9    905118.30447  21169617.542    21169626.4054
  20800264.108   -21612879.683 9 -16812917.19548  20800267.303    20800274.4004
  20735390.482   -19897779.205 9 -15480529.56948  20735394.566    20735402.2594
  23613798.486    -5030353.494 8  -3893448.34045  23613797.254    23613806.5034
  22394162.674   -12918233.057 8 -10047663.53746  22394168.138    22394176.4344
 00  4 21  2 25 30.0000000  0  7 03 21 17 23 09 26 29
  24626465.574    -1579674.151 7  -1217003.40244  24626464.650    24626479.4314
  22716544.204   -12009312.001 8  -9342270.68546  22716546.676    22716555.2374
  21185220.448     1263864.820 9    969011.65847  21185220.887    21185230.1474
  20796153.891   -21634482.589 9 -16829750.58548  20796156.369    20796163.8394
  20735752.990   -19895876.691 9 -15479047.06948  20735756.606    20735764.0824
  23631828.380    -4935576.889 8  -3819596.47945  23631832.930    23631842.6674
  22381529.817   -12984642.874 8 -10099411.33046  22381531.029    22381539.2864
 00  4 21  2 26  0.0000000  0  7 03 21 17 23 09 26 29
  24633575.680    -1542330.109 7  -1187904.19144  24633573.246    24633583.9574
  22701712.463   -12087239.136 8  -9402993.02646  22701717.398    22701725.7494
  21200913.203     1346345.616 9   1033282.36147  21200916.515    21200925.2174
  20792089.440   -21655839.372 9 -16846392.24948  20792092.392    20792100.0594
  20736236.033   -19893347.795 9 -15477076.47848  20736237.807    20736245.0894
  23649865.156    -4840803.584 8  -3745747.23145  23649868.017    23649877.7534
  22368935.020   -13050805.159 8 -10150966.24246  22368940.184    22368949.1284
 00  4 21  2 26 30.0000000  0  7 03 21 17 23 09 26 29
  24640747.159    -1504605.298 7  -1158508.22144  24640753.060    24640762.7684
  22686898.151   -12165099.262 8  -9463663.17446  22686901.076    22686909.0434
  21216697.164     1429285.340 9   1097910.66447  21216699.797    21216708.1544
  20788071.042   -21676954.451 9 -16862845.55748  20788074.124    20788081.9894
  20736842.010   -19890156.358 9 -15474589.62348  20736845.184    20736852.6874
  23667896.284    -4746033.523 8  -3671900.57545  23667902.189    23667911.6034
  22356388.422   -13116743.471 8 -10202346.64446  22356392.195    22356401.9414
 00  4 21  2 27  0.0000000  0  7 03 21 17 23 09 26 29
  24648004.034    -1466500.602 7  -1128816.20544  24648003.802    24648013.1054
  22672095.212   -12242896.369 8  -9524284.16746  22672096.506    22672104.1504
  21232566.670     1512677.264 9   1162891.34547  21232568.472    21232577.5624
  20784098.452   -21697823.229 9 -16879106.94948  20784102.781    20784110.8424
  20737579.547   -19886287.330 9 -15471574.78048  20737581.266    20737589.2954
  23685927.190    -4651283.027 8  -3598069.11345  23685930.978    23685942.8834
  22343884.399   -13182461.432 8 -10253555.37046  22343887.173    22343895.9404
 00  4 21  2 27 30.0000000  0  6 21 17 23 09 26 29
  22657301.596   -12320624.857 8  -9584851.73546  22657304.755    22657313.6044
  21248515.985     1596512.582 9   1228217.51147  21248521.534    21248530.4924
  20780173.730   -21718459.751 9 -16895187.35048  20780176.059    20780183.8394
  20738442.785   -19881738.429 9 -15468030.16748  20738446.685    20738454.7614
  23703956.203    -4556560.759 8  -3524259.75445  23703958.085    23703967.3444
  22331421.394   -13247945.239 8 -10304581.61546  22331425.529    22331434.3434
 00  4 21  2 28  0.0000000  0  6 21 17 23 09 26 29
  22642519.003   -12398297.507 8  -9645375.76246  22642524.743    22642533.6974
  21264551.537     1680778.431 8   1293879.15447  21264556.927    21264566.1744
  20776283.700   -21738897.411 9 -16911112.78448  20776286.714    20776294.5454
  20739438.465   -19876516.057 9 -15463960.77248  20739440.565    20739448.0644
  23721979.878    -4461844.090 8  -3450454.60745  23721982.191    23721991.7624
  22319000.423   -13313205.705 8 -10355433.81146  22319006.818    22319016.0434
 00  4 21  2 28 30.0000000  0  7 15 21 17 23 09 26 29
  24242024.274     -990186.98617   -736828.80155  24242029.273    24242043.2554
  22627747.415   -12475923.705 8  -9705863.61046  22627752.604    22627761.2854
  21280672.416     1765487.588 9   1359886.23847  21280676.561    21280685.7904
  20772432.098   -21759140.581 9 -16926886.69048  20772434.737    20772442.2044
  20740556.630   -19870635.026 9 -15459378.14448  20740559.824    20740567.0974
  23740002.867    -4367133.969 8  -3376654.54945  23740005.144    23740015.1634
  22306626.197   -13378247.580 8 -10406115.70446  22306629.730    22306637.8094
 00  4 21  2 29  0.0000000  0  7 15 21 17 23 09 26 29
  24221942.985    -1095760.809 7   -819093.97545  24221941.131    24221952.6294
  22612988.400   -12553506.213 8  -9766317.43246  22612989.556    22612997.7324
  21296883.562     1850664.490 9   1426257.79647  21296885.712    21296894.2224
  20768622.025   -21779165.667 9 -16942490.65648  20768624.123    20768631.4734
  20741791.523   -19864126.326 9 -15454306.40948  20741797.990    20741806.1734
  23758022.836    -4272427.313 8  -3302857.23845  23758027.056    23758038.1504
  22294292.409   -13443056.552 8 -10456616.11846  22294296.871    22294305.0314
 00  4 21  2 29 30.0000000  0  7 15 21 17 23 09 26 29
  24201888.869    -1201129.595 7   -901199.34945  24201889.321    24201901.8844
  22598229.805   -12631040.378 8  -9826733.59146  22598234.600    22598242.3884
  21313184.367     1936311.000 9   1492995.28347  21313184.097    21313192.7414
  20764853.744   -21798960.736 9 -16957915.39448  20764857.070    20764864.8364
  20743154.725   -19856991.755 9 -15448746.98748  20743155.705    20743163.4604
  23776047.992    -4177704.774 8  -3229047.54946  23776052.674    23776062.2984
  22282002.214   -13507638.789 8 -10506939.86146  22282006.901    22282014.8724
 00  4 21  2 30  0.0000000  0  7 15 21 17 23 09 26 29
  24181877.658    -1306290.380 7   -983142.68145  24181877.604    24181890.5844
  22583488.965   -12708527.941 8  -9887113.43346  22583490.148    22583497.7884
  21329568.570     2022436.584 9   1560106.08647  21329572.501    21329581.7894
  20761136.932   -21818501.271 9 -16973141.79548  20761138.536    20761146.2204
  20744628.843   -19849233.581 9 -15442701.65648  20744632.055    20744639.8244
  23794075.957    -4082966.493 8  -3155225.57645  23794080.963    23794090.5554
  22269755.789   -13571996.069 8 -10557088.30346  22269760.007    22269769.0984
 00  4 21  2 30 30.0000000  0  7 15 21 17 23 09 26 29
  24161903.629    -1411240.414 7  -1064921.79545  24161904.759    24161918.6244
  22568752.500   -12785961.404 8  -9947451.18246  22568754.393    22568763.2494
  21346051.265     2109053.875 9   1627600.02947  21346055.469    21346064.4664
  20757469.371   -21837765.834 9 -16988153.11548  20757472.722    20757480.0994
  20746226.276   -19840846.857 9 -15436166.54448  20746228.306    20746235.8954
  23812102.636    -3988225.290 8  -3081401.31345  23812109.045    23812118.9194
  22257553.644   -13636118.304 8 -10607053.60546  22257558.094    22257567.0234
 00  4 21  2 31  0.0000000  0  7 15 21 17 23 09 26 29
  24141973.708    -1515976.812 7  -1146534.44045  24141974.947    24141986.9984
  22554025.964   -12863343.601 8 -10007748.93846  22554028.783    22554037.7554
  21362628.021     2196149.800 9   1695466.92647  21362629.117    21362638.3814
  20753855.102   -21856762.483 9 -17002955.67048  20753857.782    20753865.2924
  20747941.291   -19831824.788 9 -15429136.35248  20747944.956    20747952.9844
  23830140.769    -3893469.383 8  -3007565.65245  23830140.689    23830150.1384
  22245398.773   -13700006.129 8 -10656836.26747  22245401.713    22245409.4034
 00  4 21  2 31 30.0000000  0  7 15 21 17 23 09 26 29
  24122083.139    -1620496.712 7  -1227978.39445  24122084.999    24122098.7874
  22539313.069   -12940671.780 8 -10068004.60946  22539313.281    22539322.1344
  21379287.967     2283706.923 8   1763693.20247  21379290.818    21379299.8084
  20750288.574   -21875511.159 9 -17017564.99948  20750290.108    20750297.4754
  20749780.519   -19822156.769 9 -15421602.82348  20749784.673    20749792.4294
  23848175.836    -3798702.916 8  -2933721.75345  23848173.597    23848183.8024
  22233284.649   -13763666.254 8 -10706441.48746  22233286.438    22233294.4354
 00  4 21  2 32  0.0000000  0  7 15 21 17 23 09 26 29
  24102233.655    -1724797.364 7  -1309251.48245  24102237.484    24102250.5414
  22524605.909   -13017947.442 8 -10128219.35246  22524608.390    22524616.7044
  21396034.799     2371707.417 9   1832264.95847  21396036.798    21396045.9884
  20746763.893   -21894023.260 9 -17031989.97348  20746767.319    20746774.4404
  20751742.446   -19811848.918 9 -15413570.71748  20751746.339    20751753.7944
  23866209.350    -3703943.520 8  -2859883.37645  23866207.010    23866215.9974
  22221215.027   -13827082.534 8 -10755856.70846  22221219.041    22221226.5624
 00  4 21  2 32 30.0000000  0  7 15 21 17 23 09 26 29
  24082429.900    -1828875.806 7  -1390351.41145  24082430.983    24082444.0674
  22509909.174   -13095171.938 8 -10188394.22146  22509912.626    22509922.1804
  21412860.658     2460135.326 8   1901169.76347  21412864.107    21412873.0194
  20743283.269   -21912314.191 9 -17046242.62648  20743286.700    20743293.7304
  20753825.094   -19800906.744 9 -15405044.33648  20753828.477    20753836.4544
  23884233.710    -3609189.545 8  -2786049.14545  23884237.379    23884245.7244
  22209195.444   -13890256.007 8 -10805082.71646  22209196.684    22209205.6234
 00  4 21  2 33  0.0000000  0  7 15 21 17 23 09 26 29
  24062664.617    -1932729.428 7  -1471276.10745  24062668.224    24062680.6454
  22495223.133   -13172339.910 8 -10248525.06246  22495227.848    22495237.6014
  21429768.016     2548973.330 8   1970394.13747  21429769.377    21429778.5524
  20739845.789   -21930385.271 9 -17060323.98448  20739847.883    20739855.1354
  20756027.562   -19789332.072 9 -15396025.09848  20756031.140    20756039.1644
  23902258.477    -3514442.113 8  -2712219.98245  23902265.215    23902275.7494
  22197221.676   -13953188.406 8 -10854120.86046  22197221.591    22197230.1584
 00  4 21  2 33 30.0000000  0  7 15 21 17 23 09 26 29
  24042952.961    -2036355.245 7  -1552023.35545  24042950.632    24042961.5844
  22480553.342   -13249446.541 8 -10308608.05947  22480555.673    22480565.0994
  21446748.423     2638221.890 8   2039938.41847  21446752.961    21446762.0514
  20736451.631   -21948223.073 9 -17074223.57848  20736453.674    20736461.2884
  20758351.880   -19777122.753 9 -15386511.33048  20758354.188    20758362.2124
  23920292.857    -3419717.628 8  -2638408.77745  23920292.784    23920300.7244
  22185290.321   -14015869.525 8 -10902963.19046  22185293.627    22185301.1654
 00  4 21  2 34  0.0000000  0  7 15 21 17 23 09 26 29
  24023269.078    -2139750.314 7  -1632590.80245  24023275.226    24023285.8894
  22465889.508   -13326487.812 8 -10368640.10847  22465895.001    22465904.2714
  21463812.470     2727882.701 8   2109803.91847  21463814.970    21463824.1584
  20733102.491   -21965816.189 9 -17087932.50848  20733105.594    20733113.3084
  20760794.754   -19764280.782 9 -15376504.58448  20760797.935    20760805.8764
  23938312.766    -3325018.731 8  -2564617.44745  23938313.729    23938323.0834
  22173412.158   -14078300.913 8 -10951610.94646  22173413.155    22173421.5534
 00  4 21  2 34 30.0000000  0  7 15 21 17 23 09 26 29
  24003641.458    -2242911.908 7  -1712976.28345  24003643.236    24003654.2514
  22451246.834   -13403458.033 8 -10428616.80246  22451248.038    22451256.6984
  21480951.776     2817969.141 8   2180001.08047  21480957.717    21480967.0944
  20729804.732   -21983150.959 9 -17101440.07348  20729806.739    20729814.4474
  20763360.913   -19750799.417 9 -15365999.60948  20763363.501    20763371.2664
  23956329.967    -3230336.873 8  -2490839.42545  23956331.190    23956340.6464
  22161574.491   -14140500.128 8 -11000077.79547  22161577.013    22161585.1584
 00  4 21  2 35  0.0000000  0  7 15 21 17 23 09 26 29
  23984063.435    -2345837.044 8  -1793177.55545  23984058.130    23984068.6174
  22436613.278   -13480346.182 8 -10488529.54446  22436615.989    22436625.5094
  21498181.240     2908485.462 8   2250533.21247  21498182.366    21498191.4994
  20726556.973   -22000214.631 9 -17114736.45348  20726559.597    20726567.6334
  20766050.814   -19736672.672 9 -15354991.73948  20766052.021    20766059.6064
  23974340.883    -3135674.774 8  -2417076.78245  23974344.864    23974354.6184
  22149780.174   -14202465.903 8 -11048362.75347  22149786.125    22149792.6834
 00  4 21  2 35 30.0000000  0  7 15 21 17 23 09 26 29
  23964517.450    -2448522.918 8  -1873192.42745  23964516.894    23964527.7904
  22421999.866   -13557146.090 8 -10548373.53147  22422001.571    22422011.0954
  21515487.570     2999442.174 8   2321408.50147  21515490.993    21515500.3274
  20723361.553   -22017004.863 9 -17127819.78248  20723364.551    20723372.6854
  20768857.145   -19721903.110 9 -15343482.97548  20768861.795    20768870.0224
  23992352.703    -3041031.606 8  -2343328.87945  23992354.676    23992365.0794
  22138034.466   -14264197.135 8 -11096464.96947  22138039.129    22138046.0504
 00  4 21  2 36  0.0000000  0  7 15 21 17 23 09 26 29
  23945014.253    -2550966.737 8  -1953018.67345  23945022.541    23945033.4444
  22407403.799   -13633846.816 8 -10608140.28247  22407406.197    22407415.4904
  21532877.020     3090828.333 9   2392618.41247  21532881.410    21532890.5654
  20720216.837   -22033526.246 9 -17140693.61748  20720220.743    20720228.4634
  20771788.319   -19706498.776 9 -15331479.59048  20771793.568    20771801.7594
  24010359.464    -2946399.973 8  -2269589.99445  24010362.890    24010372.5954
  22126328.208   -14325707.558 8 -11144395.09947  22126333.090    22126340.5414
 00  4 21  2 36 30.0000000  0  7 15 21 17 23 09 26 29
  23925570.515    -2653165.435 7  -2032653.85345  23925574.420    23925585.8664
  22392827.801   -13710438.736 8 -10667822.27447  22392831.713    22392839.6034
  21550347.227     3182642.458 8   2464161.82547  21550353.054    21550362.4524
  20717126.836   -22049777.970 9 -17153357.25048  20717128.390    20717135.8224
  20774842.946   -19690461.612 9 -15318983.08148  20774845.403    20774853.3234
  24028360.020    -2851779.222 8  -2195859.69845  24028367.893    24028378.1524
  22114667.144   -14386990.567 8 -11192148.02147  22114671.611    22114678.7024
 00  4 21  2 37  0.0000000  0  7 15 21 17 23 09 26 29
  23906170.465    -2755116.081 8  -2112095.74845  23906174.607    23906184.7544
  22378271.650   -13786922.948 8 -10727420.31047  22378276.688    22378285.6744
  21567901.820     3274871.709 8   2536028.70347  21567903.618    21567912.6944
  20714083.422   -22065763.518 9 -17165813.53048  20714086.436    20714093.6544
  20778012.389   -19673804.858 9 -15306003.78247  20778014.468    20778022.6974
  24046364.888    -2757184.726 8  -2122149.79045  24046368.497    24046379.0714
  22103053.933   -14448031.093 8 -11239712.00547  22103056.491    22103063.0334
 00  4 21  2 37 30.0000000  0  7 15 21 17 23 09 26 29
  23886822.815    -2856816.036 8  -2191342.35945  23886821.450    23886832.5964
  22363740.538   -13863303.321 8 -10786937.38847  22363741.785    22363751.2164
  21585529.754     3367517.034 8   2608219.80847  21585533.444    21585542.7644
  20711091.429   -22081494.540 9 -17178071.51248  20711093.135    20711100.4514
  20781300.061   -19656529.190 9 -15292542.21147  20781302.566    20781309.9294
  24064358.240    -2662623.434 8  -2048465.78245  24064363.400    24064372.9404
  22091480.681   -14508831.079 8 -11287088.54847  22091485.850    22091494.3884
 00  4 21  2 38  0.0000000  0  7 15 21 17 23 09 26 29
  23867510.562    -2958262.198 7  -2270391.13845  23867517.100    23867527.5734
  22349222.173   -13939584.983 8 -10846377.59947  22349225.783    22349234.7954
  21603237.191     3460573.370 8   2680731.15447  21603241.697    21603250.8624
  20708142.391   -22096982.541 9 -17190140.08948  20708145.719    20708153.2584
  20784706.880   -19638627.844 9 -15278593.09847  20784709.006    20784716.8414
  24082353.957    -2568092.857 8  -1974805.67445  24082351.845    24082362.2544
  22079958.725   -14569394.835 8 -11334281.01147  22079960.858    22079969.1914
 00  4 21  2 38 30.0000000  0  7 15 21 17 23 09 26 29
  23848263.346    -3059451.867 8  -2349240.05845  23848260.966    23848270.4204
  22334720.609   -14015784.571 8 -10905753.84347  22334725.120    22334733.7784
  21621023.571     3554040.987 8   2753563.00847  21621028.128    21621036.8874
  20705241.037   -22112230.344 9 -17202021.43848  20705244.109    20705251.8604
  20788230.136   -19620095.505 9 -15264152.29747  20788234.762    20788243.3224
  24100326.571    -2473591.403 8  -1901168.30245  24100335.062    24100345.3024
  22068480.738   -14629708.048 8 -11381278.25047  22068483.935    22068491.3754
 00  4 21  2 39  0.0000000  0  7 15 21 17 23 09 26 29
  23829053.844    -3160382.072 8  -2427886.83445  23829054.542    23829063.9004
  22320237.345   -14091908.875 8 -10965071.46647  22320240.286    22320248.5924
  21638889.062     3647911.214 8   2826708.57347  21638891.193    21638899.8504
  20702384.039   -22127244.436 9 -17213720.73248  20702386.778    20702394.7334
  20791878.930   -19600927.106 9 -15249215.86647  20791883.214    20791891.1564
  24118302.611    -2379110.308 7  -1827546.71745  24118315.111    24118324.1124
  22057050.622   -14689776.110 8 -11428084.47347  22057052.964    22057059.8644
 00  4 21  2 39 30.0000000  0  7 15 21 17 23 09 26 29
  23809890.997    -3261049.967 8  -2506329.20245  23809898.429    23809908.1894
  22305765.954   -14167958.943 8 -11024331.16747  22305767.706    22305776.6774
  21656829.456     3742193.794 8   2900175.44747  21656832.245    21656841.3144
  20699572.545   -22142027.797 9 -17225240.19648  20699573.631    20699581.3724
  20795650.986   -19581111.612 9 -15233775.20548  20795653.901    20795661.9454
  24136292.433    -2284632.334 8  -1753927.64445  24136294.196    24136302.5724
  22045663.811   -14749607.910 8 -11474706.58747  22045667.066    22045675.0614
 00  4 21  2 40  0.0000000  0  7 15 21 17 23 09 26 29
  23790794.566    -3361452.589 8  -2584564.84945  23790792.627    23790803.1484
  22291307.567   -14243938.216 8 -11083535.65747  22291309.666    22291318.7584
  21674842.753     3836871.630 8   2973950.32047  21674849.097    21674858.2624
  20696805.270   -22156561.500 9 -17236565.16048  20696807.916    20696815.7424
  20799544.953   -19560659.610 9 -15217838.56947  20799545.398    20799553.5184
  24154268.857    -2190147.782 8  -1680303.35145  24154274.033    24154282.5064
  22034326.074   -14809201.082 8 -11521142.76247  22034326.937    22034335.8914
 00  4 21  2 40 30.0000000  0  7 15 21 17 23 09 26 29
  23771727.127    -3461587.257 7  -2662591.68545  23771735.890    23771748.4024
  22276860.687   -14319844.148 8 -11142683.03847  22276864.974    22276873.6324
  21692938.629     3931942.740 8   3048031.60647  21692940.590    21692950.2614
  20694091.280   -22170827.948 9 -17247681.90748  20694093.515    20694100.7514
  20803552.986   -19539583.591 9 -15201415.69647  20803556.759    20803564.3154
  24172245.050    -2095670.976 8  -1606685.10345  24172251.512    24172261.9324
  22023026.227   -14868552.703 8 -11567390.68447  22023031.632    22023040.9574
 00  4 21  2 41  0.0000000  0  7 15 21 17 23 09 26 29
  23752721.327    -3561450.863 7  -2740407.32745  23752731.829    23752744.0684
  22262436.655   -14395663.987 9 -11201763.36647  22262437.273    22262445.5064
  21711104.869     4027427.137 8   3122434.96847  21711110.448    21711119.9614
  20691427.187   -22184822.337 9 -17258586.64648  20691430.181    20691437.4814
  20807683.100   -19517883.878 9 -15184506.81747  20807686.012    20807693.1374
  24190221.460    -2001208.987 7  -1533078.37545  24190226.514    24190236.1814
  22011779.915   -14927669.225 8 -11613455.42047  22011782.931    22011790.6774
 00  4 21  2 41 30.0000000  0  7 15 21 17 23 09 26 29
  23733792.158    -3661040.482 8  -2818009.45845  23733782.639    23733793.3614
  22248019.571   -14471410.285 9 -11260786.37847  22248023.149    22248031.3814
  21729358.241     4123325.675 8   3197161.03547  21729360.021    21729368.4484
  20688817.909   -22198536.938 9 -17269273.32448  20688820.350    20688827.4744
  20811928.332   -19495566.457 9 -15167116.60647  20811932.527    20811940.1884
  24208192.796    -1906774.745 7  -1459493.30245  24208196.220    24208207.3594
  22000577.237   -14986543.401 8 -11659331.37047  22000579.815    22000587.4164
 00  4 21  2 42  0.0000000  0  7 15 21 17 23 09 26 29
  23714887.318    -3760353.418 8  -2895396.02345  23714883.667    23714894.1404
  22233619.490   -14547086.435 8 -11319754.78547  22233622.040    22233630.9034
  21747684.742     4219634.542 8   3272206.82847  21747686.940    21747695.7024
  20686262.110   -22211969.032 9 -17279739.86848  20686264.417    20686271.6444
  20816294.757   -19472636.472 9 -15149249.07647  20816295.984    20816303.6664
  24226152.637    -1812375.927 8  -1385935.85445  24226159.756    24226170.7044
  21989421.399   -15045173.886 8 -11705017.39447  21989423.006    21989430.9284
 00  4 21  2 42 30.0000000  0  7 15 21 17 23 09 26 29
  23696027.626    -3859386.970 8  -2972564.94745  23696036.951    23696046.7564
  22219235.150   -14622687.248 9 -11378664.47047  22219235.682    22219244.6344
  21766088.877     4316362.526 8   3347579.20947  21766093.747    21766102.9754
  20683759.904   -22225125.726 9 -17289991.80948  20683760.699    20683768.0594
  20820774.670   -19449082.440 9 -15130895.27047  20820777.615    20820785.7834
  24244113.204    -1718024.075 8  -1312414.97845  24244115.622    24244124.4804
  21978308.085   -15103567.731 8 -11750519.03847  21978310.459    21978318.8074
 00  4 21  2 43  0.0000000  0  7 15 21 17 23 09 26 29
  23677243.302    -3958138.039 8  -3049513.78045  23677245.332    23677256.3154
  22204861.564   -14698214.267 8 -11437516.63047  22204863.540    22204872.3364
  21784572.138     4413492.740 8   3423265.01847  21784576.642    21784586.1074
  20681305.451   -22238012.940 9 -17300033.75048  20681308.147    20681315.6984
  20825381.173   -19424895.338 9 -15112048.17448  20825380.785    20825387.9514
  24262061.344    -1623713.525 8  -1238926.31745  24262061.797    24262071.7954
  21967240.686   -15161729.532 8 -11795839.85647  21967242.338    21967251.0644
 00  4 21  2 43 30.0000000  0  7 15 21 17 23 09 26 29
  23658499.811    -4056603.667 7  -3126240.13745  23658507.169    23658520.8344
  22190503.832   -14773658.129 8 -11496304.06447  22190506.990    22190514.8984
  21803129.229     4510989.649 8   3499236.55046  21803129.450    21803139.3304
  20678904.438   -22250626.713 9 -17309862.63948  20678908.020    20678915.2324
  20830103.180   -19400077.257 9 -15092709.40748  20830103.659    20830111.3174
  24279995.514    -1529450.577 8  -1165474.68745  24280000.261    24280008.7114
  21956215.869   -15219668.415 8 -11840986.98147  21956217.732    21956225.7544
 00  4 21  2 44  0.0000000  0  7 15 21 17 23 09 26 29
  23639817.247    -4154781.035 7  -3202741.86045  23639824.624    23639836.7754
  22176166.221   -14848999.234 8 -11555011.41047  22176169.133    22176177.9344
  21821745.395     4608841.440 8   3575484.63847  21821750.666    21821760.0274
  20676555.436   -22262975.192 9 -17319484.79748  20676558.069    20676565.0874
  20834945.218   -19374626.422 9 -15072877.58648  20834946.818    20834954.3764
  24297919.453    -1435236.977 7  -1092061.50945  24297927.983    24297937.9424
  21945226.109   -15277399.885 8 -11885972.49547  21945231.474    21945240.1404
 00  4 21  2 44 30.0000000  0  7 15 21 17 23 09 26 29
  23621193.719    -4252667.071 8  -3279016.60145  23621198.502    23621208.5654
  22161852.855   -14924228.258 8 -11613631.38947  22161854.425    22161862.5994
  21840432.610     4707034.802 8   3651998.87747  21840436.199    21840445.9604
  20674255.736   -22275062.896 9 -17328903.77148  20674257.854    20674265.0304
  20839907.847   -19348540.729 9 -15052551.07048  20839911.174    20839918.6154
  24315840.543    -1341079.771 7  -1018692.30645  24315845.677    24315855.3684
  21934280.012   -15334926.198 8 -11930798.13947  21934284.033    21934292.4394
 00  4 21  2 45  0.0000000  0  7 15 21 17 23 09 26 29
  23602624.455    -4350259.055 8  -3355062.24845  23602626.804    23602637.0304
  22147556.044   -14999343.473 8 -11672162.72747  22147560.582    22147569.0444
  21859185.466     4805567.362 8   3728777.41747  21859186.702    21859195.9814
  20672004.817   -22286889.551 9 -17338119.31748  20672007.194    20672014.9124
  20844991.718   -19321833.970 9 -15031740.60748  20844993.171    20845000.7854
  24333745.038    -1246970.470 8   -945360.40945  24333755.130    24333764.2344
  21923375.009   -15392235.796 8 -11975454.91247  21923378.943    21923387.1044
 00  4 21  2 45 30.0000000  0  7 15 21 17 23 09 26 29
  23584105.201    -4447553.877 8  -3430876.27045  23584111.788    23584122.8614
  22133283.557   -15074350.289 8 -11730609.60047  22133286.904    22133295.7364
  21878003.064     4904457.965 8   3805834.97047  21878004.774    21878013.8454
  20669802.430   -22298456.690 9 -17347132.64848  20669806.134    20669813.6194
  20850189.744   -19294512.922 9 -15010451.48248  20850192.026    20850199.8024
  24351650.155    -1152906.954 8   -872064.11745  24351654.605    24351664.4284
  21912513.013   -15449312.424 8 -12019930.16447  21912517.628    21912524.8374
 00  4 21  2 46  0.0000000  0  7 15 21 17 23 09 26 29
  23565651.361    -4544548.837 8  -3506456.63545  23565654.463    23565666.0624
  22119033.225   -15149254.264 8 -11788976.25147  22119032.830    22119041.8804
  21896892.063     5003729.618 8   3883189.43647  21896895.462    21896904.7094
  20667651.595   -22309760.006 9 -17355940.40548  20667654.944    20667662.4784
  20855503.084   -19266588.130 9 -14988691.90548  20855506.196    20855513.6274
  24369543.453    -1058890.848 8   -798804.80245  24369544.507    24369554.9904
  21901703.581   -15506137.377 8 -12064209.30547  21901704.289    21901711.5824
 00  4 21  2 46 30.0000000  0  7 15 21 17 23 09 26 29
  23547255.890    -4641240.966 8  -3581801.00545  23547256.273    23547265.7374
  22104794.827   -15224048.400 8 -11847257.29747  22104799.898    22104809.0364
  21915858.625     5103394.854 8   3960850.58247  21915861.316    21915871.1944
  20665553.656   -22320782.356 9 -17364529.23948  20665557.721    20665565.0214
  20860929.979   -19238063.291 9 -14966464.74848  20860934.079    20860941.5414
  24387422.127     -964914.343 8   -725576.39045  24387427.788    24387437.8174
  21890939.558   -15562682.086 8 -12108270.08347  21890943.273    21890950.4744
 00  4 21  2 47  0.0000000  0  8 15 21 17 23 09 26 29 05
  23528913.443    -4737627.296 8  -3656907.12445  23528914.198    23528924.6524
  22090584.354   -15298733.599 8 -11905453.51347  22090587.853    22090595.5154
  21934901.407     5203456.753 8   4038820.81746  21934902.382    21934912.2084
  20663512.694   -22331510.234 9 -17372888.65048  20663516.006    20663523.6204
  20866472.085   -19208948.141 9 -14943777.62048  20866474.417    20866482.3184
  24405298.086     -870968.069 7   -652371.52945  24405304.521    24405314.6324
  21880235.575   -15618933.813 8 -12152102.56947  21880239.371    21880247.1484
  24579710.563      -76599.08317
 00  4 21  2 47 30.0000000  0  8 15 21 17 23 09 26 29 05
  23510629.374    -4833704.916 8  -3731772.69945  23510629.973    23510640.2804
  22076397.740   -15373300.754 8 -11963557.74847  22076397.808    22076406.0194
  21954015.111     5303913.922 8   4117099.05047  21954018.977    21954028.6234
  20661528.005   -22341947.339 9 -17381021.50548  20661530.162    20661537.7364
  20872125.667   -19179235.408 9 -14920624.84448  20872128.826    20872136.0514
  24423176.299     -777051.725 7   -579190.03545  24423176.291    24423186.8014
  21869587.809   -15674900.783 8 -12195713.17447  21869589.532    21869596.9074
  24564387.528     -157170.976 7   -105245.84155  24564389.542    24564401.9734
 00  4 21  2 48  0.0000000  0  8 15 21 17 23 09 26 29 05
  23492404.977    -4929470.928 8  -3806395.37745  23492405.890    23492417.8894
  22062228.300   -15447733.734 8 -12021557.39847  22062233.062    22062242.0744
  21973201.996     5404749.356 8   4195672.04547  21973207.122    21973217.6874
  20659597.476   -22352089.052 9 -17388924.16248  20659600.187    20659607.8094
  20877894.369   -19148925.903 9 -14897007.04748  20877896.263    20877903.7504
  24441037.592     -683151.627 7   -506021.19045  24441044.533    24441054.8434
  21858985.777   -15730608.124 8 -12239121.44747  21858988.883    21858995.7594
  24549059.747     -237679.635 7   -167979.64945  24549069.904    24549083.2714
 00  4 21  2 48 30.0000000  0  8 15 21 17 23 09 26 29 05
  23474239.445    -5024922.652 8  -3880773.18545  23474243.182    23474253.3514
  22048092.659   -15522039.799 8 -12079458.24947  22048093.707    22048102.3014
  21992460.823     5505943.357 8   4274524.43547  21992464.237    21992473.8844
  20657721.336   -22361945.385 9 -17396604.42848  20657724.539    20657732.2874
  20883778.417   -19118007.592 9 -14872914.85348  20883779.836    20883787.5454
  24458918.456     -589251.825 7   -432852.53245  24458912.994    24458923.7844
  21848427.571   -15786082.793 8 -12282348.39747  21848431.697    21848439.2904
  24533757.853     -318122.559 7   -230662.30345  24533762.192    24533773.8814
 00  4 21  2 49  0.0000000  0  8 15 21 17 23 09 26 29 05
  23456138.449    -5120057.168 8  -3954903.81545  23456138.429    23456149.0474
  22033970.866   -15596237.570 8 -12137274.63847  22033975.390    22033983.3074
  22011782.170     5607482.453 8   4353645.74846  22011785.900    22011796.2154
  20655898.831   -22371532.379 9 -17404074.78848  20655900.405    20655907.7114
  20889777.366   -19086475.135 9 -14848344.11748  20889780.331    20889787.8274
  24476778.228     -495363.085 7   -359692.52045  24476779.285    24476790.1224
  21837911.098   -15841352.659 8 -12325415.75747  21837914.455    21837921.6684
  24518467.177     -398490.568 7   -293286.55644  24518467.014    24518480.4324
 00  4 21  2 49 30.0000000  0  8 15 21 17 23 09 26 29 05
  23438092.484    -5214871.363 8  -4028784.84845  23438096.697    23438106.5284
  22019875.784   -15670324.011 8 -12195004.24847  22019876.140    22019885.0054
  22031171.601     5709369.342 8   4433038.02746  22031174.797    22031184.2374
  20654123.130   -22380859.144 9 -17411342.35048  20654125.420    20654132.7034
  20895896.370   -19054320.165 9 -14823288.29347  20895898.956    20895906.7234
  24494639.938     -401490.822 7   -286545.39945  24494643.780    24494653.7744
  21827427.970   -15896438.041 8 -12368339.36847  21827432.206    21827439.0274
  24503189.553     -478781.617 7   -355850.80645  24503190.107    24503203.5854
 00  4 21  2 50  0.0000000  0  8 15 21 17 23 09 26 29 05
  23420111.560    -5309362.388 8  -4102414.02945  23420113.470    23420124.9134
  22005796.275   -15744305.149 8 -12252651.83247  22005797.873    22005806.7564
  22050623.099     5811593.414 8   4512693.09446  22050627.195    22050636.5544
  20652399.249   -22389920.030 9 -17418402.74648  20652400.976    20652408.4884
  20902133.851   -19021540.168 9 -14797745.44447  20902136.926    20902144.6104
  24512493.323     -307650.602 7   -213423.18845  24512500.331    24512510.7934
  21816984.356   -15951333.381 9 -12411114.89847  21816986.435    21816992.7034
  24487916.590     -559008.568 7   -418365.14845  24487921.569    24487935.1264
 00  4 21  2 50 30.0000000  0  8 15 21 17 23 09 26 29 05
  23402192.833    -5403527.398 8  -4175789.19545  23402196.142    23402203.8894
  21991738.314   -15818188.086 8 -12310222.93847  21991738.297    21991746.9684
  22070141.356     5914151.628 8   4592608.51246  22070143.147    22070153.4234
  20650725.683   -22398707.258 9 -17425249.94048  20650728.971    20650736.3754
  20908492.992   -18988128.685 9 -14771710.52647  20908494.751    20908502.4494
  24530347.588     -213869.885 8   -140347.39245  24530347.449    24530357.5424
  21806576.990   -16006017.143 8 -12453725.56447  21806580.209    21806586.7534
  24472667.210     -639174.601 7   -480831.99144  24472665.482    24472681.7454
 00  4 21  2 51  0.0000000  0  8 15 21 17 23 09 26 29 05
  23384341.251    -5497363.454 8  -4248908.04845  23384339.946    23384349.4754
  21977697.396   -15891964.992 8 -12367711.36447  21977699.584    21977708.4634
  22089721.197     6017059.723 8   4672796.54646  22089726.188    22089736.1514
  20649107.861   -22407211.300 9 -17431876.43448  20649110.935    20649118.2074
  20914966.621   -18954098.944 9 -14745193.84247  20914969.812    20914978.2284
  24548179.275     -120160.886 8    -67327.45545  24548179.290    24548188.8124
  21796215.829   -16060468.660 8 -12496155.27047  21796217.875    21796224.9034
  24457419.433     -719285.003 7   -543255.49845  24457423.889    24457434.5374
 00  4 21  2 51 30.0000000  0  8 15 21 17 23 09 26 29 05
  23366544.443    -5590867.737 8  -4321768.34445  23366544.518    23366555.0024
  21963679.355   -15965616.159 9 -12425101.85247  21963683.828    21963692.6804
  22109373.376     6120316.659 8   4753256.42546  22109375.802    22109384.6774
  20647546.153   -22415422.234 9 -17438274.53648  20647548.125    20647555.8294
  20921560.100   -18919464.310 9 -14718205.82047  20921560.918    20921569.0244
  24565993.347      -26519.851 7      5639.52045  24565999.253    24566008.3144
  21785900.916   -16114666.749 8 -12538387.45447  21785904.019    21785911.5204
  24442180.180     -799360.512 7   -605651.86545  24442184.290    24442198.3914
 00  4 21  2 52  0.0000000  0  8 15 21 17 23 09 26 29 05
  23348811.152    -5684037.328 8  -4394367.84845  23348815.003    23348824.6714
  21949691.726   -16039142.352 8 -12482394.94347  21949692.235    21949701.9934
  22129083.007     6223906.200 8   4833975.46046  22129087.482    22129098.0154
  20646040.433   -22423328.150 9 -17444434.97948  20646043.523    20646051.0934
  20928265.004   -18884225.475 9 -14690746.98447  20928266.800    20928274.4234
  24583801.522       67059.572 8     78558.50445  24583806.756    24583816.1414
  21775639.972   -16168596.768 8 -12580410.79047  21775641.620    21775649.5094
  24426950.665     -879408.383 7   -668026.64945  24426951.982    24426965.8334
 00  4 21  2 52 30.0000000  0  8 15 21 17 23 09 26 29 05
  23331143.861    -5776869.434 8  -4466704.42445  23331150.097    23331159.9824
  21935720.470   -16112542.614 8 -12539589.92947  21935724.555    21935733.8364
  22148859.210     6327832.527 8   4914956.92346  22148864.823    22148874.0324
  20644593.746   -22430931.027 9 -17450359.30548  20644596.711    20644604.2804
  20935081.218   -18848396.193 9 -14662828.07347  20935085.097    20935092.6514
  24601604.818      160595.753 7    151443.76745  24601604.439    24601616.3884
  21765425.873   -16222265.007 8 -12622230.11147  21765428.796    21765436.0974
  24411720.143     -959425.314 7   -730377.30845  24411724.109    24411739.5144
 00  4 21  2 53  0.0000000  0  8 15 21 17 23 09 26 29 05
  23313548.142    -5869361.204 8  -4538775.78745  23313549.849    23313560.2354
  21921778.143   -16185809.105 8 -12596680.58147  21921782.594    21921791.1764
  22168702.366     6432091.814 8   4996197.85146  22168704.324    22168714.6284
  20643201.484   -22438243.007 9 -17456056.98648  20643205.508    20643212.9144
  20942008.116   -18811989.210 9 -14634459.00247  20942012.805    20942020.9424
  24619392.303      254103.133 7    224306.58945  24619399.303    24619409.7014
  21755262.722   -16275678.625 8 -12663851.08047  21755264.612    21755271.4944
  24396499.303    -1039395.037 7   -792691.21345  24396508.508    24396519.7044
 00  4 21  2 53 30.0000000  0  8 15 21 17 23 09 26 29 05
  23296005.203    -5961509.723 8  -4610579.62145  23296012.769    23296023.7324
  21907866.277   -16258932.429 9 -12653659.64847  21907867.966    21907875.9204
  22188596.851     6536655.877 8   5077676.26546  22188602.465    22188612.7624
  20641866.899   -22445262.621 9 -17461526.86548  20641869.771    20641877.1474
  20949050.634   -18774994.671 9 -14605632.08447  20949052.182    20949060.6034
  24637187.058      347584.303 7    297148.94245  24637188.181    24637198.7804
  21745146.214   -16328845.026 9 -12705279.41247  21745148.186    21745153.9824
  24381299.125    -1119292.910 7   -854949.15945  24381302.434    24381314.8394
 00  4 21  2 54  0.0000000  0  8 15 21 17 23 09 26 29 05
  23278541.851    -6053312.242 8  -4682113.92745  23278542.442    23278554.4384
  21893976.701   -16331912.867 8 -12710527.52447  21893979.984    21893988.1984
  22208552.305     6641522.413 8   5159390.36646  22208558.046    22208568.2744
  20640587.124   -22451992.968 9 -17466771.31148  20640589.119    20640596.5644
  20956202.273   -18737412.829 9 -14576347.53547  20956204.129    20956212.1174
  24654960.369      441031.253 7    369964.67545  24654970.229    24654981.6094
  21735071.112   -16381787.692 8 -12746533.41047  21735072.483    21735079.7734
  24366116.879    -1199098.667 7   -917135.34045  24366115.236    24366128.4294
 00  4 21  2 54 30.0000000  0  8 15 21 17 23 09 26 29 05
  23261136.328    -6144765.727 8  -4753376.24745  23261142.142    23261150.1754
  21880116.570   -16404747.183 8 -12767281.60347  21880120.050    21880128.2864
  22228572.639     6746698.420 8   5241345.61146  22228572.160    22228581.4144
  20639359.647   -22458441.937 9 -17471796.51248  20639362.059    20639369.5124
  20963462.086   -18699259.955 9 -14546618.02347  20963464.953    20963472.3244
  24672741.072      534426.657 7    442740.27345  24672743.302    24672753.5844
  21725033.559   -16434518.422 8 -12787622.24647  21725037.428    21725045.1494
  24350946.312    -1278797.987 7   -979238.52545  24350950.115    24350962.2394
 00  4 21  2 55  0.0000000  0  8 15 21 17 23 09 26 29 05
  23243801.222    -6235867.169 8  -4824364.24445  23243804.437    23243814.0544
  21866286.450   -16477432.111 9 -12823919.14947  21866288.998    21866297.2214
  22248642.692     6852181.113 8   5323539.83346  22248644.776    22248655.2384
  20638186.866   -22464603.668 9 -17476597.90948  20638189.400    20638197.1314
  20970832.068   -18660528.433 9 -14516437.61647  20970835.152    20970842.4754
  24690498.281      627750.029 7    515459.78845  24690501.911    24690512.6244
  21715040.818   -16487033.574 8 -12828543.08847  21715044.515    21715051.6954
  24335797.978    -1358382.992 7  -1041252.64245  24335806.137    24335817.4884
 00  4 21  2 55 30.0000000  0  8 15 21 17 23 09 26 29 05
  23226528.595    -6326613.749 8  -4895075.72945  23226534.767    23226546.7944
  21852480.728   -16549971.290 9 -12880443.17547  21852485.260    21852493.3024
  22268769.873     6957973.786 8   5405975.58246  22268777.207    22268787.0974
  20637071.635   -22470468.438 9 -17481167.91648  20637073.560    20637081.2934
  20978313.695   -18621219.967 9 -14485807.64847  20978315.614    20978322.7814
  24708239.759      720991.280 7    588115.25745  24708246.181    24708257.4134
  21705088.714   -16539327.989 8 -12869291.91347  21705093.076    21705100.5274
  24320667.259    -1437863.671 7  -1103185.47545  24320679.114    24320692.4044
 00  4 21  2 56  0.0000000  0  8 15 21 17 23 09 26 29 05
  23209333.861    -6417002.604 8  -4965508.43946  23209336.986    23209346.9234
  21838703.723   -16622377.127 9 -12936863.27347  21838706.811    21838714.8354
  22288969.575     7064089.371 8   5488662.94846  22288970.302    22288979.9274
  20636011.194   -22476032.313 9 -17485503.45948  20636014.753    20636022.3474
  20985900.096   -18581340.331 9 -14454732.59547  20985903.853    20985911.6104
  24725966.136      814148.311 7    660705.12045  24725973.329    24725982.7254
  21695183.804   -16591390.296 8 -12909859.90547  21695186.251    21695193.2284
  24305582.689    -1517250.525 8  -1165045.21045  24305573.984    24305587.3694
 00  4 21  2 56 30.0000000  0  8 15 21 17 23 09 26 29 05
  23192205.003    -6507031.199 8  -5035660.52145  23192203.907    23192210.9124
  21824951.369   -16694660.875 9 -12993188.21947  21824952.254    21824960.0384
  22309213.695     7170528.132 8   5571602.13446  22309224.207    22309234.6164
  20635012.827   -22481284.722 9 -17489596.30448  20635015.334    20635022.7604
  20993601.865   -18540882.618 9 -14423207.09547  20993602.944    20993610.5514
  24743683.290      907237.128 7    733241.80445  24743687.615    24743696.7644
  21685325.040   -16643193.016 8 -12950225.61047  21685328.346    21685335.6674
  24290485.801    -1596541.978 7  -1226830.56845  24290485.141    24290496.3354
 00  4 21  2 57  0.0000000  0  8 15 21 17 23 09 26 29 05
  23175133.326    -6596696.515 8  -5105529.47946  23175141.619    23175152.1404
  21811216.398   -16766821.379 9 -13049417.31147  21811219.972    21811227.8884
  22329537.478     7277287.551 8   5654791.20346  22329540.415    22329550.4034
  20634073.986   -22486212.563 9 -17493436.24048  20634077.570    20634085.0274
  21001411.992   -18499837.082 9 -14391223.55947  21001413.939    21001421.5144
  24761383.171     1000270.205 7    805735.06345  24761391.795    24761401.0874
  21675516.476   -16694728.814 8 -12990383.33047  21675521.038    21675529.2174
  24275404.316    -1675735.668 7  -1288539.75145  24275412.805    24275426.8064
 00  4 21  2 57 30.0000000  0  8 15 21 17 23 09 26 29 05
  23158145.323    -6685995.468 8  -5175112.94146  23158147.403    23158158.8914
  21797510.311   -16838855.737 9 -13105547.96147  21797511.973    21797520.2464
  22349913.784     7384355.232 8   5738220.45746  22349914.504    22349924.7984
  20633201.703   -22490805.380 9 -17497015.07148  20633203.729    20633211.0684
  21009331.070   -18458209.009 9 -14358786.10147  21009335.286    21009342.8414
  24779083.345     1093259.932 7    878194.55845  24779085.139    24779094.7924
  21665759.198   -16746006.885 8 -13030340.24347  21665763.536    21665771.4894
  24260362.351    -1754823.704 7  -1350166.58545  24260362.682    24260375.1804
 00  4 21  2 58  0.0000000  0  8 15 21 17 23 09 26 29 05
  23141225.172    -6774925.456 8  -5244408.92945  23141225.952    23141233.2114
  21783827.785   -16910765.381 9 -13161581.36947  21783828.247    21783836.6604
  22370343.697     7491735.621 8   5821893.41246  22370348.464    22370357.8804
  20632389.907   -22495067.451 9 -17500336.17748  20632392.563    20632399.8944
  21017363.405   -18416005.148 9 -14325899.97447  21017366.485    21017374.2874
  24796768.108     1186214.498 7    950626.69445  24796774.758    24796785.0794
  21656047.723   -16797049.444 8 -13070113.62047  21656050.214    21656057.6534
  24245336.247    -1833802.568 7  -1411708.37745  24245335.840    24245349.5994
 00  4 21  2 58 30.0000000  0  7 15 21 17 23 09 29 05
  23124368.450    -6863483.624 8  -5313415.25845  23124373.427    23124382.2074
  21770167.467   -16982539.835 9 -13217509.42547  21770169.552    21770177.7384
  22390841.372     7599425.568 8   5905807.54946  22390841.609    22390852.0964
  20631639.580   -22499004.992 9 -17503404.39048  20631643.088    20631650.6724
  21025502.447   -18373235.264 9 -14292572.78047  21025505.606    21025512.8034
  21646377.538   -16847880.371 9 -13109722.12547  21646378.019    21646385.3534
  24230330.286    -1912659.473 8  -1473155.15745  24230329.312    24230341.3224
 00  4 21  2 59  0.0000000  0  7 15 21 17 23 09 29 05
  23107591.077    -6951666.981 8  -5382129.43546  23107592.606    23107603.6954
  21756534.596   -17054171.288 9 -13273326.10247  21756538.225    21756547.1084
  22411387.633     7707413.107 8   5989953.59546  22411390.700    22411400.8634
  20630952.127   -22502625.423 9 -17506225.50548  20630954.247    20630961.8334
  21033748.049   -18329900.288 9 -14258805.27147  21033751.942    21033759.0274
  21636738.282   -16898521.400 9 -13149182.63547  21636741.614    21636749.0734
  24215339.392    -1991387.396 7  -1534501.45245  24215346.619    24215360.5574
 00  4 21  2 59 30.0000000  0  7 15 21 17 23 09 29 05
  23090880.311    -7039472.722 8  -5450549.33146  23090883.762    23090894.0534
  21742932.499   -17125663.342 9 -13329034.19347  21742933.824    21742942.6004
  22431992.880     7815691.201 8   6074326.02246  22431995.622    22432005.6104
  20630320.468   -22505949.718 9 -17508815.86748  20630321.484    20630328.9934
  21042102.669   -18286002.982 9 -14224599.58047  21042105.070    21042112.9344
  21627138.206   -16948973.593 9 -13188495.99047  21627140.527    21627148.4804
  24200381.732    -2069989.048 7  -1595749.34045  24200389.961    24200401.7014
 00  4 21  3  0  0.0000000  0  7 15 21 17 23 09 29 05
  23074245.880    -7126897.974 8  -5518672.84946  23074246.670    23074257.1334
  21729354.191   -17197008.372 9 -13384627.65047  21729357.241    21729366.3534
  22452654.300     7924264.673 8   6158928.63246  22452656.696    22452666.8434
  20629743.328   -22508989.769 9 -17511184.68448  20629743.225    20629750.5584
  21050562.713   -18241543.313 9 -14189955.67047  21050565.686    21050573.0624
  21617573.754   -16999221.713 8 -13227650.32847  21617577.589    21617586.2994
  24185444.506    -2148476.832 8  -1656908.49645  24185452.872    24185466.4754
 00  4 21  3  0 30.0000000  0  7 15 21 17 23 09 29 05
  23057678.272    -7213939.724 8  -5586497.50846  23057683.359    23057694.0964
  21715809.138   -17268190.177 9 -13440093.92247  21715812.071    21715820.6724
  22473366.650     8033109.722 8   6243742.84946  22473369.729    22473379.9104
  20629217.942   -22511740.000 9 -17513327.67748  20629219.881    20629227.2224
  21059134.198   -18196503.131 9 -14154859.42247  21059136.720    21059144.1094
  21608059.400   -17049229.933 8 -13266617.69847  21608061.994    21608069.6964
  24170527.433    -2226849.718 7  -1717978.12145  24170538.114    24170553.0714
 00  4 21  3  1  0.0000000  0  7 15 21 17 23 09 29 05
  23041192.672    -7300595.439 8  -5654021.38046  23041195.368    23041203.6964
  21702291.710   -17339207.981 8 -13495432.44147  21702297.326    21702306.4294
  22494129.938     8142218.514 8   6328762.56346  22494132.025    22494142.4394
  20628750.046   -22514196.293 9 -17515241.64448  20628752.370    20628759.7244
  21067816.555   -18150874.398 9 -14119304.56347  21067819.161    21067826.7174
  21598594.863   -17098973.532 8 -13305378.87747  21598595.789    21598604.2814
  24155640.731    -2305121.376 7  -1778968.83645  24155644.292    24155657.0134
 00  4 21  3  1 30.0000000  0  7 15 21 17 23 09 29 05
  23024775.917    -7386862.399 8  -5721242.31946  23024777.441    23024787.0114
  21688812.698   -17410052.889 8 -13550636.24047  21688815.498    21688824.7724
  22514944.014     8251601.391 8   6413995.88746  22514946.743    22514957.4094
  20628336.598   -22516356.387 9 -17516924.83948  20628341.146    20628348.8224
  21076606.880   -18104677.966 9 -14083307.34247  21076609.937    21076617.5174
  21589179.305   -17148442.474 8 -13343926.02047  21589182.316    21589190.2714
  24140764.852    -2383299.969 7  -1839887.04545  24140767.631    24140780.4784
 00  4 21  3  2  0.0000000  0  7 15 21 17 23 09 29 05
  23008432.259    -7472737.718 8  -5788158.02446  23008436.300    23008446.6634
  21675365.234   -17480712.773 9 -13605695.91247  21675369.771    21675378.7724
  22535812.287     8361257.895 8   6499442.42946  22535814.138    22535824.1084
  20627986.509   -22518202.713 9 -17518363.52348  20627989.727    20627997.0794
  21085506.590   -18057914.191 9 -14046868.03747  21085509.167    21085516.7294
  21579816.240   -17197632.378 8 -13382255.79747  21579821.642    21579829.5454
  24125913.435    -2461376.098 8  -1900725.40245  24125910.415    24125922.3874
 00  4 21  3  2 30.0000000  0  7 15 21 17 23 09 29 05
  22992165.193    -7558218.514 8  -5854766.37546  22992169.872    22992179.1344
  21661953.016   -17551197.988 9 -13660619.41847  21661956.611    21661965.6664
  22556727.537     8471191.413 8   6585104.79746  22556733.756    22556744.0014
  20627694.862   -22519740.422 9 -17519561.71648  20627697.240    20627704.6614
  21094514.520   -18010574.459 9 -14009979.94447  21094517.671    21094524.5434
  21570507.090   -17246559.512 9 -13420380.76647  21570511.365    21570518.9364
  24111068.554    -2539329.132 8  -1961467.85045  24111076.379    24111089.5244
 00  4 21  3  3  0.0000000  0  7 15 21 17 23 09 29 05
  22975977.901    -7643302.041 8  -5921065.17446  22975977.474    22975987.5454
  21648573.693   -17621516.730 9 -13715413.12247  21648575.538    21648583.9534
  22577708.305     8581421.714 8   6670998.43546  22577710.747    22577720.1324
  20627459.673   -22520969.711 9 -17520519.58848  20627463.203    20627471.0004
  21103628.843   -17962671.181 9 -13972652.72447  21103633.110    21103640.7654
  21561241.367   -17295256.283 9 -13458326.27347  21561244.612    21561251.7174
  24096264.764    -2617150.286 8  -2022107.48445  24096267.198    24096280.2584
 00  4 21  3  3 30.0000000  0  7 15 21 17 23 09 29 05
  22959860.758    -7727985.519 8  -5987052.15346  22959863.167    22959874.3384
  21635224.351   -17691669.911 9 -13770077.63647  21635225.594    21635233.8364
  22598740.385     8691944.385 8   6757119.90246  22598742.558    22598752.2454
  20627288.209   -22521881.206 9 -17521229.84548  20627289.654    20627297.8064
  21112850.262   -17914208.311 9 -13934889.44347  21112854.479    21112862.0254
  21552015.770   -17343742.554 9 -13496107.77147  21552018.033    21552025.4664
  24081486.130    -2694832.736 7  -2082639.07645  24081484.566    24081496.6154
 00  4 21  3  4  0.0000000  0  7 15 21 17 23 09 29 05
  22943823.365    -7812266.149 8  -6052725.31546  22943824.831    22943835.8694
  21621904.684   -17761665.777 9 -13824619.94547  21621905.952    21621914.3574
  22619825.067     8802744.636 8   6843457.65646  22619826.591    22619837.4654
  20627175.576   -22522465.212 9 -17521684.90748  20627178.607    20627186.4554
  21122185.390   -17865161.674 9 -13896671.28347  21122188.357    21122196.0694
  21542826.552   -17392018.903 9 -13533725.68347  21542831.293    21542838.4894
  24066725.808    -2772367.010 8  -2143055.21245  24066730.500    24066742.7204
 00  4 21  3  4 30.0000000  0  7 15 21 17 23 09 29 05
  22927857.816    -7896141.311 8  -6118082.52546  22927863.572    22927873.9154
  21608609.238   -17831516.930 9 -13879049.43047  21608613.838    21608622.4424
  22640960.934     8913812.070 8   6930003.59046  22640961.816    22640972.9334
  20627129.289   -22522717.958 9 -17521881.83848  20627130.686    20627138.3174
  21131626.354   -17815543.456 9 -13858007.72747  21131630.533    21131637.8064
  21533679.553   -17440091.510 9 -13571184.78047  21533683.225    21533690.8784
  24052000.860    -2849749.032 8  -2203352.68345  24052004.323    24052016.4854
 00  4 21  3  5  0.0000000  0  7 15 21 17 23 09 29 05
  22911977.717    -7979607.928 8  -6183121.38546  22911980.783    22911990.3744
  21595347.405   -17901225.089 9 -13933367.41247  21595349.380    21595357.7704
  22662137.072     9025132.479 8   7016746.63346  22662145.768    22662156.0624
  20627147.703   -22522620.651 9 -17521805.99748  20627149.258    20627156.6954
  21141174.440   -17765378.931 9 -13818918.50047  21141176.214    21141184.2194
  21524574.645   -17487948.756 9 -13608476.09547  21524576.600    21524584.1694
  24037312.299    -2926981.639 8  -2263533.74545  24037309.041    24037319.7174
 00  4 21  3  5 30.0000000  0  7 15 21 17 23 09 29 05
  22896172.030    -8062663.417 8  -6247839.88046  22896175.016    22896185.7264
  21582109.483   -17970789.611 9 -13987573.40647  21582111.816    21582119.8094
  22683373.518     9136689.461 8   7103674.05446  22683374.075    22683385.0244
  20627232.718   -22522173.286 9 -17521457.39848  20627234.314    20627242.0694
  21150822.788   -17714673.111 9 -13779407.47547  21150825.492    21150832.9534
  21515509.349   -17535571.984 9 -13645585.05447  21515514.331    21515521.2334
  24022638.317    -3004054.546 8  -2323590.39945  24022641.558    24022652.9114
 00  4 21  3  6  0.0000000  0  7 15 21 17 23 09 29 05
  22880445.473    -8145304.838 8  -6312235.73646  22880450.020    22880459.8494
  21568896.291   -18040208.700 9 -14041666.01347  21568901.305    21568909.6874
  22704646.689     9248482.113 8   7190785.08046  22704648.357    22704658.3624
  20627380.919   -22521394.864 9 -17520850.82548  20627382.440    20627389.8724
  21160573.495   -17663430.602 9 -13739478.24947  21160576.742    21160584.5814
  21506496.221   -17582945.071 9 -13682499.09847  21506499.066    21506505.9104
  24008010.505    -3080946.777 8  -2383506.25145  24008009.748    24008020.5834
 00  4 21  3  6 30.0000000  0  7 15 21 17 23 09 29 05
  22864799.508    -8227529.444 8  -6376306.74846  22864802.565    22864813.3124
  21555718.210   -18109467.026 9 -14095633.37647  21555721.543    21555729.5674
  22725962.734     9360517.797 8   7278085.49146  22725967.567    22725977.8584
  20627589.315   -22520297.241 9 -17519995.51748  20627591.049    20627598.5764
  21170424.623   -17611674.210 9 -13699148.60447  21170425.600    21170433.4464
  21497529.222   -17630071.558 9 -13719220.98847  21497531.149    21497537.4324
  23993404.827    -3157661.911 8  -2443284.11045  23993409.587    23993422.4534
 00  4 21  3  7  0.0000000  0  7 15 21 17 23 09 29 05
  22849230.755    -8309334.622 8  -6440050.94845  22849234.787    22849243.2164
  21542572.288   -18178545.330 9 -14149460.54847  21542576.388    21542584.2794
  22747334.116     9472797.341 8   7365575.93546  22747333.412    22747344.2324
  20627855.631   -22518888.557 9 -17518897.82148  20627859.103    20627866.8264
  21180367.083   -17559391.946 9 -13658409.19047  21180374.418    21180382.0934
  21488607.237   -17676954.988 9 -13755753.48647  21488609.400    21488616.0584
  23978845.997    -3234207.150 8  -2502929.60445  23978845.697    23978855.6254
 00  4 21  3  7 30.0000000  0  7 15 21 17 23 09 29 05
  22833746.095    -8390717.455 8  -6503466.09946  22833749.340    22833758.0244
  21529466.038   -18247427.039 9 -14203134.53047  21529468.276    21529476.5714
  22768742.317     9585313.676 8   7453250.87446  22768744.909    22768754.6584
  20628181.347   -22517180.115 9 -17517566.55648  20628184.242    20628192.1334
  21190422.207   -17506577.556 9 -13617255.12147  21190424.567    21190432.2484
  21479729.537   -17723599.266 9 -13792099.65347  21479733.268    21479740.9474
  23964310.668    -3310576.189 8  -2562437.81945  23964311.644    23964323.8254
 00  4 21  3  8  0.0000000  0  7 15 21 17 23 09 29 05
  22818343.010    -8471675.275 8  -6566549.98246  22818344.108    22818352.0014
  21516396.925   -18316104.190 9 -14256649.17247  21516399.839    21516407.7414
  22790197.004     9698069.632 8   7541112.55946  22790202.178    22790212.8474
  20628563.997   -22515170.736 9 -17516000.79748  20628566.460    20628574.4114
  21200571.060   -17453234.041 9 -13575688.74947  21200575.131    21200583.3244
  21470898.228   -17770016.176 9 -13828268.64447  21470900.673    21470908.2514
  23949809.926    -3386778.890 8  -2621816.35945  23949809.930    23949822.0754
 00  4 21  3  8 30.0000000  0  7 15 21 17 23 09 29 05
  22803019.634    -8552205.637 8  -6629300.82646  22803018.167    22803026.5014
  21503367.058   -18384576.977 9 -14310004.64347  21503369.762    21503377.9944
  22811703.156     9811079.273 8   7629171.90446  22811706.623    22811717.1004
  20629005.978   -22512846.497 9 -17514189.69048  20629008.807    20629016.7124
  21210822.325   -17399364.456 9 -13533712.45547  21210826.562    21210834.7374
  21462105.293   -17816220.665 9 -13864272.09947  21462108.037    21462115.4134
  23935331.627    -3462827.155 8  -2681074.57645  23935338.840    23935351.4104
 00  4 21  3  9  0.0000000  0  7 15 21 17 23 09 29 05
  22787770.319    -8632305.682 8  -6691716.29246  22787775.530    22787784.7174
  21490373.196   -18452855.617 9 -14363208.77847  21490376.560    21490384.6124
  22833260.649     9924331.927 8   7717420.61446  22833258.295    22833269.0774
  20629510.269   -22510196.102 9 -17512124.48148  20629513.102    20629521.1544
  21221177.294   -17344968.402 9 -13491325.92947  21221177.836    21221185.3744
  21453357.471   -17862193.087 9 -13900094.68047  21453359.490    21453366.7424
  23920893.993    -3538715.089 8  -2740207.88545  23920897.625    23920910.4034
 00  4 21  3  9 30.0000000  0  7 15 21 17 23 09 29 05
  22772615.175    -8711972.557 8  -6753794.27246  22772616.576    22772624.1084
  21477417.037   -18520941.929 9 -14416262.98547  21477420.034    21477428.0564
  22854851.263    10037827.359 8   7805858.48646  22854856.341    22854867.2114
  20630077.504   -22507217.318 9 -17509803.36648  20630079.886    20630087.7454
  21231626.271   -17290059.883 9 -13448540.06847  21231626.973    21231634.5514
  21444653.414   -17907925.797 9 -13935730.54347  21444657.027    21444664.0754
  23906487.434    -3614436.993 8  -2799211.82745  23906488.161    23906500.7574
 00  4 21  3 10  0.0000000  0  7 15 21 17 23 09 29 05
  22757538.292    -8791203.701 8  -6815532.77646  22757537.844    22757546.2964
  21464494.771   -18588839.348 9 -14469169.94747  21464499.821    21464507.6864
  22876502.774    10151574.143 8   7894492.20846  22876500.796    22876512.3614
  20630708.539   -22503904.582 9 -17507222.01948  20630710.872    20630718.4194
  21242170.998   -17234639.306 9 -13405355.20547  21242172.727    21242180.6244
  21435996.414   -17953427.617 8 -13971186.48047  21435998.278    21436004.9864
  23892102.795    -3690004.151 8  -2858095.17545  23892107.739    23892119.8844
 00  4 21  3 10 30.0000000  0  7 15 21 17 23 09 29 05
  22742543.321    -8869996.565 8  -6876929.65546  22742544.746    22742554.7254
  21451611.218   -18656549.907 9 -14521931.50047  21451614.839    21451622.9924
  22898190.808    10265555.791 8   7983308.94846  22898192.067    22898202.4704
  20631402.915   -22500249.271 9 -17504373.76448  20631406.427    20631414.0454
  21252811.355   -17178706.655 9 -13361771.32847  21252815.847    21252824.7304
  21427378.848   -17998689.868 8 -14006455.74547  21427384.960    21427392.1524
  23877752.612    -3765414.620 8  -2916856.41045  23877757.958    23877770.2774
 00  4 21  3 11  0.0000000  0  7 15 21 17 23 09 29 05
  22727636.256    -8948348.385 8  -6937982.86146  22727634.926    22727643.3054
  21438761.582   -18724079.880 9 -14574552.21947  21438764.503    21438772.3804
  22919921.172    10379745.027 8   8072287.45846  22919921.241    22919932.1954
  20632166.515   -22496248.582 9 -17501256.34548  20632167.732    20632175.3284
  21263555.742   -17122257.642 9 -13317785.08747  21263558.294    21263566.0074
  21418813.778   -18043718.692 9 -14041543.10947  21418815.982    21418823.3904
  23863434.429    -3840657.971 8  -2975487.44545  23863439.825    23863450.9914
 00  4 21  3 11 30.0000000  0  7 15 21 17 23 09 29 05
  22712809.761    -9026256.418 8  -6998690.33246  22712809.817    22712816.7404
  21425948.305   -18791432.443 9 -14627034.80847  21425947.341    21425955.4774
  22941684.653    10494142.499 8   8161428.23646  22941689.600    22941700.2544
  20632992.103   -22491912.485 9 -17497877.57848  20632992.696    20633000.4714
  21274395.444   -17065290.269 9 -13273394.92347  21274399.073    21274406.4624
  21410282.043   -18088546.816 8 -14076474.06147  21410285.232    21410293.0374
  23849156.038    -3915717.598 8  -3033975.34845  23849155.521    23849167.0834
 00  4 21  3 12  0.0000000  0  7 15 21 17 23 09 29 05
  22698063.968    -9103718.045 8  -7059050.01346  22698068.938    22698077.4554
  21413161.071   -18858606.341 9 -14679378.21147  21413164.708    21413172.9074
  22963497.691    10608744.239 8   8250728.16746  22963497.674    22963509.4524
  20633877.259   -22487242.004 9 -17494238.27148  20633881.387    20633889.3234
  21285336.954   -17007797.114 9 -13228595.06447  21285339.030    21285346.8714
  21401792.235   -18133169.318 8 -14111244.79447  21401794.022    21401802.3094
  23834905.080    -3990581.604 8  -3092310.81145  23834909.094    23834920.6074
 00  4 21  3 12 30.0000000  0  7 15 21 17 23 09 29 05
  22683410.230    -9180730.668 8  -7119059.71046  22683412.696    22683421.9494
  21400415.377   -18925593.825 9 -14731576.20847  21400417.528    21400425.3404
  22985337.483    10723544.463 8   8340182.77146  22985344.002    22985354.4134
  20634831.109   -22482243.402 9 -17490343.27948  20634832.866    20634840.2834
  21296378.325   -16949776.194 9 -13183383.94647  21296380.627    21296388.4004
  21393341.619   -18177572.758 9 -14145844.80547  21393344.268    21393351.8944
  23820698.964    -4065230.440 8  -3150478.57445  23820704.912    23820715.4564
 00  4 21  3 13  0.0000000  0  7 15 21 17 23 09 29 05
  22668842.625    -9257291.315 8  -7178717.30346  22668845.152    22668854.2804
  21387707.776   -18992385.775 9 -14783621.83047  21387707.410    21387715.3414
  23007225.555    10838551.059 8   8429798.18046  23007228.846    23007239.9844
  20635842.611   -22476924.017 9 -17486198.33048  20635844.943    20635852.6234
  21307517.298   -16891223.061 9 -13137758.10847  21307522.952    21307530.7894
  21384934.944   -18221758.289 9 -14180274.98947  21384936.626    21384943.5894
  23806542.360    -4139654.033 8  -3208470.82445  23806541.901    23806553.8394
 00  4 21  3 13 30.0000000  0  7 15 21 17 23 09 29 05
  22654358.392    -9333397.659 8  -7238020.85046  22654362.393    22654371.7754
  21375036.909   -19058957.547 9 -14835495.83947  21375039.508    21375047.1844
  23029156.420    10953769.556 8   8519578.66646  23029155.166    23029165.8394
  20636915.967   -22471285.049 9 -17481804.41148  20636918.247    20636925.8574
  21318763.568   -16832133.878 9 -13091714.58147  21318766.802    21318775.2344
  21376569.637   -18265702.882 9 -14214517.53847  21376574.149    21376581.4864
  23792419.884    -4213856.457 8  -3266290.76546  23792422.289    23792432.5674
 00  4 21  3 14  0.0000000  0  7 15 21 17 23 09 29 05
  22639966.408    -9409046.957 8  -7296968.30146  22639966.504    22639976.3354
  21362409.639   -19125299.670 9 -14887191.00647  21362414.322    21362422.8594
  23051120.058    11069201.191 8   8609525.25546  23051121.022    23051131.3314
  20638056.435   -22465301.205 9 -17477141.67048  20638057.043    20638064.4734
  21330109.968   -16772507.861 9 -13045252.73647  21330113.731    21330121.3234
  21368258.535   -18309394.666 9 -14248563.07947  21368260.210    21368267.3684
  23778329.727    -4287859.527 8  -3323955.37346  23778338.977    23778351.2284
 00  4 21  3 14 30.0000000  0  7 15 21 17 23 09 29 05
  22625652.967    -9484236.600 8  -7355557.56746  22625657.990    22625667.2874
  21349828.308   -19191425.067 9 -14938717.22047  21349831.597    21349839.3234
  23073121.183    11184841.845 8   8699634.73646  23073127.191    23073137.1654
  20639261.725   -22458954.924 9 -17472196.54148  20639264.799    20639272.2384
  21341556.528   -16712352.269 9 -12998378.22547  21341561.062    21341568.2234
  21359990.487   -18352843.289 9 -14282419.09747  21359991.733    21359998.8454
  23764286.952    -4361674.729 8  -3381473.55546  23764291.589    23764303.0864
 00  4 21  3 15  0.0000000  0  7 15 21 17 23 09 29 05
  22611433.369    -9558964.195 8  -7413786.82646  22611438.546    22611447.2174
  21337286.155   -19257347.206 9 -14990085.06947  21337287.623    21337294.7904
  23095168.507    11300686.010 8   8789902.78246  23095171.262    23095183.1234
  20640541.446   -22452231.649 9 -17466957.61148  20640544.196    20640551.7454
  21353105.071   -16651673.068 9 -12951095.71947  21353107.779    21353114.7644
  21351766.418   -18396051.580 9 -14316087.85547  21351769.268    21351776.7074
  23750275.541    -4435301.452 8  -3438844.90245  23750281.635    23750292.0024
 00  4 21  3 15 30.0000000  0  7 15 21 17 23 09 29 05
  22597307.117    -9633227.042 8  -7471653.98446  22597307.118    22597315.3554
  21324776.798   -19323071.352 9 -15041298.63547  21324780.362    21324787.4684
  23117254.491    11416729.825 8   8880326.37646  23117253.385    23117265.0154
  20641891.476   -22445130.013 9 -17461423.88048  20641895.257    20641903.2834
  21364745.627   -16590491.136 9 -12903421.46447  21364749.661    21364757.1454
  21343590.567   -18439013.662 9 -14349564.79847  21343593.355    21343601.0384
  23736306.494    -4508738.184 8  -3496068.20146  23736307.052    23736318.9064
 00  4 21  3 16  0.0000000  0  7 15 21 17 23 09 29 05
  22583263.225    -9707022.434 8  -7529156.86346  22583264.614    22583274.2394
  21312305.719   -19388604.624 9 -15092363.52947  21312309.640    21312317.1134
  23139376.668    11532966.950 8   8970900.62246  23139372.737    23139384.5804
  20643314.418   -22437663.004 9 -17455605.43548  20643316.354    20643324.0474
  21376479.313   -16528832.136 9 -12855375.46847  21376483.201    21376490.0254
  21335460.062   -18481738.389 9 -14382856.77747  21335463.418    21335470.6464
  23722367.633    -4581984.348 8  -3553143.02246  23722369.345    23722381.4394
 00  4 21  3 16 30.0000000  0  7 15 21 17 23 09 29 05
  22569305.250    -9780348.039 8  -7586293.64346  22569310.385    22569319.9684
  21299874.237   -19453938.003 9 -15143272.63647  21299877.199    21299884.9844
  23161521.083    11649382.385 8   9061613.81145  23161525.284    23161536.2454
  20644798.936   -22429859.707 9 -17449524.94548  20644801.327    20644808.7894
  21388305.253   -16466697.595 9 -12806958.92147  21388306.611    21388314.8014
  21327379.115   -18524215.233 9 -14415955.62747  21327381.007    21327388.0534
  23708469.283    -4655014.973 8  -3610049.86046  23708470.339    23708482.7604
 00  4 21  3 17  0.0000000  0  7 15 21 17 23 09 29 05
  22555444.035    -9853201.155 8  -7643062.28446  22555446.992    22555457.3414
  21287484.359   -19519049.754 9 -15194008.99747  21287486.873    21287494.6274
  23183708.349    11765975.130 8   9152465.17045  23183712.508    23183723.3594
  20646342.157   -22421743.332 9 -17443200.49948  20646345.550    20646353.1734
  21400217.464   -16404090.887 8 -12758174.44847  21400220.598    21400228.2034
  21319342.820   -18566443.911 9 -14448861.07047  21319345.080    21319351.9974
  23694616.795    -4727822.214 8  -3666782.65246  23694616.121    23694627.7194
 00  4 21  3 17 30.0000000  0  7 15 21 17 23 09 29 05
  22541676.534    -9925579.493 8  -7699460.91546  22541673.719    22541684.9824
  21275139.058   -19583925.262 9 -15244561.31847  21275141.552    21275148.9024
  23205934.522    11882746.116 8   9243455.42246  23205934.244    23205943.9574
  20647945.231   -22413328.332 9 -17436643.37848  20647946.874    20647954.6554
  21412224.671   -16341010.260 9 -12709020.70547  21412224.499    21412232.7104
  21311353.242   -18608432.832 9 -14481579.69447  21311354.826    21311361.7444
  23680800.400    -4800419.470 8  -3723351.80546  23680801.301    23680812.7084
 00  4 21  3 18  0.0000000  0  7 15 21 17 23 09 29 05
  22527992.878    -9997480.476 8  -7755487.58846  22527993.266    22528001.1014
  21262837.004   -19648568.547 9 -15294932.64847  21262840.347    21262847.7674
  23228187.985    11999695.354 8   9334584.56346  23228188.085    23228200.0254
  20649604.100   -22404605.933 9 -17429846.72348  20649606.648    20649614.5174
  21424317.662   -16277436.445 9 -12659482.65047  21424321.898    21424329.5954
  21303403.037   -18650198.606 9 -14514124.37847  21303406.562    21303413.6374
  23667023.819    -4872802.613 8  -3779754.13546  23667028.074    23667038.9264
 00  4 21  3 18 30.0000000  0  7 15 21 17 23 09 29 05
  22514398.122   -10068901.260 8  -7811140.10446  22514399.518    22514410.6714
  21250578.321   -19712991.396 9 -15345132.17447  21250580.838    21250587.8134
  23250476.294    12116828.884 8   9425857.28245  23250478.344    23250489.6694
  20651327.282   -22395550.361 9 -17422790.44648  20651329.844    20651337.7854
  21436514.126   -16213349.810 9 -12609545.01847  21436517.984    21436525.5754
  21295494.687   -18691756.377 9 -14546507.03847  21295498.347    21295505.4594
  23653296.044    -4944952.182 8  -3835974.45946  23653297.105    23653310.1334
 00  4 21  3 19  0.0000000  0  7 15 21 17 23 09 29 05
  22500898.210   -10139839.373 8  -7866416.43846  22500901.410    22500910.8624
  21238361.868   -19777196.225 9 -15395161.87647  21238363.397    21238370.3644
  23272799.797    12234156.430 8   9517281.21745  23272805.595    23272816.3594
  20653119.123   -22386137.735 9 -17415455.95148  20653121.211    20653128.9284
  21448804.490   -16148762.563 9 -12559217.29047  21448807.754    21448815.7094
  21287625.806   -18733119.870 9 -14578738.32747  21287626.965    21287634.1924
  23639604.139    -5016871.528 8  -3892015.37946  23639611.517    23639622.8284
 00  4 21  3 19 30.0000000  0  7 15 21 17 23 09 29 05
  22487492.900   -10210292.443 8  -7921314.88946  22487495.010    22487503.3754
  21226183.716   -19841186.394 9 -15445024.46547  21226186.367    21226193.6584
  23295167.421    12351671.222 8   9608851.07345  23295167.753    23295178.8544
  20654981.746   -22376345.894 9 -17407825.96248  20654984.484    20654992.1824
  21461189.030   -16083678.639 8 -12508502.54747  21461192.936    21461201.1684
  21279789.322   -18774288.948 9 -14610818.08047  21279792.670    21279799.9664
  23625974.103    -5088544.838 8  -3947864.59446  23625973.072    23625983.6584
 00  4 21  3 20  0.0000000  0  7 15 21 17 23 09 29 05
  22474178.474   -10280257.958 8  -7975833.39146  22474180.218    22474189.4654
  21214047.271   -19904962.685 9 -15494720.25747  21214050.032    21214057.9844
  23317562.459    12469363.610 8   9700559.30445  23317564.239    23317574.9554
  20656920.459   -22366156.295 9 -17399886.02548  20656923.459    20656931.4424
  21473668.030   -16018107.850 8 -12457408.43447  21473670.640    21473678.2054
  21271994.002   -18815254.578 9 -14642739.27047  21271997.751    21272004.9164
  23612383.206    -5159948.520 8  -4003503.69246  23612385.259    23612396.2744
 00  4 21  3 20 30.0000000  0  7 15 21 17 23 09 29 05
  22460958.028   -10349733.671 8  -8029970.24446  22460959.928    22460967.7134
  21201955.681   -19968511.882 9 -15544239.09247  21201957.044    21201964.7064
  23339989.816    12587225.537 8   9792399.63546  23339993.085    23340004.1864
  20658934.016   -22355574.298 9 -17391640.32148  20658937.387    20658944.9984
  21486235.345   -15952068.537 8 -12405949.21947  21486237.243    21486245.7784
  21264240.502   -18856006.095 9 -14674493.70247  21264243.146    21264250.1794
  23598845.784    -5231083.283 8  -4058933.26946  23598848.230    23598860.6694
 00  4 21  3 21  0.0000000  0  7 15 21 17 23 09 29 05
  22447827.780   -10418716.896 8  -8083723.34946  22447832.053    22447840.3944
  21189908.317   -20031815.574 9 -15593566.73747  21189910.551    21189918.2184
  23362449.009    12705239.910 8   9884358.74945  23362449.849    23362461.0934
  20661020.946   -22344615.057 9 -17383100.63848  20661022.842    20661030.2784
  21498886.957   -15885583.782 9 -12354142.93647  21498889.594    21498897.0774
  21256529.408   -18896527.884 9 -14706069.06047  21256531.745    21256539.0414
  23585349.971    -5301963.014 8  -4114164.09346  23585359.930    23585372.1974
 00  4 21  3 21 30.0000000  0  7 15 21 17 23 09 29 05
  22434794.158   -10487205.181 8  -8137090.78246  22434800.203    22434808.3914
  21177907.355   -20094876.745 9 -15642705.33747  21177909.954    21177918.0644
  23384932.773    12823392.267 8   9976425.37645  23384934.294    23384944.8124
  20663175.261   -22333287.366 9 -17374273.86348  20663178.216    20663185.8434
  21511624.483   -15818646.626 9 -12301984.12647  21511626.947    21511634.8504
  21248861.011   -18936816.313 9 -14737462.62047  21248864.692    21248872.2654
  23571920.322    -5372585.991 8  -4169194.86846  23571922.051    23571932.2714
 00  4 21  3 22  0.0000000  0  7 15 21 17 23 09 29 05
  22421858.878   -10555196.353 8  -8190070.82846  22421860.456    22421868.8224
  21165952.678   -20157696.216 9 -15691655.58447  21165955.871    21165963.9774
  23407432.764    12941677.046 8  10068595.22045  23407443.428    23407453.6184
  20665399.237   -22321608.490 9 -17365173.45048  20665400.599    20665408.7534
  21524451.522   -15751252.125 8 -12249468.93547  21524451.636    21524459.1604
  21241237.340   -18976878.946 9 -14768680.21547  21241241.561    21241248.9684
  23558525.206    -5442961.088 8  -4224032.48946  23558529.018    23558539.9334
 00  4 21  3 22 30.0000000  0  7 15 21 17 23 09 29 05
  22409018.768   -10622687.941 8  -8242661.61046  22409019.249    22409025.3194
  21154047.619   -20220262.975 9 -15740408.78847  21154049.978    21154058.2344
  23429976.695    13060092.957 8  10160867.25145  23429976.096    23429988.3184
  20667685.218   -22309589.815 9 -17355808.26348  20667687.605    20667695.5914
  21537360.014   -15683397.101 9 -12196594.89847  21537363.826    21537372.0894
  21233656.673   -19016726.492 9 -14799730.17847  21233658.747    21233665.8804
  23545180.241    -5513095.590 8  -4278682.63646  23545182.617    23545193.5694
 00  4 21  3 23  0.0000000  0  7 15 21 17 23 09 29 05
  22396267.694   -10689677.311 8  -8294861.04746  22396269.954    22396279.9124
  21142188.162   -20282582.520 9 -15788969.54147  21142191.287    21142199.3174
  23452536.148    13178641.069 8  10253242.24945  23452535.483    23452547.1884
  20670038.583   -22297224.997 9 -17346173.35648  20670040.613    20670048.5024
  21550362.208   -15615066.771 9 -12143350.49947  21550366.492    21550375.3094
  21226115.262   -19056355.010 9 -14830609.50947  21226117.581    21226124.6744
  23531880.057    -5582978.646 8  -4333136.82246  23531883.630    23531895.4414
 00  4 21  3 23 30.0000000  0  7 15 21 17 23 09 29 05
  22383617.815   -10756162.293 8  -8346667.47346  22383619.466    22383627.2664
  21130376.653   -20344661.442 9 -15837342.80747  21130377.902    21130385.7114
  23475125.594    13297337.305 8  10345732.65845  23475123.280    23475134.2574
  20672458.929   -22284511.334 9 -17336266.62248  20672460.156    20672467.8744
  21563462.129   -15546245.944 9 -12089723.90047  21563463.375    21563471.0224
  21218613.680   -19095763.910 9 -14861317.79547  21218617.981    21218625.5924
  23518631.874    -5652597.799 8  -4387385.40046  23518636.383    23518647.7834
 00  4 21  3 24  0.0000000  0  7 15 21 17 23 09 29 05
  22371060.588   -10822140.365 8  -8398078.92346  22371061.883    22371073.1854
  21118605.686   -20406502.422 9 -15885530.63947  21118609.706    21118617.5374
  23497733.237    13416190.579 8  10438345.46445  23497739.935    23497751.8734
  20674944.000   -22271444.481 9 -17326084.68348  20674946.603    20674954.4064
  21576650.403   -15476936.657 8 -12035716.68147  21576651.893    21576660.1684
  21211158.238   -19134947.396 9 -14891850.40047  21211161.514    21211169.0394
  23505430.901    -5721953.816 8  -4441428.90246  23505438.329    23505449.0304
 00  4 21  3 24 30.0000000  0  7 15 21 17 23 09 29 05
  22358603.665   -10887609.553 8  -8449093.79546  22358604.858    22358613.9674
  21106883.561   -20468105.332 9 -15933532.90847  21106887.140    21106894.7024
  23520379.429    13535208.364 8  10531086.43645  23520389.072    23520400.1884
  20677500.278   -22258012.834 9 -17315618.49748  20677502.617    20677510.2084
  21589927.767   -15407156.118 9 -11981342.25347  21589931.106    21589938.7434
  21203747.278   -19173888.258 9 -14922193.87747  21203751.788    21203758.7474
  23492291.059    -5791043.726 8  -4495265.08946  23492291.128    23492302.7654
 00  4 21  3 25  0.0000000  0  7 15 21 17 23 09 29 05
  22346242.980   -10952567.435 8  -8499710.31946  22346244.036    22346251.6634
  21095204.146   -20529484.798 9 -15981361.00347  21095206.968    21095214.7414
  23543070.200    13654390.401 8  10623955.43045  23543069.233    23543080.1424
  20680126.154   -22244214.885 9 -17304866.85248  20680128.284    20680136.0184
  21603293.409   -15336917.500 9 -11926610.86447  21603297.174    21603304.6794
  21196383.982   -19212582.517 9 -14952345.20047  21196388.099    21196395.0964
  23479192.983    -5859872.606 8  -4548897.86846  23479193.412    23479203.7604
 00  4 21  3 25 30.0000000  0  7 15 21 17 23 09 29 05
  22333975.979   -11017011.310 8  -8549926.31446  22333979.666    22333989.2964
  21083569.797   -20590633.797 9 -16029009.55247  21083571.148    21083578.2964
  23565773.666    13773722.104 8  10716941.03045  23565776.086    23565788.2764
  20682818.463   -22230059.030 9 -17293836.32448  20682821.823    20682830.0444
  21616742.818   -15266243.580 9 -11871540.27947  21616746.143    21616753.8414
  21189067.826   -19251041.813 9 -14982313.53047  21189069.556    21189076.4264
  23466135.969    -5928453.110 8  -4602337.10946  23466142.789    23466153.2214
 00  4 21  3 26  0.0000000  0  7 15 21 17 23 09 29 05
  22321809.963   -11080939.072 8  -8599740.13346  22321814.426    22321823.2124
  21071977.984   -20651542.012 9 -16076470.51347  21071980.152    21071988.3774
  23588506.740    13893180.064 7  10810024.98145  23588508.525    23588520.1074
  20685581.078   -22215544.299 9 -17282526.16648  20685583.819    20685591.8704
  21630272.376   -15195146.818 9 -11816140.21647  21630275.617    21630283.3264
  21181792.509   -19289274.274 9 -15012105.13447  21181794.664    21181801.4314
  23453135.807    -5996789.396 8  -4655586.04946  23453137.958    23453149.2474
 00  4 21  3 26 30.0000000  0  7 15 21 17 23 09 29 05
  22309745.882   -11144348.309 8  -8649149.89946  22309748.119    22309756.6784
  21060435.420   -20712193.012 9 -16123731.01947  21060438.601    21060446.8804
  23611256.681    14012752.684 7  10903198.31345  23611262.436    23611274.5924
  20688412.719   -22200666.876 9 -17270933.37448  20688415.301    20688422.8574
  21643880.380   -15123638.731 8 -11760419.64647  21643882.976    21643890.6754
  21174558.354   -19327288.214 9 -15041726.32947  21174560.983    21174567.5454
  23440177.828    -6064877.694 8  -4708641.70946  23440181.408    23440194.0214
 00  4 21  3 27  0.0000000  0  7 15 21 17 23 09 29 05
  22297779.967   -11207236.761 8  -8698153.85346  22297782.601    22297788.9714
  21048945.574   -20772578.253 9 -16170784.38647  21048947.831    21048955.9754
  23634038.041    14132436.031 8  10996457.89645  23634038.093    23634050.0854
  20691311.002   -22185436.045 9 -17259065.20948  20691313.622    20691321.1564
  21657566.450   -15051704.428 8 -11704366.97747  21657571.265    21657579.2774
  21167365.212   -19365090.181 9 -15071182.41347  21167367.634    21167374.0234
  23427277.355    -6132704.604 8  -4761493.73146  23427275.733    23427285.9144
 00  4 21  3 27 30.0000000  0  7 15 21 17 23 09 29 05
  22285909.978   -11269602.253 8  -8746750.26146  22285912.732    22285922.4294
  21037507.250   -20832683.425 9 -16217619.54647  21037510.108    21037517.8304
  23656831.980    14252231.150 7  11089804.57845  23656833.607    23656846.0864
  20694276.671   -22169851.951 9 -17246921.73848  20694279.054    20694286.5434
  21671340.409   -14979337.228 9 -11647976.97547  21671342.734    21671349.8824
  21160209.441   -19402681.937 9 -15100474.65547  21160213.668    21160220.5224
  23414420.658    -6200244.079 8  -4814121.79646  23414422.514    23414433.3434
 00  4 21  3 28  0.0000000  0  7 15 21 17 23 09 29 05
  22274143.871   -11331442.425 8  -8794937.36046  22274146.867    22274153.6634
  21026123.326   -20892509.635 9 -16264237.32147  21026125.287    21026133.4754
  23679645.952    14372151.906 8  11183249.20445  23679653.611    23679665.1954
  20697311.058   -22153912.217 9 -17234501.17448  20697312.323    20697319.7804
  21685195.198   -14906521.017 8 -11591237.08447  21685198.812    21685205.9834
  21153097.592   -19440055.238 9 -15129596.72247  21153101.589    21153108.6724
  23401618.771    -6267482.294 8  -4866515.07146  23401626.285    23401638.1784
 00  4 21  3 28 30.0000000  0  7 15 21 17 23 09 29 05
  22262471.562   -11392755.209 8  -8842713.49746  22262477.411    22262487.2424
  21014789.664   -20952063.826 9 -16310643.14647  21014792.970    21014800.8444
  23702502.150    14492211.802 8  11276802.23545  23702501.042    23702512.4344
  20700409.430   -22137619.289 9 -17221805.40648  20700413.164    20700420.3264
  21699138.308   -14833246.580 8 -11534140.13447  21699142.798    21699150.7044
  21146030.958   -19477204.201 9 -15158543.95347  21146032.379    21146039.4054
  23388892.291    -6334410.102 8  -4918666.49846  23388890.982    23388902.3874
 00  4 21  3 29  0.0000000  0  7 15 21 17 23 09 29 05
  22250910.756   -11453538.467 8  -8890076.97646  22250911.480    22250921.6524
  21003507.221   -21011352.938 9 -16356842.49947  21003510.449    21003518.5354
  23725361.336    14612406.420 8  11370460.24945  23725373.421    23725385.1104
  20703576.651   -22120982.240 9 -17208841.48848  20703578.957    20703586.5924
  21713171.055   -14759505.039 8 -11476679.21947  21713175.482    21713182.6084
  21139000.516   -19514130.491 9 -15187317.70847  21139005.116    21139013.2024
  23376216.197    -6401014.467 8  -4970565.86346  23376216.671    23376227.1424
 00  4 21  3 29 30.0000000  0  7 15 21 17 23 09 29 05
  22239443.783   -11513789.878 8  -8937026.03946  22239445.849    22239454.8614
  20992273.756   -21070383.772 9 -16402840.54947  20992277.190    20992285.1344
  23748258.699    14732721.196 8  11464211.86445  23748267.632    23748279.9394
  20706809.974   -22103983.116 9 -17195595.41648  20706813.816    20706821.3624
  21727292.280   -14685302.905 8 -11418859.38647  21727295.273    21727302.8374
  21132016.340   -19550840.387 9 -15215922.77447  21132019.469    21132027.3574
  23363604.028    -6467306.043 8  -5022221.53146  23363602.036    23363612.0954
 00  4 21  3 30  0.0000000  0  7 15 21 17 23 09 29 05
  22228079.303   -11573507.237 8  -8983558.97746  22228081.931    22228090.2974
  20981091.183   -21129160.240 9 -16448640.44747  20981092.810    20981100.4914
  23771177.078    14853137.391 8  11558042.54345  23771182.490    23771195.5244
  20710118.241   -22086608.630 9 -17182056.87648  20710119.913    20710127.6274
  21741500.813   -14610637.148 8 -11360678.30947  21741503.697    21741511.2424
  21125074.471   -19587326.835 9 -15244353.70647  21125076.630    21125084.0934
  23351042.829    -6533304.566 8  -5073648.83146  23351043.064    23351053.0284
 00  4 21  3 30 30.0000000  0  7 15 21 17 23 09 29 05
  22216813.911   -11632688.307 8  -9029674.03946  22216819.782    22216829.0764
  20969953.313   -21187679.133 9 -16494239.55947  20969957.050    20969964.5464
  23794100.417    14973636.035 8  11651937.42446  23794113.301    23794125.5424
  20713498.397   -22068842.515 9 -17168213.15748  20713500.675    20713508.1984
  21755793.379   -14535530.174 8 -11302153.44447  21755796.034    21755804.1374
  21118171.629   -19623597.030 9 -15272616.17447  21118174.641    21118182.1644
  23338537.935    -6598997.894 8  -5124838.33246  23338541.099    23338551.8094
 00  4 21  3 31  0.0000000  0  7 15 21 17 23 09 29 05
  22205654.123   -11691331.076 8  -9075369.63246  22205659.693    22205669.9224
  20958871.082   -21245925.597 9 -16539626.31147  20958872.846    20958880.6074
  23817054.922    15094206.387 8  11745888.19346  23817056.707    23817070.1424
  20716955.150   -22050672.176 9 -17154054.47548  20716958.398    20716966.2224
  21770168.338   -14460007.767 8 -11243304.86847  21770167.551    21770175.6584
  21111310.874   -19659649.763 9 -15300709.15947  21111314.242    21111321.3744
  23326095.857    -6664393.395 8  -5175795.75346  23326096.417    23326107.4854
 00  4 21  3 31 30.0000000  0  7 15 21 17 23 09 29 05
  22194601.666   -11749433.464 8  -9120644.14246  22194602.403    22194613.5534
  20947838.598   -21303897.577 9 -16584799.22147  20947841.626    20947848.4994
  23840013.943    15214847.943 8  11839894.44646  23840013.680    23840027.4454
  20720489.991   -22032087.657 9 -17139573.05448  20720494.776    20720502.6104
  21784612.641   -14384082.965 8 -11184142.72447  21784616.187    21784623.9404
  21104493.559   -19695473.179 9 -15328623.62247  21104497.346    21104503.8654
  23313704.022    -6729502.104 8  -5226529.70946  23313707.629    23313717.3544
 00  4 21  3 32  0.0000000  0  7 15 21 17 23 09 29 05
  22183645.265   -11806993.308 8  -9165495.90946  22183649.912    22183659.1344
  20936859.491   -21361589.726 9 -16629754.06347  20936862.730    20936869.7824
  23862986.592    15335570.192 8  11933963.56546  23862986.805    23862999.8734
  20724103.374   -22013100.321 9 -17124777.75548  20724107.772    20724115.9034
  21799134.272   -14307769.525 8 -11124677.75847  21799137.835    21799146.3794
  21097721.199   -19731065.426 9 -15356357.85447  21097724.079    21097730.9164
  23301371.176    -6794307.446 8  -5277027.25446  23301374.893    23301385.1554
 00  4 21  3 32 30.0000000  0  7 15 21 17 23 09 29 05
  22172795.680   -11864008.604 8  -9209923.37046  22172801.455    22172809.4464
  20925935.002   -21418996.682 9 -16674486.68547  20925938.532    20925945.5654
  23885977.610    15456384.046 8  12028104.07646  23885978.022    23885990.6974
  20727793.830   -21993727.240 9 -17109681.87748  20727794.408    20727802.4844
  21813727.416   -14231079.900 8 -11064919.65947  21813731.582    21813739.1474
  21090990.881   -19766431.347 9 -15383915.62647  21090994.438    21091001.0434
  23289100.877    -6858797.984 8  -5327279.53546  23289102.845    23289113.4304
 00  4 21  3 33  0.0000000  0  7 15 21 17 23 09 29 05
  22162054.181   -11920477.280 8  -9253924.87546  22162055.185    22162063.5034
  20915063.815   -21476126.220 9 -16719003.12347  20915067.057    20915074.3724
  23908984.261    15577296.628 8  12122321.50345  23908986.354    23908998.9374
  20731546.499   -21973997.903 9 -17094308.40648  20731548.929    20731556.9184
  21828395.993   -14153994.116 8 -11004852.84147  21828399.841    21828408.2884
  21084306.992   -19801561.783 9 -15411289.94347  21084309.772    21084316.2444
  23276886.871    -6922981.415 8  -5377292.48246  23276889.137    23276900.6054
 00  4 21  3 33 30.0000000  0  7 15 21 17 23 09 29 05
  22151412.521   -11976397.162 8  -9297498.75646  22151414.181    22151422.4854
  20904246.306   -21532986.159 9 -16763309.54447  20904247.257    20904254.6034
  23932015.312    15698307.037 8  12216615.19145  23932014.767    23932027.1034
  20735365.977   -21953925.683 9 -17078667.73648  20735368.601    20735376.6314
  21843144.249   -14076492.423 8 -10944461.93247  21843148.362    21843155.7804
  21077665.580   -19836458.935 9 -15438482.46147  21077668.492    21077675.7004
  23264735.727    -6986842.931 8  -5427054.60446  23264737.051    23264746.5964
 00  4 21  3 34  0.0000000  0  7 15 21 17 23 09 29 05
  22140874.807   -12031766.251 8  -9340643.47246  22140877.886    22140887.1964
  20893478.152   -21589566.249 9 -16807397.90647  20893480.117    20893487.6784
  23955054.102    15819414.746 8  12310984.68645  23955060.957    23955072.2484
  20739249.102   -21933514.378 9 -17062762.83948  20739252.698    20739260.7384
  21857972.261   -13998576.211 8 -10883748.00047  21857975.541    21857982.9884
  21071067.990   -19871131.723 9 -15465500.19447  21071071.017    21071077.5054
  23252641.776    -7050372.353 8  -5476557.93146  23252646.607    23252657.2864
 00  4 21  3 34 30.0000000  0  7 15 21 17 23 09 29 05
  22130445.984   -12086582.451 8  -9383357.35146  22130446.655    22130456.0364
  20882764.171   -21645858.379 9 -16851261.85247  20882767.688    20882775.6354
  23978118.546    15940614.649 8  12405426.03445  23978123.744    23978136.9084
  20743203.362   -21912753.692 9 -17046585.68348  20743203.468    20743211.3684
  21872880.181   -13920242.546 9 -10822708.81647  21872882.835    21872889.7924
  21064514.985   -19905573.444 9 -15492337.89147  21064516.661    21064523.2854
  23240616.688    -7113571.065 8  -5525803.56346  23240619.822    23240630.2584
 00  4 21  3 35  0.0000000  0  7 15 21 17 23 09 29 05
  22120111.739   -12140843.942 8  -9425638.99446  22120120.482    22120130.4874
  20872107.605   -21701859.205 9 -16894898.86147  20872111.036    20872118.8224
  24001209.185    16061902.677 8  12499936.01645  24001205.043    24001216.6174
  20747221.940   -21891621.566 9 -17030119.11948  20747224.615    20747232.4044
  21887862.389   -13841500.165 8 -10761351.17147  21887866.444    21887874.1844
  21058001.944   -19939784.880 9 -15518996.02247  21058005.599    21058013.0824
  23228657.658    -7176436.169 8  -5574789.25546  23228656.931    23228667.5744
 00  4 21  3 35 30.0000000  0  7 15 21 17 23 09 29 05
  22109900.308   -12194548.772 8  -9467486.90246  22109901.169    22109910.4854
  20861511.337   -21757551.793 9 -16938295.52747  20861512.917    20861520.9434
  24024295.315    16183272.308 8  12594509.57145  24024300.631    24024313.4454
  20751320.722   -21870084.083 9 -17013336.69448  20751323.214    20751330.7854
  21902923.416   -13762370.032 9 -10699691.36247  21902925.364    21902931.9584
  21051535.162   -19973778.030 9 -15545484.18647  21051537.406    21051544.1004
  23216760.295    -7238963.007 8  -5623511.35046  23216759.613    23216768.7884
 00  4 21  3 36  0.0000000  0  7 15 21 17 23 09 29 05
  22099781.422   -12247694.830 8  -9508899.39446  22099787.464    22099796.9864
  20850970.360   -21812940.903 9 -16981455.72047  20850972.495    20850980.6864
  24047407.438    16304715.596 8  12689140.57945  24047411.264    24047421.8804
  20755498.651   -21848134.180 9 -16996232.88048  20755500.294    20755507.8724
  21918049.801   -13682869.012 8 -10637742.49947  21918052.903    21918060.6834
  21045107.865   -20007556.421 9 -15571805.03647  21045109.773    21045116.4254
  23204926.115    -7301151.414 8  -5671969.76446  23204925.443    23204935.7784
 00  4 21  3 36 30.0000000  0  7 15 21 17 23 09 29 05
  22089780.388   -12300280.225 8  -9549875.00746  22089781.676    22089790.8894
  20840487.666   -21868026.091 9 -17024379.16847  20840490.478    20840498.3894
  24070527.019    16426228.848 8  12783826.06345  24070533.715    24070545.4984
  20759752.999   -21825778.958 9 -16978813.23648  20759754.321    20759762.1744
  21933250.160   -13602988.318 8 -10575497.88947  21933253.687    21933261.8694
  21038720.017   -20041113.866 9 -15597953.65147  21038723.982    21038730.4574
  23193152.833    -7363002.340 8  -5720165.17646  23193155.462    23193165.2844
 00  4 21  3 37  0.0000000  0  7 15 21 17 23 09 29 05
  22079876.463   -12352303.022 8  -9590412.20546  22079881.628    22079889.8884
  20830063.446   -21922806.412 9 -17067065.17748  20830066.412    20830073.8344
  24093657.677    16547799.898 7  12878556.62045  24093669.146    24093679.9934
  20764080.199   -21803035.812 9 -16961091.30648  20764082.242    20764090.1504
  21948528.779   -13522709.388 8 -10512942.99547  21948529.781    21948537.3014
  21032376.096   -20074459.292 9 -15623937.02747  21032378.561    21032384.7934
  23181442.599    -7424519.645 8  -5768100.63946  23181448.099    23181457.9244
 00  4 21  3 37 30.0000000  0  7 15 21 17 23 09 29 05
  22070084.643   -12403761.330 8  -9630509.58146  22070089.515    22070097.3874
  20819696.624   -21977283.260 9 -17109514.75847  20819699.885    20819707.3624
  24116818.007    16669433.982 7  12973336.28945  24116814.189    24116825.6324
  20768478.880   -21779919.228 9 -16943078.40348  20768480.696    20768488.8664
  21963883.996   -13442025.565 8 -10450072.52247  21963883.904    21963890.5234
  21026070.886   -20107595.911 9 -15649757.69747  21026073.036    21026079.1484
  23169805.222    -7485708.801 8  -5815780.39646  23169803.973    23169814.7844
 00  4 21  3 38  0.0000000  0  7 15 21 17 23 09 29 05
  22060404.518   -12454653.343 8  -9670165.67446  22060405.561    22060413.4884
  20809387.126   -22031460.106 9 -17151730.57648  20809390.347    20809397.9334
  24139966.325    16791127.824 7  13068162.49745  24139971.944    24139986.0274
  20772944.482   -21756449.327 9 -16924790.18548  20772946.894    20772955.0184
  21979320.080   -13360923.814 8 -10386876.37647  21979317.118    21979324.7924
  21019805.255   -20140521.120 9 -15675413.62847  21019807.357    21019813.5984
  23158219.523    -7546573.121 8  -5863207.03846  23158221.999    23158232.0294
 00  4 21  3 38 30.0000000  0  8 15 21 17 23 09 29 05 30
  22050825.524   -12504977.033 8  -9709378.94246  22050828.982    22050836.5244
  20799137.698   -22085327.491 9 -17193705.25348  20799139.905    20799147.3524
  24163126.724    16912884.359 7  13163037.54845  24163141.281    24163153.2824
  20777478.362   -21732617.416 9 -16906219.87847  20777482.110    20777490.1624
  21994822.546   -13279398.743 8 -10323350.41147  21994830.341    21994837.6534
  21013578.575   -20173239.989 9 -15700908.78547  21013580.895    21013587.6454
  23146696.043    -7607112.470 8  -5910380.46346  23146702.254    23146712.2294
  24381080.197      -85962.17617
 00  4 21  3 39  0.0000000  0  8 15 21 17 23 09 29 05 30
  22041355.880   -12554730.877 8  -9748148.14846  22041360.022    22041369.8024
  20788943.483   -22138891.683 9 -17235443.58948  20788946.972    20788954.4494
  24186323.248    17034699.657 7  13257958.40345  24186321.976    24186334.1194
  20782089.061   -21708402.025 9 -16887350.76247  20782090.304    20782098.0234
  22010420.207   -13197473.971 8 -10259512.92947  22010420.694    22010428.3194
  21007388.467   -20205769.849 9 -15726256.77347  21007390.571    21007397.6304
  23135243.243    -7667324.469 8  -5957298.80246  23135244.067    23135253.9304
  24363106.817     -180451.155 7   -123369.70855  24363119.800    24363133.8414
 00  4 21  3 39 30.0000000  0  8 15 21 17 23 09 29 05 30
  22032000.335   -12603912.889 8  -9786471.79346  22032000.771    22032010.5254
  20778808.741   -22192155.710 9 -17276947.96647  20778810.877    20778818.5604
  24209513.893    17156571.305 7  13352923.10845  24209514.081    24209526.3744
  20786774.753   -21683778.652 9 -16868163.73247  20786775.989    20786783.9314
  22026077.290   -13115183.515 8 -10195390.53947  22026079.579    22026087.5714
  21001234.182   -20238108.739 9 -15751455.91047  21001236.723    21001243.5524
  23123849.931    -7727203.413 8  -6003957.63246  23123849.537    23123860.4054
  24345136.498     -274916.335 7   -196978.72645  24345147.154    24345158.3564
 00  4 21  3 40  0.0000000  0  8 15 21 17 23 09 29 05 30
  22022746.333   -12652521.211 8  -9824348.39746  22022751.261    22022760.5754
  20768729.198   -22245111.718 9 -17318212.37147  20768733.386    20768741.1044
  24232700.803    17278475.611 7  13447913.26844  24232712.841    24232723.6214
  20791534.991   -21658746.808 9 -16848658.43047  20791539.192    20791547.2544
  22041809.532   -13032530.799 8 -10130985.85347  22041808.310    22041816.1694
  20995118.701   -20270249.984 9 -15776501.05647  20995120.318    20995127.5354
  23112514.572    -7786735.122 8  -6050345.83846  23112519.862    23112530.7644
  24327157.372     -369364.645 7   -270574.64745  24327172.688    24327185.9844
 00  4 21  3 40 30.0000000  0  8 15 21 17 23 09 29 05 30
  22013607.485   -12700554.002 8  -9861776.53146  22013611.430    22013620.6054
  20758712.747   -22297755.668 9 -17359233.68547  20758715.980    20758723.3744
  24255924.994    17400418.732 7  13542933.73844  24255916.539    24255930.4174
  20796378.614   -21633297.514 9 -16828827.82847  20796382.346    20796390.2284
  22057597.175   -12949537.057 8 -10066315.46947  22057600.617    22057609.7534
  20989039.036   -20302191.091 9 -15801390.39747  20989042.371    20989049.3294
  23101256.824    -7845911.873 8  -6096457.51546  23101259.873    23101269.7004
  24309208.386     -463786.748 7   -344150.12245  24309204.685    24309217.2294
 00  4 21  3 41  0.0000000  0  8 15 21 17 23 09 29 05 30
  22004580.669   -12748009.621 8  -9898754.89846  22004581.779    22004589.5984
  20748757.022   -22350081.427 9 -17400007.03447  20748758.544    20748766.0164
  24279119.578    17522392.834 7  13637978.30944  24279127.385    24279140.8634
  20801297.240   -21607444.396 9 -16808682.57147  20801301.896    20801309.8284
  22073456.267   -12866209.641 8 -10001385.06047  22073457.641    22073465.9784
  20983000.574   -20333920.478 9 -15826114.58647  20983004.571    20983011.2274
  23090068.749    -7904725.888 8  -6142286.52246  23090068.304    23090077.1584
  24291249.787     -558177.208 7   -417700.94245  24291243.416    24291255.0594
 00  4 21  3 41 30.0000000  0  8 15 21 17 23 09 29 05 30
  21995658.833   -12794886.764 8  -9935282.51747  21995662.225    21995668.8764
  20738860.627   -22402079.280 9 -17440525.00647  20738863.825    20738870.8114
  24302345.018    17644394.634 7  13733044.50444  24302344.415    24302359.0144
  20806292.553   -21581212.492 9 -16788242.15247  20806293.717    20806301.4454
  22089377.449   -12782535.171 8  -9936184.18447  22089380.904    22089388.4164
  20977006.440   -20365422.061 9 -15850661.29547  20977009.993    20977016.6824
  23078947.193    -7963163.439 8  -6187822.20446  23078947.497    23078957.4454
  24273280.040     -652547.150 7   -491235.77945  24273284.981    24273297.0744
 00  4 21  3 42  0.0000000  0  9 15 21 17 23 09 29 05 30 25
  21986849.794   -12841183.328 8  -9971357.72246  21986851.253    21986859.1924
  20729028.134   -22453743.986 9 -17480783.23747  20729032.447    20729039.2494
  24325572.710    17766429.730 7  13828136.57244  24325568.756    24325578.7014
  20811352.941   -21554619.227 9 -16767520.16647  20811354.580    20811361.9384
  22105366.002   -12698501.354 8  -9870703.32947  22105372.131    22105380.1884
  20971056.915   -20396693.437 9 -15875028.52147  20971059.272    20971065.8534
  23067897.318    -8021211.637 8  -6233054.48646  23067900.971    23067911.1404
  24255331.773     -746892.828 7   -564751.63845  24255332.330    24255342.7944
  24719709.244    -2845740.26817  -2204416.02055  24719715.764    24719726.9624
 00  4 21  3 42 30.0000000  0  9 15 21 17 23 09 29 05 30 25
  21978149.935   -12886897.472 8 -10006979.09546  21978150.920    21978159.7674
  20719259.809   -22505081.161 9 -17520786.20247  20719263.313    20719270.6994
  24348796.226    17888504.229 7  13923259.34844  24348796.489    24348808.8554
  20816483.247   -21527655.841 9 -16746509.74947  20816485.371    20816493.3394
  22121429.341   -12614109.660 8  -9804943.58647  22121431.280    22121439.5984
  20965150.064   -20427737.567 9 -15899218.60947  20965151.760    20965158.4204
  23056927.456    -8078874.553 8  -6277986.52546  23056928.242    23056938.6724
  24237381.292     -841196.459 7   -638234.81545  24237386.439    24237398.3064
  24699884.191    -2949928.263 8  -2285601.35745  24699890.893    24699898.8694
 00  4 21  3 43  0.0000000  0  9 15 21 17 23 09 29 05 30 25
  21969559.834   -12932027.451 8 -10042145.28646  21969563.211    21969571.4804
  20709551.024   -22556095.923 9 -17560537.97347  20709555.254    20709562.9364
  24372008.316    18010601.148 7  14018399.61644  24372028.820    24372045.2014
  20821682.090   -21500329.999 9 -16725216.91847  20821685.131    20821693.2194
  22137560.124   -12529337.188 8  -9738887.10647  22137562.568    22137570.0334
  20959284.525   -20458554.008 9 -15923231.37647  20959287.581    20959294.4224
  23046028.139    -8136142.946 8  -6322611.16346  23046030.428    23046040.3954
  24219445.514     -935462.618 8   -711688.77045  24219447.800    24219458.6844
  24680089.211    -3054029.605 7  -2366719.15845  24680078.199    24680089.7724
 00  4 21  3 43 30.0000000  0  9 15 21 17 23 09 29 05 30 25
  21961083.581   -12976571.654 8 -10076855.01946  21961086.809    21961095.2194
  20699906.133   -22606790.497 9 -17600040.30847  20699908.232    20699916.1694
  24395274.655    18132723.883 7  14113559.98544  24395270.905    24395285.7264
  20826955.679   -21472630.870 9 -16703633.21147  20826956.490    20826964.1514
  22153762.813   -12444177.288 8  -9672528.74047  22153768.731    22153777.0824
  20953465.254   -20489140.433 9 -15947064.96647  20953467.148    20953474.1894
  23035201.796    -8193025.876 8  -6366935.43646  23035205.817    23035216.0094
  24201512.362    -1029693.019 8   -785114.88545  24201516.141    24201526.1674
  24660285.008    -3158047.988 7  -2447772.27745  24660285.026    24660295.7274
 00  4 21  3 44  0.0000000  0  9 15 21 17 23 09 29 05 30 25
  21952719.337   -13020528.775 8 -10111107.28046  21952722.281    21952729.9604
  20690318.815   -22657170.519 9 -17639297.53047  20690321.545    20690329.1554
  24418508.249    18254878.582 6  14208745.22044  24418516.529    24418529.7384
  20832300.310   -21444536.791 9 -16681741.74247  20832302.740    20832310.2654
  22170039.998   -12358642.005 8  -9605877.89647  22170045.398    22170053.5454
  20947687.472   -20519498.668 9 -15970720.78647  20947690.508    20947697.0674
  23024448.633    -8249540.202 8  -6410972.47646  23024451.434    23024460.7134
  24183597.593    -1123877.427 8   -858505.20545  24183593.285    24183603.1504
  24640484.705    -3261972.048 7  -2528751.92245  24640507.921    24640518.9654
 00  4 21  3 44 30.0000000  0  8 15 21 23 09 29 05 30 25
  21944468.566   -13063897.130 8 -10144900.75346  21944470.082    21944477.5934
  20680792.060   -22707236.164 9 -17678309.75148  20680794.397    20680802.6004
  20837722.435   -21416047.635 9 -16659542.42247  20837724.049    20837731.6324
  22186388.887   -12272735.774 8  -9538938.01447  22186392.464    22186400.3244
  20941953.230   -20549630.403 9 -15994200.08047  20941956.206    20941962.6934
  23013762.884    -8305696.547 8  -6454730.58346  23013765.009    23013774.2924
  24165672.113    -1218025.785 8   -931867.39545  24165677.411    24165689.2704
  24620755.274    -3365797.367 7  -2609654.61845  24620750.880    24620761.5064
 00  4 21  3 45  0.0000000  0  8 15 21 23 09 29 05 30 25
  21936328.026   -13106675.114 8 -10178234.18346  21936329.299    21936337.6264
  20671325.915   -22756986.183 9 -17717076.05848  20671327.302    20671335.5354
  20843215.711   -21387167.937 9 -16637038.79547  20843219.412    20843227.3104
  22202809.147   -12186465.577 8  -9471714.56146  22202809.451    22202817.2914
  20936260.882   -20579536.173 9 -16017503.34047  20936265.513    20936271.7454
  23003149.099    -8361484.856 8  -6498201.91146  23003149.344    23003158.2854
  24147769.071    -1312143.002 8  -1005205.30145  24147767.375    24147778.5214
  24601014.940    -3469509.822 7  -2690469.34845  24601013.742    24601025.7774
 00  4 21  3 45 30.0000000  0  8 15 21 23 09 29 05 30 25
  21928299.513   -13148861.141 8 -10211106.36447  21928301.852    21928310.2724
  20661919.335   -22806419.245 9 -17755595.39148  20661920.899    20661928.6384
  20848791.300   -21357884.776 9 -16614220.76547  20848791.840    20848799.7474
  22219284.395   -12099864.757 8  -9404233.45146  22219288.799    22219296.3574
  20930614.975   -20609221.635 9 -16040634.84247  20930616.626    20930623.0964
  22992596.513    -8416918.374 8  -6541396.76846  22992600.584    22992610.0174
  24129864.846    -1406225.535 8  -1078516.15745  24129863.841    24129875.4644
  24581292.575    -3573102.954 7  -2771191.08345  24581300.215    24581313.3094
 00  4 21  3 46  0.0000000  0  8 15 21 23 09 29 05 30 25
  21920384.557   -13190453.741 8 -10243516.11747  21920386.345    21920395.9764
  20652572.358   -22855531.804 9 -17793864.94448  20652575.194    20652582.6334
  20854435.863   -21328205.295 9 -16591093.92447  20854439.423    20854447.6684
  22235825.913   -12012952.233 8  -9336509.48546  22235828.469    22235834.9904
  20925004.723   -20638696.977 9 -16063602.49247  20925006.972    20925013.8214
  22982121.646    -8471973.723 8  -6584296.93946  22982123.244    22982133.5894
  24111968.882    -1500269.267 8  -1151796.79645  24111966.982    24111979.3324
  24561622.590    -3676568.558 8  -2851813.45145  24561613.473    24561624.4864
 00  4 21  3 46 30.0000000  0  8 15 21 23 09 29 05 30 25
  21912582.050   -13231451.375 8 -10275462.25847  21912583.857    21912594.3554
  20643287.865   -22904321.443 9 -17831882.83948  20643290.435    20643298.4014
  20860158.424   -21298144.521 9 -16567669.98547  20860160.333    20860168.3314
  22252425.228   -11925727.384 8  -9268542.13546  22252426.598    22252433.9774
  20919437.864   -20667962.509 9 -16086406.71547  20919438.513    20919444.8914
  22971719.972    -8526632.608 8  -6626888.17646  22971722.335    22971732.7644
  24094076.767    -1594276.674 8  -1225049.12046  24094079.053    24094090.8874
  24541953.319    -3779905.996 8  -2932335.93645  24541948.561    24541960.1044
 00  4 21  3 47  0.0000000  0  8 15 21 23 09 29 05 30 25
  21904895.102   -13271852.566 8 -10306943.64147  21904895.744    21904906.1424
  20634065.582   -22952780.435 9 -17869643.05248  20634068.494    20634077.0534
  20865952.510   -21267697.478 9 -16543945.03747  20865954.197    20865961.9424
  22269080.483   -11838199.411 8  -9200338.58346  22269082.128    22269090.3164
  20913906.827   -20697011.367 9 -16109042.23247  20913910.231    20913917.0994
  22961394.809    -8580882.622 8  -6669160.82046  22961398.802    22961409.0874
  24076198.631    -1688235.310 8  -1298263.43846  24076199.392    24076209.3834
  24522303.406    -3883120.253 8  -3012762.51445  24522308.415    24522319.5584
 00  4 21  3 47 30.0000000  0  8 15 21 23 09 29 05 30 25
  21897317.630   -13311655.943 8 -10337959.21947  21897321.673    21897331.0854
  20624912.952   -23000882.795 9 -17907125.40948  20624915.491    20624923.1964
  20871819.238   -21236864.102 9 -16519919.04247  20871821.642    20871829.6334
  22285793.026   -11750369.886 8  -9131900.06646  22285795.913    22285803.5814
  20908421.960   -20725847.322 9 -16131511.88747  20908423.431    20908430.0044
  22951147.446    -8634722.698 8  -6711114.03846  22951153.301    22951162.6354
  24058328.982    -1782141.651 8  -1371436.99945  24058328.524    24058339.6404
  24502690.111    -3986219.656 8  -3093099.57845  24502687.974    24502699.1104
 00  4 21  3 48  0.0000000  0  8 15 21 23 09 29 05 30 25
  21889861.286   -13350860.130 8 -10368507.88846  21889861.369    21889870.3464
  20615829.482   -23048610.858 9 -17944316.05648  20615832.853    20615840.8884
  20877758.479   -21205655.642 9 -16495600.78347  20877760.173    20877768.0284
  22302568.870   -11662227.098 8  -9063217.39646  22302569.356    22302577.1644
  20902974.613   -20754466.817 9 -16153812.88647  20902977.249    20902984.0804
  22940984.420    -8688140.311 8  -6752738.07946  22940988.103    22940996.9844
  24040473.366    -1875989.380 8  -1444564.90745  24040470.209    24040480.9904
  24483075.366    -4089215.504 7  -3173355.94345  24483088.653    24483099.6914
 00  4 21  3 48 30.0000000  0  8 15 21 23 09 29 05 30 25
  21882515.485   -13389463.723 8 -10398588.57846  21882515.775    21882524.5344
  20606819.920   -23095958.341 9 -17981210.09948  20606822.991    20606831.1034
  20883771.317   -21174052.637 9 -16470975.09147  20883774.262    20883782.2384
  22319399.285   -11573757.400 8  -8994279.98046  22319404.116    22319411.5754
  20897570.071   -20782876.615 9 -16175950.40247  20897570.868    20897577.5984
  22930898.297    -8741148.337 8  -6794042.95146  22930900.382    22930909.7624
  24022617.442    -1969779.113 8  -1517647.61845  24022622.742    24022633.5234
  24463504.409    -4192108.715 8  -3253532.33145  24463508.630    24463519.4514
 00  4 21  3 49  0.0000000  0  8 15 21 23 09 29 05 30 25
  21875283.276   -13427465.353 8 -10428200.19246  21875284.667    21875292.2294
  20597887.353   -23142904.432 9 -18017791.44848  20597889.825    20597897.5664
  20889864.111   -21142036.442 9 -16446027.40747  20889866.630    20889874.5714
  22336300.981   -11484953.728 8  -8925082.36946  22336302.650    22336311.2964
  20892199.562   -20811087.874 9 -16197933.08647  20892202.018    20892209.5714
  22920889.102    -8793750.536 8  -6835031.62046  22920891.077    22920900.8284
  24004787.325    -2063503.204 8  -1590679.19845  24004787.396    24004797.8564
  24443944.173    -4294896.785 7  -3333626.75145  24443947.062    24443958.2374
 00  4 21  3 49 30.0000000  0  8 15 21 23 09 29 05 30 25
  21868164.383   -13464863.471 8 -10457341.54747  21868167.508    21868176.6784
  20589031.094   -23189449.725 9 -18054060.47048  20589032.770    20589040.0954
  20896036.076   -21109601.004 9 -16420753.06947  20896039.147    20896046.8494
  22353264.436   -11395807.240 8  -8855617.67746  22353267.156    22353274.9854
  20886867.786   -20839109.370 9 -16219767.97147  20886869.921    20886877.4624
  22910951.832    -8845960.400 8  -6875714.55246  22910955.739    22910965.1084
  23986965.675    -2157161.175 8  -1663659.26245  23986963.831    23986975.1714
  24424397.587    -4397577.276 8  -3413637.37545  24424409.150    24424420.3114
 00  4 21  3 50  0.0000000  0  8 15 21 23 09 29 05 30 25
  21861163.711   -13501656.798 8 -10486011.61447  21861165.690    21861175.3764
  20580244.542   -23235615.608 9 -18090033.85648  20580247.544    20580255.0984
  20902290.819   -21076742.390 9 -16395148.98947  20902291.773    20902300.0154
  22370295.045   -11306313.389 8  -8785882.22046  22370297.757    22370304.4904
  20881572.571   -20866930.162 9 -16241446.43947  20881576.278    20881582.9344
  22901089.662    -8897782.538 8  -6916095.34746  22901093.904    22901104.0604
  23969156.934    -2250748.043 8  -1736583.89545  23969154.302    23969165.7694
  24404891.192    -4500132.448 8  -3493550.32445  24404893.118    24404904.3624
 00  4 21  3 50 30.0000000  0  8 15 21 23 09 29 05 30 25
  21854275.322   -13537843.989 8 -10514209.38447  21854279.587    21854289.1484
  20571530.048   -23281414.207 9 -18125721.02548  20571532.323    20571539.9504
  20908622.366   -21043458.047 9 -16369213.16847  20908624.970    20908633.7724
  22387390.277   -11216471.675 8  -8715875.73946  22387393.799    22387402.0224
  20876317.446   -20894549.530 9 -16262968.12947  20876320.364    20876326.9284
  22891308.319    -8949214.363 8  -6956172.02146  22891307.220    22891316.6794
  23951354.393    -2344250.741 8  -1809442.96545  23951361.695    23951373.1014
  24385400.689    -4602540.953 7  -3573349.04145  24385405.321    24385416.0004
 00  4 21  3 51  0.0000000  0  8 15 21 23 09 29 05 30 25
  21847505.109   -13573423.844 8 -10541933.93346  21847508.654    21847517.4724
  20562883.362   -23326847.873 9 -18161123.84948  20562886.483    20562893.8254
  20915033.291   -21009775.902 9 -16342967.37247  20915034.636    20915043.1264
  22404550.897   -11126296.569 8  -8645609.50446  22404553.213    22404561.5074
  20871102.151   -20921958.205 9 -16284325.64047  20871104.464    20871111.1354
  22881593.960    -9000255.758 8  -6995944.45446  22881594.906    22881603.4664
  23933589.438    -2437648.362 8  -1882220.13945  23933588.775    23933599.7974
  24365944.236    -4704808.524 7  -3653037.91445  24365944.846    24365954.8514
 00  4 21  3 51 30.0000000  0  8 15 21 23 09 29 05 30 25
  21840849.716   -13608394.994 8 -10569184.11847  21840854.757    21840862.9074
  20554304.085   -23371931.786 9 -18196254.15548  20554307.079    20554314.7054
  20921516.399   -20975703.837 9 -16316417.74447  20921518.620    20921526.9094
  22421768.722   -11035807.277 8  -8575098.39646  22421772.885    22421781.8644
  20865926.604   -20949150.935 9 -16305514.74547  20865930.164    20865936.7514
  22871955.738    -9050897.247 8  -7035405.29446  22871957.697    22871966.8214
  23915838.627    -2530940.704 8  -1954915.31046  23915835.347    23915847.1514
  24346499.760    -4806936.417 7  -3732617.90545  24346510.212    24346520.4824
 00  4 21  3 52  0.0000000  0  8 15 21 23 09 29 05 30 25
  21834315.551   -13642756.361 8 -10595959.12847  21834316.062    21834323.2424
  20545791.470   -23416666.842 9 -18231112.58248  20545794.151    20545801.7654
  20928075.081   -20941246.617 9 -16289568.00047  20928076.069    20928084.1314
  22439044.573   -10945021.206 8  -8504356.04346  22439048.166    22439057.0694
  20860795.791   -20976121.924 9 -16326531.15547  20860797.597    20860803.9634
  22862396.135    -9101120.281 8  -7074540.06346  22862399.589    22862408.6934
  23898103.454    -2624122.998 8  -2027524.70746  23898103.628    23898114.5474
  24327093.138    -4908928.712 7  -3812092.22845  24327100.817    24327112.7574
 00  4 21  3 52 30.0000000  0  8 15 21 23 09 29 05 30 25
  21827888.743   -13676506.670 8 -10622258.04046  21827892.620    21827901.3234
  20537346.225   -23461044.888 9 -18265692.86148  20537349.056    20537356.9934
  20934702.946   -20906409.343 9 -16262422.10647  20934705.220    20934713.5324
  22456372.921   -10853948.047 8  -8433390.00746  22456378.929    22456388.3104
  20855700.786   -21002884.330 9 -16347384.83147  20855704.786    20855711.5424
  22852922.192    -9150909.107 8  -7113336.47646  22852925.175    22852935.0534
  23880388.266    -2717202.475 8  -2100053.97346  23880391.409    23880402.2254
  24307722.115    -5010803.215 8  -3891474.76345  24307715.484    24307725.4394
 00  4 21  3 53  0.0000000  0  8 15 21 23 09 29 05 30 25
  21821584.918   -13709644.350 8 -10648079.56647  21821587.046    21821594.9004
  20528972.917   -23505058.165 9 -18299988.94948  20528974.142    20528981.4154
  20941406.257   -20871182.549 9 -16234972.69147  20941408.776    20941416.8444
  22473764.676   -10762594.154 8  -8362205.28346  22473762.962    22473772.1054
  20850648.255   -21029436.352 9 -16368074.64647  20850651.634    20850658.5744
  22843530.473    -9200258.748 8  -7151790.65646  22843534.229    22843543.6794
  23862684.033    -2810208.075 8  -2172525.69146  23862691.916    23862703.5964
  24288351.163    -5112562.008 8  -3970767.16845  24288351.833    24288361.5284
 00  4 21  3 53 30.0000000  0  8 15 21 23 09 29 05 30 25
  21815396.194   -13742168.480 8 -10673422.98947  21815398.468    21815405.4984
  20520663.756   -23548715.753 9 -18334007.78948  20520666.285    20520673.4294
  20948185.481   -20835548.048 9 -16207205.58247  20948189.408    20948197.5284
  22491192.273   -10670957.857 8  -8290800.39146  22491201.825    22491209.6764
  20845638.998   -21055762.819 9 -16388588.79647  20845642.146    20845649.0154
  22834228.357    -9249158.293 8  -7189894.12446  22834229.732    22834239.5194
  23845003.867    -2903155.612 8  -2244952.17346  23845004.646    23845015.9984
  24269015.586    -5214194.003 8  -4049960.79545  24269011.414    24269020.9204
 00  4 21  3 54  0.0000000  0  8 15 21 23 09 29 05 30 25
  21809321.776   -13774078.063 8 -10698287.54947  21809325.858    21809334.2874
  20512422.983   -23592019.381 9 -18367750.76648  20512425.627    20512432.9324
  20955044.272   -20799516.431 9 -16179129.03047  20955046.242    20955054.3784
  22508693.832   -10579024.659 8  -8219164.16946  22508694.998    22508704.6594
  20840675.244   -21081857.313 9 -16408922.23447  20840677.050    20840683.4534
  22825006.855    -9297610.910 8  -7227649.35546  22825009.367    22825019.0474
  23827323.448    -2996035.461 8  -2317325.90346  23827331.112    23827340.9584
  24249691.115    -5315691.894 8  -4129049.94345  24249696.611    24249705.6974
 00  4 21  3 54 30.0000000  0  8 15 21 23 09 29 05 30 25
  21803368.293   -13805372.209 8 -10722672.57147  21803370.605    21803378.3574
  20504249.768   -23634967.540 9 -18401216.84448  20504252.973    20504260.2604
  20961975.690   -20763094.887 9 -16150748.62547  20961977.119    20961985.1984
  22526240.515   -10486789.235 8  -8147292.45346  22526247.027    22526256.0014
  20835749.720   -21107727.887 9 -16429080.97348  20835753.487    20835760.1244
  22815870.612    -9345623.859 8  -7265061.94746  22815872.059    22815882.0734
  23809676.314    -3088846.601 8  -2389646.08946  23809669.333    23809679.9184
  24230401.776    -5417043.065 7  -4208024.77045  24230410.213    24230419.0744
 00  4 21  3 55  0.0000000  0  8 15 21 23 09 29 05 30 25
  21797530.862   -13836049.731 8 -10746577.08647  21797532.712    21797541.5004
  20496146.424   -23677565.577 9 -18434410.05648  20496147.221    20496154.3144
  20968981.667   -20726278.913 9 -16122060.89447  20968983.086    20968990.9004
  22543851.416   -10394256.252 8  -8075188.82646  22543855.475    22543865.4684
  20830873.108   -21133367.448 9 -16449059.63048  20830874.725    20830881.0404
  22806815.501    -9393217.466 8  -7302147.80446  22806815.662    22806825.3074
  23792017.129    -3181567.691 8  -2461896.13446  23792024.187    23792035.9764
  24211147.427    -5518232.315 7  -4286873.36645  24211152.188    24211164.5344
 00  4 21  3 55 30.0000000  0  8 15 21 23 09 29 05 30 25
  21791809.576   -13866109.571 8 -10770000.30847  21791812.349    21791821.3194
  20488104.713   -23719809.651 9 -18467327.45548  20488107.829    20488115.4254
  20976059.489   -20689078.516 9 -16093073.59547  20976062.186    20976070.1294
  22561516.466   -10301423.768 8  -8002851.89746  22561521.739    22561530.3224
  20826034.172   -21158783.448 9 -16468864.17048  20826037.649    20826044.7554
  22797833.278    -9440395.329 8  -7338909.70146  22797837.692    22797846.6344
  23774393.964    -3274171.589 8  -2534054.84646  23774402.318    23774413.3204
  24191925.324    -5619263.891 7  -4365599.08745  24191927.607    24191938.6994
 00  4 21  3 56  0.0000000  0  8 15 21 23 09 29 05 30 25
  21786209.361   -13895550.546 8 -10792941.32447  21786210.594    21786218.0144
  20480138.983   -23761674.910 9 -18499949.68548  20480140.970    20480148.5714
  20983211.917   -20651490.799 9 -16063784.49747  20983214.542    20983222.9434
  22579238.307   -10208291.961 8  -7930281.70346  22579243.303    22579252.0024
  20821235.017   -21183999.734 9 -16488513.15748  20821238.889    20821245.9714
  22788928.464    -9487159.080 8  -7375348.89546  22788938.186    22788948.1834
  23756794.984    -3366656.155 8  -2606120.59545  23756803.343    23756813.1784
  24172731.253    -5720146.162 8  -4444208.49445  24172730.527    24172741.8684
 00  4 21  3 56 30.0000000  0  8 15 21 23 09 29 05 30 25
  21780726.121   -13924371.830 8 -10815399.44747  21780726.615    21780733.3574
  20472246.777   -23803150.075 9 -18532267.99748  20472248.805    20472256.1844
  20990441.838   -20613493.092 9 -16034175.92147  20990445.024    20990453.2274
  22597020.906   -10114875.289 8  -7857489.55346  22597021.223    22597029.7394
  20816474.499   -21209028.280 9 -16508016.06648  20816477.072    20816483.5844
  22780114.740    -9533514.535 8  -7411469.97146  22780117.899    22780126.6364
  23739220.610    -3459025.957 8  -2678096.88646  23739225.471    23739236.1964
  24153553.294    -5820889.567 8  -4522709.68845  24153559.939    24153570.8724
 00  4 21  3 57  0.0000000  0  8 15 21 23 09 29 05 30 25
  21775355.510   -13952572.285 8 -10837373.81647  21775359.564    21775367.0174
  20464428.985   -23844226.137 9 -18564275.28448  20464431.918    20464439.5914
  20997755.987   -20575072.902 9 -16004238.14247  20997756.532    20997764.4064
  22614844.820   -10021177.053 8  -7784477.98446  22614851.006    22614859.0114
  20811748.829   -21233863.360 9 -16527368.20448  20811750.969    20811757.7384
  22771371.192    -9579449.094 8  -7447263.06546  22771376.285    22771386.3564
  23721667.110    -3551275.105 8  -2749979.21046  23721671.125    23721681.5434
  24134411.284    -5921507.133 8  -4601112.88745  24134412.956    24134423.1424
 00  4 21  3 57 30.0000000  0  8 15 21 23 09 29 05 30 25
  21770108.282   -13980150.959 8 -10858863.68147  21770110.927    21770119.3554
  20456691.727   -23884889.266 9 -18595960.77048  20456693.968    20456701.5124
  21005143.965   -20536237.546 9 -15973976.85347  21005146.764    21005154.6444
  22632730.905    -9927205.230 8  -7711253.22846  22632732.853    22632741.6944
  20807059.609   -21258502.481 9 -16546567.43548  20807062.154    20807069.0534
  22762719.341    -9624934.429 8  -7482706.12246  22762720.897    22762730.9704
  23704133.134    -3643405.098 8  -2821768.67846  23704139.887    23704150.0254
  24115282.101    -6022012.287 8  -4679428.50445  24115286.882    24115297.6264
 00  4 21  3 58  0.0000000  0  8 15 21 23 09 29 05 30 25
  21764980.529   -14007106.966 8 -10879868.33647  21764981.967    21764989.0074
  20449032.688   -23925137.571 9 -18627323.02448  20449035.085    20449042.8274
  21012611.051   -20496998.001 9 -15943400.61047  21012613.729    21012621.5604
  22650662.490    -9832979.253 8  -7637830.43646  22650663.830    22650672.8484
  20802410.357   -21282941.773 9 -16565611.07748  20802412.069    20802418.1564
  22754151.799    -9669960.265 8  -7517791.11646  22754152.800    22754162.5974
  23686629.755    -3735407.260 8  -2893458.51646  23686631.986    23686642.9204
  24096183.062    -6122394.435 7  -4757648.22245  24096184.422    24096194.7454
 00  4 21  3 58 30.0000000  0  8 15 21 23 09 29 05 30 25
  21759970.284   -14033439.399 8 -10900387.07947  21759971.659    21759978.8654
  20441449.881   -23964979.227 9 -18658368.45148  20441453.391    20441461.4534
  21020151.835   -20457374.367 9 -15912525.07347  21020153.679    21020161.7924
  22668636.767    -9738516.455 8  -7564223.10146  22668639.821    22668648.3524
  20797796.309   -21307176.801 9 -16584495.54248  20797799.767    20797806.4494
  22745671.874    -9714515.795 8  -7552509.64246  22745674.376    22745683.5524
  23669145.110    -3827264.266 8  -2965035.21846  23669151.116    23669163.0154
  24077109.452    -6222633.226 7  -4835756.20445  24077109.485    24077120.3154
 00  4 21  3 59  0.0000000  0  8 15 21 23 09 29 05 30 25
  21755073.612   -14059147.440 8 -10920419.29547  21755078.362    21755086.8674
  20433946.970   -24004413.909 9 -18689096.79648  20433949.221    20433957.2444
  21027762.414   -20417382.508 9 -15881362.61447  21027764.000    21027771.8344
  22686662.537    -9643816.971 8  -7490431.36846  22686660.463    22686669.6964
  20793225.123   -21331197.513 9 -16603213.13748  20793228.653    20793235.6074
  22737286.180    -9758582.004 8  -7586846.88246  22737289.069    22737298.0354
  23651695.330    -3918972.595 8  -3036496.12246  23651700.615    23651710.9244
  24058058.141    -6322704.434 7  -4913733.65845  24058066.090    24058077.2654
 00  4 21  3 59 30.0000000  0  8 15 21 23 09 29 05 30 25
  21750301.890   -14084230.083 8 -10939964.20847  21750305.483    21750314.0074
  20426522.865   -24043432.020 9 -18719500.53648  20426524.548    20426532.0314
  21035440.659   -20377021.205 9 -15849912.27247  21035444.871    21035452.4104
  22704720.386    -9548886.068 8  -7416459.28846  22704725.629    22704733.0834
  20788695.740   -21355006.470 9 -16621765.71548  20788698.151    20788704.8174
  22728989.946    -9802162.840 8  -7620805.90846  22728996.233    22729004.7364
  23634274.368    -4010528.439 8  -3107838.19946  23634277.499    23634288.1624
  24039063.224    -6422590.516 8  -4991566.79946  24039059.226    24039070.0024
 00  4 21  4  0  0.0000000  0  8 15 21 23 09 29 05 30 25
  21745649.275   -14108686.593 8 -10959021.22347  21745651.740    21745659.4074
  20419175.082   -24082035.326 9 -18749581.05848  20419178.140    20419186.1154
  21043197.216   -20336271.311 9 -15818159.13447  21043199.465    21043207.0894
  22722829.185    -9453718.939 8  -7342303.09446  22722834.868    22722843.3944
  20784202.776   -21378616.213 9 -16640162.98448  20784205.360    20784212.2504
  22720791.496    -9845271.147 8  -7654396.74346  22720792.124    22720801.7514
  23616876.477    -4101946.872 8  -3179073.18446  23616880.828    23616891.9614
  24020084.957    -6522282.116 8  -5069248.42646  24020088.006    24020098.9364
 00  4 21  4  0 30.0000000  0  8 15 21 23 09 29 05 30 25
  21741114.260   -14132516.334 8 -10977589.79547  21741117.475    21741125.1824
  20411906.168   -24120239.940 9 -18779350.86748  20411908.194    20411915.9164
  21051031.401   -20295102.636 9 -15786079.66347  21051033.488    21051040.9294
  22740991.198    -9358293.280 8  -7267945.48146  22740993.612    22741002.6324
  20779747.880   -21402026.652 9 -16658404.99148  20779750.819    20779757.8084
  22712671.050    -9887916.343 8  -7687626.69346  22712676.502    22712686.0494
  23599502.841    -4193243.717 8  -3250213.43046  23599508.172    23599517.9214
  24001144.769    -6621795.683 8  -5146791.33346  24001151.828    24001162.7924
 00  4 21  4  1  0.0000000  0  8 15 21 23 09 29 05 30 25
  21736701.444   -14155718.555 8 -10995669.43347  21736702.040    21736709.1534
  20404708.348   -24158058.582 9 -18808819.93248  20404711.737    20404719.4514
  21058946.917   -20253497.962 9 -15753660.46647  21058950.257    21058958.4914
  22759202.956    -9262597.357 8  -7193377.24146  22759204.148    22759212.2704
  20775332.609   -21425227.639 9 -16676483.72548  20775335.967    20775342.5444
  22704646.246    -9930110.337 8  -7720505.07346  22704647.771    22704656.9934
  23582150.690    -4284426.814 8  -3321265.07146  23582155.483    23582165.8594
  23982242.091    -6721150.895 8  -5224210.88445  23982246.084    23982254.2214
 00  4 21  4  1 30.0000000  0  8 15 21 23 09 29 05 30 25
  21732402.757   -14178292.387 8 -11013259.40647  21732405.748    21732413.6444
  20397584.011   -24195502.867 9 -18837997.25648  20397586.129    20397593.8114
  21066947.090   -20211458.492 9 -15720902.47047  21066950.054    21066958.6644
  22777464.566    -9166627.712 8  -7118595.77246  22777466.407    22777475.1704
  20770958.458   -21448219.644 9 -16694399.65648  20770960.396    20770967.0354
  22696698.026    -9971871.654 8  -7753046.30846  22696700.456    22696709.1994
  23564822.239    -4375502.618 8  -3392233.08746  23564825.012    23564835.5274
  23963362.988    -6820380.992 8  -5301532.92845  23963361.172    23963371.2264
 00  4 21  4  2  0.0000000  0  8 15 21 23 09 29 05 30 25
  21728230.718   -14200236.972 8 -11030359.05547  21728230.257    21728237.2084
  20390525.515   -24232592.091 9 -18866897.95948  20390528.073    20390536.2674
  21075028.985   -20168995.898 9 -15687814.76847  21075030.850    21075038.7384
  22795783.685    -9070369.012 8  -7043589.01846  22795784.485    22795792.3154
  20766624.252   -21470993.492 9 -16712145.62048  20766627.225    20766633.8084
  22688836.190   -10013199.796 8  -7785249.99946  22688836.562    22688845.4744
  23547509.881    -4466475.203 8  -3463120.66946  23547513.518    23547523.4744
  23944500.671    -6919488.467 8  -5378759.37245  23944502.212    23944511.3404
 00  4 21  4  2 30.0000000  0  8 15 21 23 09 29 05 30 25
  21724172.076   -14221551.803 8 -11046967.98947  21724174.848    21724181.6204
  20383535.450   -24269321.697 9 -18895518.44848  20383538.623    20383546.5664
  21083186.935   -20126128.328 9 -15654411.49747  21083187.966    21083196.5284
  22814151.461    -8973815.803 8  -6968352.80846  22814157.248    22814165.6514
  20762334.374   -21493539.052 9 -16729713.64448  20762336.898    20762343.8614
  22681056.788   -10054089.889 8  -7817112.35346  22681055.466    22681063.9684
  23530222.906    -4557322.068 8  -3533910.31246  23530225.889    23530236.2994
  23925662.532    -7018469.071 8  -5455887.00245  23925666.176    23925675.0254
 00  4 21  4  3  0.0000000  0  8 15 21 23 09 29 05 30 25
  21720234.938   -14242236.133 8 -11063085.63347  21720238.612    21720245.3794
  20376621.573   -24305660.855 9 -18923834.64448  20376623.842    20376631.3274
  21091416.726   -20082874.104 9 -15620706.95247  21091418.764    21091427.3994
  22832578.591    -8876989.041 8  -6892903.51146  22832582.939    22832591.9004
  20758085.555   -21515858.527 9 -16747105.52948  20758089.442    20758096.5964
  22673356.405   -10094537.131 8  -7848629.62446  22673358.174    22673366.6724
  23512961.893    -4648026.241 8  -3604588.75146  23512965.398    23512974.8744
  23906852.641    -7117306.526 8  -5532903.08745  23906858.895    23906868.1744
 00  4 21  4  3 30.0000000  0  8 15 21 23 09 29 05 30 25
  21716418.584   -14262289.250 8 -11078711.40847  21716421.924    21716429.0124
  20369784.233   -24341580.311 9 -18951823.83248  20369788.424    20369796.2324
  21099719.552   -20039233.686 9 -15586701.47347  21099723.350    21099731.6364
  22851054.232    -8779897.586 8  -6817247.88146  22851058.863    22851067.6534
  20753878.360   -21537959.462 9 -16764327.04548  20753883.427    20753890.2964
  22665745.820   -10134521.008 8  -7879785.84346  22665748.902    22665757.8494
  23495733.027    -4738577.724 8  -3675148.21545  23495732.905    23495742.7044
  23888082.052    -7215978.401 8  -5609790.11546  23888081.542    23888091.8874
 00  4 21  4  4  0.0000000  0  8 15 21 23 09 29 05 30 25
  21712723.046   -14281710.889 8 -11093845.12947  21712725.853    21712732.7674
  20363035.272   -24377060.898 9 -18979471.07848  20363036.848    20363044.7124
  21108101.404   -19995197.620 9 -15552387.68847  21108103.193    21108111.4144
  22869578.207    -8682570.080 8  -6741408.29146  22869579.824    22869588.5434
  20749713.855   -21559852.606 9 -16781386.58748  20749717.788    20749724.6114
  22658228.718   -10174021.204 8  -7910565.16346  22658232.384    22658241.2484
  23478529.864    -4828952.102 8  -3745569.69145  23478535.197    23478545.1564
  23869340.077    -7314444.399 8  -5686516.70746  23869344.930    23869353.8134
 00  4 21  4  4 30.0000000  0  8 15 21 23 09 29 05 30 25
  21709148.155   -14300500.348 8 -11108486.23147  21709150.197    21709157.4014
  20356368.695   -24412087.343 9 -19006764.37648  20356371.550    20356379.1624
  21116558.655   -19950758.591 9 -15517759.90347  21116559.774    21116567.6894
  22888140.863    -8585034.213 8  -6665406.36346  22888140.302    22888149.3594
  20745586.519   -21581549.050 9 -16798292.92748  20745588.694    20745595.7144
  22650803.101   -10213045.282 8  -7940973.48846  22650806.378    22650815.2824
  23461372.413    -4919133.498 8  -3815840.79445  23461374.081    23461384.6954
  23850645.032    -7412699.942 8  -5763079.33446  23850647.466    23850656.7604
 00  4 21  4  5  0.0000000  0  8 15 21 23 09 29 05 30 25
  21705690.704   -14318657.152 8 -11122634.36547  21705694.568    21705702.9064
  20349788.642   -24446661.731 9 -19033705.47748  20349792.008    20349799.6984
  21125092.115   -19905908.144 9 -15482811.54347  21125094.444    21125102.9254
  22906736.443    -8487295.660 8  -6589246.51446  22906739.264    22906748.1954
  20741495.288   -21603045.773 9 -16815043.56247  20741497.655    20741504.6914
  22643465.732   -10251592.272 8  -7971010.06046  22643471.998    22643479.7894
  23444242.299    -5009125.507 8  -3885964.29945  23444248.494    23444259.4034
  23831995.274    -7510738.766 8  -5839473.06846  23831990.826    23832000.2044
 00  4 21  4  5 30.0000000  0  8 15 21 23 09 29 05 30 25
  21702357.324   -14336180.755 8 -11136289.09547  21702361.138    21702369.0564
  20343292.078   -24480805.057 9 -19060310.66548  20343294.759    20343302.5604
  21133705.038   -19860645.596 9 -15447542.06047  21133707.563    21133715.9554
  22925377.723    -8389344.013 8  -6512920.62246  22925379.118    22925387.2794
  20737442.778   -21624333.342 9 -16831631.13347  20737446.854    20737453.7754
  22636224.177   -10289657.859 8  -8000671.50246  22636227.617    22636235.6174
  23427159.089    -5098928.116 8  -3955940.25945  23427159.818    23427169.6344
  23813369.042    -7608560.089 8  -5915697.37245  23813375.391    23813384.5854
 00  4 21  4  6  0.0000000  0  8 15 21 23 09 29 05 30 25
  21699143.083   -14353070.500 8 -11149449.90447  21699146.502    21699154.7674
  20336875.171   -24514526.782 9 -19086587.37348  20336877.812    20336885.5614
  21142397.247   -19814982.422 9 -15411960.42147  21142397.258    21142405.6454
  22944056.409    -8291167.113 8  -6436419.16146  22944061.986    22944070.7264
  20733432.364   -21645409.970 9 -16848054.48147  20733436.230    20733443.3404
  22629067.498   -10327261.340 8  -8029972.86946  22629071.952    22629080.9254
  23410104.775    -5188537.724 8  -4025765.78845  23410107.967    23410117.4504
  23794796.643    -7706177.098 8  -5991762.45746  23794799.644    23794809.2804
